<?xml version="1.0" encoding="UTF-8" standalone="no" ?>
<gpx xmlns="http://www.topografix.com/GPX/1/1" xmlns:xsi="http://www.w3.org/2001/XMLSchema-instance" xsi:schemaLocation="http://www.topografix.com/GPX/1/1 http://www.topografix.com/GPX/1/1/gpx.xsd" version="1.1" creator="VisuGPX - https://www.visugpx.com">
  <metadata>
    <name>Voiteur,Blandans,Frontenay,Croix de Beaumont....</name>
  </metadata>
  <trk>
    <name><![CDATA[Voiteur,Blandans,Frontenay,Croix de Beaumont...._1]]></name>
    <trkseg>
      <trkpt lat="46.76604" lon="5.61967">
        <ele>364.2</ele>
        <time>2021-03-28T11:44:45Z</time>
      </trkpt>
      <trkpt lat="46.76605" lon="5.61961">
        <ele>363.8</ele>
        <time>2021-03-28T11:44:56Z</time>
      </trkpt>
      <trkpt lat="46.76606" lon="5.61954">
        <ele>362.7</ele>
        <time>2021-03-28T11:45:03Z</time>
      </trkpt>
      <trkpt lat="46.76602" lon="5.61949">
        <ele>362.3</ele>
        <time>2021-03-28T11:45:08Z</time>
      </trkpt>
      <trkpt lat="46.76599" lon="5.61943">
        <ele>362</ele>
        <time>2021-03-28T11:45:13Z</time>
      </trkpt>
      <trkpt lat="46.76595" lon="5.61938">
        <ele>361.9</ele>
        <time>2021-03-28T11:45:17Z</time>
      </trkpt>
      <trkpt lat="46.76592" lon="5.61931">
        <ele>362.5</ele>
        <time>2021-03-28T11:45:22Z</time>
      </trkpt>
      <trkpt lat="46.7659" lon="5.61925">
        <ele>362.2</ele>
        <time>2021-03-28T11:45:27Z</time>
      </trkpt>
      <trkpt lat="46.76587" lon="5.61919">
        <ele>361.6</ele>
        <time>2021-03-28T11:45:32Z</time>
      </trkpt>
      <trkpt lat="46.76585" lon="5.61913">
        <ele>361.1</ele>
        <time>2021-03-28T11:45:37Z</time>
      </trkpt>
      <trkpt lat="46.76581" lon="5.61907">
        <ele>360.5</ele>
        <time>2021-03-28T11:45:42Z</time>
      </trkpt>
      <trkpt lat="46.76579" lon="5.61902">
        <ele>360.2</ele>
        <time>2021-03-28T11:45:46Z</time>
      </trkpt>
      <trkpt lat="46.76574" lon="5.61898">
        <ele>359.4</ele>
        <time>2021-03-28T11:45:52Z</time>
      </trkpt>
      <trkpt lat="46.7657" lon="5.61893">
        <ele>358.9</ele>
        <time>2021-03-28T11:45:58Z</time>
      </trkpt>
      <trkpt lat="46.76568" lon="5.61887">
        <ele>359</ele>
        <time>2021-03-28T11:46:03Z</time>
      </trkpt>
      <trkpt lat="46.76565" lon="5.61881">
        <ele>359.4</ele>
        <time>2021-03-28T11:46:08Z</time>
      </trkpt>
      <trkpt lat="46.76562" lon="5.61875">
        <ele>359.9</ele>
        <time>2021-03-28T11:46:13Z</time>
      </trkpt>
      <trkpt lat="46.76559" lon="5.61869">
        <ele>360.5</ele>
        <time>2021-03-28T11:46:18Z</time>
      </trkpt>
      <trkpt lat="46.76557" lon="5.61862">
        <ele>360.9</ele>
        <time>2021-03-28T11:46:23Z</time>
      </trkpt>
      <trkpt lat="46.76555" lon="5.61854">
        <ele>361.5</ele>
        <time>2021-03-28T11:46:27Z</time>
      </trkpt>
      <trkpt lat="46.76551" lon="5.61848">
        <ele>361.5</ele>
        <time>2021-03-28T11:46:32Z</time>
      </trkpt>
      <trkpt lat="46.76548" lon="5.61843">
        <ele>360.5</ele>
        <time>2021-03-28T11:46:38Z</time>
      </trkpt>
      <trkpt lat="46.76546" lon="5.61836">
        <ele>359.7</ele>
        <time>2021-03-28T11:46:44Z</time>
      </trkpt>
      <trkpt lat="46.76543" lon="5.6183">
        <ele>359.4</ele>
        <time>2021-03-28T11:46:48Z</time>
      </trkpt>
      <trkpt lat="46.76541" lon="5.61824">
        <ele>359.5</ele>
        <time>2021-03-28T11:46:53Z</time>
      </trkpt>
      <trkpt lat="46.76538" lon="5.61819">
        <ele>359.8</ele>
        <time>2021-03-28T11:46:57Z</time>
      </trkpt>
      <trkpt lat="46.76534" lon="5.61814">
        <ele>360.2</ele>
        <time>2021-03-28T11:47:02Z</time>
      </trkpt>
      <trkpt lat="46.76529" lon="5.61811">
        <ele>360.1</ele>
        <time>2021-03-28T11:47:08Z</time>
      </trkpt>
      <trkpt lat="46.76524" lon="5.61809">
        <ele>359.7</ele>
        <time>2021-03-28T11:47:15Z</time>
      </trkpt>
      <trkpt lat="46.76519" lon="5.61807">
        <ele>360.5</ele>
        <time>2021-03-28T11:47:21Z</time>
      </trkpt>
      <trkpt lat="46.76514" lon="5.61805">
        <ele>361.9</ele>
        <time>2021-03-28T11:47:27Z</time>
      </trkpt>
      <trkpt lat="46.76509" lon="5.61804">
        <ele>363.3</ele>
        <time>2021-03-28T11:47:33Z</time>
      </trkpt>
      <trkpt lat="46.76504" lon="5.61802">
        <ele>363.9</ele>
        <time>2021-03-28T11:47:39Z</time>
      </trkpt>
      <trkpt lat="46.76499" lon="5.61801">
        <ele>364.2</ele>
        <time>2021-03-28T11:47:45Z</time>
      </trkpt>
      <trkpt lat="46.76494" lon="5.618">
        <ele>364.1</ele>
        <time>2021-03-28T11:47:51Z</time>
      </trkpt>
      <trkpt lat="46.7649" lon="5.618">
        <ele>364.1</ele>
        <time>2021-03-28T11:47:56Z</time>
      </trkpt>
      <trkpt lat="46.76485" lon="5.618">
        <ele>364.2</ele>
        <time>2021-03-28T11:48:01Z</time>
      </trkpt>
      <trkpt lat="46.7648" lon="5.61799">
        <ele>363.7</ele>
        <time>2021-03-28T11:48:12Z</time>
      </trkpt>
      <trkpt lat="46.76475" lon="5.61799">
        <ele>363.5</ele>
        <time>2021-03-28T11:48:19Z</time>
      </trkpt>
      <trkpt lat="46.7647" lon="5.61798">
        <ele>363.8</ele>
        <time>2021-03-28T11:48:51Z</time>
      </trkpt>
      <trkpt lat="46.76465" lon="5.61798">
        <ele>363.8</ele>
        <time>2021-03-28T11:48:58Z</time>
      </trkpt>
      <trkpt lat="46.7646" lon="5.61797">
        <ele>363.8</ele>
        <time>2021-03-28T11:49:05Z</time>
      </trkpt>
      <trkpt lat="46.7645" lon="5.61805">
        <ele>365.5</ele>
        <time>2021-03-28T11:49:09Z</time>
      </trkpt>
      <trkpt lat="46.76444" lon="5.61806">
        <ele>366.8</ele>
        <time>2021-03-28T11:49:13Z</time>
      </trkpt>
      <trkpt lat="46.76439" lon="5.61805">
        <ele>368.2</ele>
        <time>2021-03-28T11:49:19Z</time>
      </trkpt>
      <trkpt lat="46.76436" lon="5.61801">
        <ele>368.9</ele>
        <time>2021-03-28T11:49:28Z</time>
      </trkpt>
      <trkpt lat="46.76433" lon="5.61795">
        <ele>369</ele>
        <time>2021-03-28T11:49:34Z</time>
      </trkpt>
      <trkpt lat="46.76431" lon="5.61789">
        <ele>369</ele>
        <time>2021-03-28T11:49:40Z</time>
      </trkpt>
      <trkpt lat="46.76432" lon="5.61782">
        <ele>368.7</ele>
        <time>2021-03-28T11:49:47Z</time>
      </trkpt>
      <trkpt lat="46.76434" lon="5.61776">
        <ele>368.4</ele>
        <time>2021-03-28T11:49:53Z</time>
      </trkpt>
      <trkpt lat="46.76434" lon="5.61768">
        <ele>367.2</ele>
        <time>2021-03-28T11:49:58Z</time>
      </trkpt>
      <trkpt lat="46.76437" lon="5.61763">
        <ele>366</ele>
        <time>2021-03-28T11:50:04Z</time>
      </trkpt>
      <trkpt lat="46.76439" lon="5.61754">
        <ele>361.1</ele>
        <time>2021-03-28T11:50:08Z</time>
      </trkpt>
      <trkpt lat="46.76441" lon="5.61748">
        <ele>356.2</ele>
        <time>2021-03-28T11:50:14Z</time>
      </trkpt>
      <trkpt lat="46.76444" lon="5.6174">
        <ele>353.9</ele>
        <time>2021-03-28T11:50:20Z</time>
      </trkpt>
      <trkpt lat="46.76445" lon="5.61733">
        <ele>353.1</ele>
        <time>2021-03-28T11:50:24Z</time>
      </trkpt>
      <trkpt lat="46.76444" lon="5.61725">
        <ele>351.9</ele>
        <time>2021-03-28T11:50:28Z</time>
      </trkpt>
      <trkpt lat="46.76442" lon="5.61719">
        <ele>350.8</ele>
        <time>2021-03-28T11:50:32Z</time>
      </trkpt>
      <trkpt lat="46.76439" lon="5.61713">
        <ele>349</ele>
        <time>2021-03-28T11:50:38Z</time>
      </trkpt>
      <trkpt lat="46.76436" lon="5.61709">
        <ele>346.7</ele>
        <time>2021-03-28T11:50:46Z</time>
      </trkpt>
      <trkpt lat="46.76432" lon="5.61704">
        <ele>344.9</ele>
        <time>2021-03-28T11:50:52Z</time>
      </trkpt>
      <trkpt lat="46.76428" lon="5.61699">
        <ele>343.3</ele>
        <time>2021-03-28T11:50:57Z</time>
      </trkpt>
      <trkpt lat="46.76424" lon="5.61694">
        <ele>341.4</ele>
        <time>2021-03-28T11:51:03Z</time>
      </trkpt>
      <trkpt lat="46.7642" lon="5.61692">
        <ele>339.5</ele>
        <time>2021-03-28T11:51:09Z</time>
      </trkpt>
      <trkpt lat="46.76416" lon="5.61689">
        <ele>337.9</ele>
        <time>2021-03-28T11:51:16Z</time>
      </trkpt>
      <trkpt lat="46.76412" lon="5.61684">
        <ele>336.8</ele>
        <time>2021-03-28T11:51:21Z</time>
      </trkpt>
      <trkpt lat="46.76408" lon="5.61681">
        <ele>336.3</ele>
        <time>2021-03-28T11:51:25Z</time>
      </trkpt>
      <trkpt lat="46.76403" lon="5.61676">
        <ele>336</ele>
        <time>2021-03-28T11:51:30Z</time>
      </trkpt>
      <trkpt lat="46.76399" lon="5.61673">
        <ele>335.7</ele>
        <time>2021-03-28T11:51:34Z</time>
      </trkpt>
      <trkpt lat="46.76395" lon="5.61671">
        <ele>335.2</ele>
        <time>2021-03-28T11:51:40Z</time>
      </trkpt>
      <trkpt lat="46.76391" lon="5.61667">
        <ele>335.1</ele>
        <time>2021-03-28T11:51:45Z</time>
      </trkpt>
      <trkpt lat="46.76386" lon="5.61664">
        <ele>335.2</ele>
        <time>2021-03-28T11:51:51Z</time>
      </trkpt>
      <trkpt lat="46.76382" lon="5.61662">
        <ele>335.2</ele>
        <time>2021-03-28T11:51:57Z</time>
      </trkpt>
      <trkpt lat="46.76377" lon="5.6166">
        <ele>334.9</ele>
        <time>2021-03-28T11:52:05Z</time>
      </trkpt>
      <trkpt lat="46.76373" lon="5.61658">
        <ele>334.7</ele>
        <time>2021-03-28T11:52:12Z</time>
      </trkpt>
      <trkpt lat="46.76369" lon="5.61655">
        <ele>334.4</ele>
        <time>2021-03-28T11:52:17Z</time>
      </trkpt>
      <trkpt lat="46.76364" lon="5.61652">
        <ele>334.1</ele>
        <time>2021-03-28T11:52:24Z</time>
      </trkpt>
      <trkpt lat="46.76359" lon="5.61651">
        <ele>333.5</ele>
        <time>2021-03-28T11:52:31Z</time>
      </trkpt>
      <trkpt lat="46.76352" lon="5.61649">
        <ele>332.7</ele>
        <time>2021-03-28T11:52:35Z</time>
      </trkpt>
      <trkpt lat="46.76347" lon="5.61647">
        <ele>331.8</ele>
        <time>2021-03-28T11:52:39Z</time>
      </trkpt>
      <trkpt lat="46.76342" lon="5.61644">
        <ele>331</ele>
        <time>2021-03-28T11:52:44Z</time>
      </trkpt>
      <trkpt lat="46.76338" lon="5.61639">
        <ele>330.2</ele>
        <time>2021-03-28T11:52:49Z</time>
      </trkpt>
      <trkpt lat="46.76335" lon="5.61634">
        <ele>329</ele>
        <time>2021-03-28T11:52:58Z</time>
      </trkpt>
      <trkpt lat="46.76331" lon="5.6163">
        <ele>327.7</ele>
        <time>2021-03-28T11:53:04Z</time>
      </trkpt>
      <trkpt lat="46.76328" lon="5.61626">
        <ele>326.4</ele>
        <time>2021-03-28T11:53:09Z</time>
      </trkpt>
      <trkpt lat="46.76324" lon="5.61621">
        <ele>323.7</ele>
        <time>2021-03-28T11:53:16Z</time>
      </trkpt>
      <trkpt lat="46.76328" lon="5.61623">
        <ele>321.8</ele>
        <time>2021-03-28T11:53:38Z</time>
      </trkpt>
      <trkpt lat="46.76325" lon="5.61628">
        <ele>323.3</ele>
        <time>2021-03-28T11:54:33Z</time>
      </trkpt>
      <trkpt lat="46.76321" lon="5.61623">
        <ele>325.1</ele>
        <time>2021-03-28T11:54:40Z</time>
      </trkpt>
      <trkpt lat="46.76318" lon="5.61617">
        <ele>323.9</ele>
        <time>2021-03-28T11:54:46Z</time>
      </trkpt>
      <trkpt lat="46.76315" lon="5.61612">
        <ele>322.7</ele>
        <time>2021-03-28T11:54:50Z</time>
      </trkpt>
      <trkpt lat="46.76312" lon="5.61606">
        <ele>321</ele>
        <time>2021-03-28T11:54:55Z</time>
      </trkpt>
      <trkpt lat="46.76309" lon="5.61599">
        <ele>319.6</ele>
        <time>2021-03-28T11:55:00Z</time>
      </trkpt>
      <trkpt lat="46.76306" lon="5.61593">
        <ele>319</ele>
        <time>2021-03-28T11:55:04Z</time>
      </trkpt>
      <trkpt lat="46.76303" lon="5.61587">
        <ele>318.1</ele>
        <time>2021-03-28T11:55:08Z</time>
      </trkpt>
      <trkpt lat="46.76301" lon="5.6158">
        <ele>317.1</ele>
        <time>2021-03-28T11:55:14Z</time>
      </trkpt>
      <trkpt lat="46.76299" lon="5.61573">
        <ele>314.6</ele>
        <time>2021-03-28T11:55:21Z</time>
      </trkpt>
      <trkpt lat="46.76298" lon="5.61566">
        <ele>311.7</ele>
        <time>2021-03-28T11:55:26Z</time>
      </trkpt>
      <trkpt lat="46.76297" lon="5.61559">
        <ele>310</ele>
        <time>2021-03-28T11:55:31Z</time>
      </trkpt>
      <trkpt lat="46.76295" lon="5.61553">
        <ele>308.6</ele>
        <time>2021-03-28T11:55:36Z</time>
      </trkpt>
      <trkpt lat="46.76294" lon="5.61546">
        <ele>307.8</ele>
        <time>2021-03-28T11:55:41Z</time>
      </trkpt>
      <trkpt lat="46.76294" lon="5.61539">
        <ele>307.2</ele>
        <time>2021-03-28T11:55:46Z</time>
      </trkpt>
      <trkpt lat="46.76293" lon="5.61532">
        <ele>306.8</ele>
        <time>2021-03-28T11:55:52Z</time>
      </trkpt>
      <trkpt lat="46.76292" lon="5.61526">
        <ele>306.6</ele>
        <time>2021-03-28T11:55:58Z</time>
      </trkpt>
      <trkpt lat="46.76292" lon="5.61519">
        <ele>306.8</ele>
        <time>2021-03-28T11:56:04Z</time>
      </trkpt>
      <trkpt lat="46.7629" lon="5.61512">
        <ele>306.5</ele>
        <time>2021-03-28T11:56:13Z</time>
      </trkpt>
      <trkpt lat="46.76288" lon="5.61505">
        <ele>305.9</ele>
        <time>2021-03-28T11:56:18Z</time>
      </trkpt>
      <trkpt lat="46.76285" lon="5.615">
        <ele>305.5</ele>
        <time>2021-03-28T11:56:23Z</time>
      </trkpt>
      <trkpt lat="46.76282" lon="5.61495">
        <ele>305.1</ele>
        <time>2021-03-28T11:56:29Z</time>
      </trkpt>
      <trkpt lat="46.76279" lon="5.61491">
        <ele>305.1</ele>
        <time>2021-03-28T11:56:36Z</time>
      </trkpt>
      <trkpt lat="46.76274" lon="5.61486">
        <ele>304.8</ele>
        <time>2021-03-28T11:56:44Z</time>
      </trkpt>
      <trkpt lat="46.7627" lon="5.61482">
        <ele>303.8</ele>
        <time>2021-03-28T11:56:49Z</time>
      </trkpt>
      <trkpt lat="46.76266" lon="5.61478">
        <ele>302</ele>
        <time>2021-03-28T11:56:56Z</time>
      </trkpt>
      <trkpt lat="46.76262" lon="5.61475">
        <ele>300.5</ele>
        <time>2021-03-28T11:57:02Z</time>
      </trkpt>
      <trkpt lat="46.76258" lon="5.6147">
        <ele>299.1</ele>
        <time>2021-03-28T11:57:08Z</time>
      </trkpt>
      <trkpt lat="46.76254" lon="5.61466">
        <ele>297.6</ele>
        <time>2021-03-28T11:57:15Z</time>
      </trkpt>
      <trkpt lat="46.7625" lon="5.61462">
        <ele>296.7</ele>
        <time>2021-03-28T11:57:20Z</time>
      </trkpt>
      <trkpt lat="46.76246" lon="5.61459">
        <ele>295.7</ele>
        <time>2021-03-28T11:57:24Z</time>
      </trkpt>
      <trkpt lat="46.76242" lon="5.61455">
        <ele>294.3</ele>
        <time>2021-03-28T11:57:29Z</time>
      </trkpt>
      <trkpt lat="46.76238" lon="5.6145">
        <ele>293.1</ele>
        <time>2021-03-28T11:57:34Z</time>
      </trkpt>
      <trkpt lat="46.76234" lon="5.61445">
        <ele>292.2</ele>
        <time>2021-03-28T11:57:39Z</time>
      </trkpt>
      <trkpt lat="46.7623" lon="5.61441">
        <ele>291.1</ele>
        <time>2021-03-28T11:57:45Z</time>
      </trkpt>
      <trkpt lat="46.76226" lon="5.61438">
        <ele>289.8</ele>
        <time>2021-03-28T11:57:50Z</time>
      </trkpt>
      <trkpt lat="46.76222" lon="5.61434">
        <ele>288.6</ele>
        <time>2021-03-28T11:57:55Z</time>
      </trkpt>
      <trkpt lat="46.76219" lon="5.61429">
        <ele>287.4</ele>
        <time>2021-03-28T11:58:00Z</time>
      </trkpt>
      <trkpt lat="46.76216" lon="5.61423">
        <ele>286.3</ele>
        <time>2021-03-28T11:58:06Z</time>
      </trkpt>
      <trkpt lat="46.76212" lon="5.61418">
        <ele>285.6</ele>
        <time>2021-03-28T11:58:12Z</time>
      </trkpt>
      <trkpt lat="46.76207" lon="5.61414">
        <ele>285</ele>
        <time>2021-03-28T11:58:18Z</time>
      </trkpt>
      <trkpt lat="46.76203" lon="5.61411">
        <ele>284.2</ele>
        <time>2021-03-28T11:58:24Z</time>
      </trkpt>
      <trkpt lat="46.76199" lon="5.61408">
        <ele>283.7</ele>
        <time>2021-03-28T11:58:30Z</time>
      </trkpt>
      <trkpt lat="46.76194" lon="5.61405">
        <ele>283.3</ele>
        <time>2021-03-28T11:58:35Z</time>
      </trkpt>
      <trkpt lat="46.76189" lon="5.61402">
        <ele>283.1</ele>
        <time>2021-03-28T11:58:41Z</time>
      </trkpt>
      <trkpt lat="46.76184" lon="5.61399">
        <ele>283</ele>
        <time>2021-03-28T11:58:46Z</time>
      </trkpt>
      <trkpt lat="46.7618" lon="5.61397">
        <ele>282.8</ele>
        <time>2021-03-28T11:58:51Z</time>
      </trkpt>
      <trkpt lat="46.76175" lon="5.61395">
        <ele>282.3</ele>
        <time>2021-03-28T11:58:56Z</time>
      </trkpt>
      <trkpt lat="46.7617" lon="5.61394">
        <ele>281.8</ele>
        <time>2021-03-28T11:59:01Z</time>
      </trkpt>
      <trkpt lat="46.76166" lon="5.61391">
        <ele>281.5</ele>
        <time>2021-03-28T11:59:06Z</time>
      </trkpt>
      <trkpt lat="46.76162" lon="5.61389">
        <ele>280.9</ele>
        <time>2021-03-28T11:59:12Z</time>
      </trkpt>
      <trkpt lat="46.76157" lon="5.61385">
        <ele>280</ele>
        <time>2021-03-28T11:59:17Z</time>
      </trkpt>
      <trkpt lat="46.76153" lon="5.61383">
        <ele>279.5</ele>
        <time>2021-03-28T11:59:21Z</time>
      </trkpt>
      <trkpt lat="46.76148" lon="5.61381">
        <ele>279.3</ele>
        <time>2021-03-28T11:59:25Z</time>
      </trkpt>
      <trkpt lat="46.76143" lon="5.61379">
        <ele>278.9</ele>
        <time>2021-03-28T11:59:30Z</time>
      </trkpt>
      <trkpt lat="46.76138" lon="5.61378">
        <ele>278.2</ele>
        <time>2021-03-28T11:59:35Z</time>
      </trkpt>
      <trkpt lat="46.76134" lon="5.61376">
        <ele>277.5</ele>
        <time>2021-03-28T11:59:39Z</time>
      </trkpt>
      <trkpt lat="46.76129" lon="5.61375">
        <ele>277</ele>
        <time>2021-03-28T11:59:43Z</time>
      </trkpt>
      <trkpt lat="46.76124" lon="5.61372">
        <ele>275.9</ele>
        <time>2021-03-28T11:59:49Z</time>
      </trkpt>
      <trkpt lat="46.7612" lon="5.61372">
        <ele>274.9</ele>
        <time>2021-03-28T11:59:54Z</time>
      </trkpt>
      <trkpt lat="46.76115" lon="5.61371">
        <ele>274.3</ele>
        <time>2021-03-28T11:59:58Z</time>
      </trkpt>
      <trkpt lat="46.7611" lon="5.61369">
        <ele>273.6</ele>
        <time>2021-03-28T12:00:03Z</time>
      </trkpt>
      <trkpt lat="46.76104" lon="5.61368">
        <ele>272.5</ele>
        <time>2021-03-28T12:00:08Z</time>
      </trkpt>
      <trkpt lat="46.761" lon="5.61369">
        <ele>271.1</ele>
        <time>2021-03-28T12:00:14Z</time>
      </trkpt>
      <trkpt lat="46.76094" lon="5.61367">
        <ele>270.3</ele>
        <time>2021-03-28T12:00:21Z</time>
      </trkpt>
      <trkpt lat="46.7609" lon="5.61367">
        <ele>270.3</ele>
        <time>2021-03-28T12:00:26Z</time>
      </trkpt>
      <trkpt lat="46.76085" lon="5.61365">
        <ele>270.4</ele>
        <time>2021-03-28T12:00:39Z</time>
      </trkpt>
      <trkpt lat="46.76079" lon="5.61364">
        <ele>270.4</ele>
        <time>2021-03-28T12:00:44Z</time>
      </trkpt>
      <trkpt lat="46.76074" lon="5.61364">
        <ele>270.6</ele>
        <time>2021-03-28T12:00:50Z</time>
      </trkpt>
      <trkpt lat="46.7607" lon="5.61364">
        <ele>270.5</ele>
        <time>2021-03-28T12:00:55Z</time>
      </trkpt>
      <trkpt lat="46.76065" lon="5.61365">
        <ele>270</ele>
        <time>2021-03-28T12:00:59Z</time>
      </trkpt>
      <trkpt lat="46.76061" lon="5.61368">
        <ele>269.2</ele>
        <time>2021-03-28T12:01:05Z</time>
      </trkpt>
      <trkpt lat="46.76059" lon="5.61375">
        <ele>268.5</ele>
        <time>2021-03-28T12:01:11Z</time>
      </trkpt>
      <trkpt lat="46.76057" lon="5.61382">
        <ele>268</ele>
        <time>2021-03-28T12:01:16Z</time>
      </trkpt>
      <trkpt lat="46.76055" lon="5.61388">
        <ele>267.5</ele>
        <time>2021-03-28T12:01:22Z</time>
      </trkpt>
      <trkpt lat="46.76051" lon="5.61392">
        <ele>266.7</ele>
        <time>2021-03-28T12:01:28Z</time>
      </trkpt>
      <trkpt lat="46.76047" lon="5.61397">
        <ele>265.2</ele>
        <time>2021-03-28T12:01:37Z</time>
      </trkpt>
      <trkpt lat="46.76045" lon="5.61404">
        <ele>264</ele>
        <time>2021-03-28T12:01:43Z</time>
      </trkpt>
      <trkpt lat="46.76042" lon="5.61409">
        <ele>263</ele>
        <time>2021-03-28T12:01:49Z</time>
      </trkpt>
      <trkpt lat="46.76038" lon="5.61414">
        <ele>261.8</ele>
        <time>2021-03-28T12:01:56Z</time>
      </trkpt>
      <trkpt lat="46.76034" lon="5.61418">
        <ele>260.6</ele>
        <time>2021-03-28T12:02:02Z</time>
      </trkpt>
      <trkpt lat="46.76031" lon="5.61424">
        <ele>259.6</ele>
        <time>2021-03-28T12:02:10Z</time>
      </trkpt>
      <trkpt lat="46.76029" lon="5.6143">
        <ele>259.2</ele>
        <time>2021-03-28T12:02:15Z</time>
      </trkpt>
      <trkpt lat="46.76026" lon="5.61436">
        <ele>258.7</ele>
        <time>2021-03-28T12:02:19Z</time>
      </trkpt>
      <trkpt lat="46.76024" lon="5.61443">
        <ele>258</ele>
        <time>2021-03-28T12:02:23Z</time>
      </trkpt>
      <trkpt lat="46.7602" lon="5.61448">
        <ele>257</ele>
        <time>2021-03-28T12:02:29Z</time>
      </trkpt>
      <trkpt lat="46.76017" lon="5.61453">
        <ele>255.9</ele>
        <time>2021-03-28T12:02:35Z</time>
      </trkpt>
      <trkpt lat="46.76013" lon="5.61458">
        <ele>254.1</ele>
        <time>2021-03-28T12:03:02Z</time>
      </trkpt>
      <trkpt lat="46.76011" lon="5.61465">
        <ele>254</ele>
        <time>2021-03-28T12:03:07Z</time>
      </trkpt>
      <trkpt lat="46.7601" lon="5.61471">
        <ele>253.9</ele>
        <time>2021-03-28T12:03:12Z</time>
      </trkpt>
      <trkpt lat="46.76007" lon="5.61478">
        <ele>254</ele>
        <time>2021-03-28T12:03:18Z</time>
      </trkpt>
      <trkpt lat="46.76003" lon="5.61483">
        <ele>254</ele>
        <time>2021-03-28T12:03:24Z</time>
      </trkpt>
      <trkpt lat="46.75999" lon="5.61487">
        <ele>253.9</ele>
        <time>2021-03-28T12:03:30Z</time>
      </trkpt>
      <trkpt lat="46.75994" lon="5.61488">
        <ele>253.8</ele>
        <time>2021-03-28T12:03:35Z</time>
      </trkpt>
      <trkpt lat="46.75989" lon="5.6149">
        <ele>253.5</ele>
        <time>2021-03-28T12:03:39Z</time>
      </trkpt>
      <trkpt lat="46.75984" lon="5.61491">
        <ele>253</ele>
        <time>2021-03-28T12:03:44Z</time>
      </trkpt>
      <trkpt lat="46.75982" lon="5.61485">
        <ele>251.9</ele>
        <time>2021-03-28T12:03:51Z</time>
      </trkpt>
      <trkpt lat="46.75983" lon="5.61478">
        <ele>250.7</ele>
        <time>2021-03-28T12:03:55Z</time>
      </trkpt>
      <trkpt lat="46.75985" lon="5.61472">
        <ele>249.3</ele>
        <time>2021-03-28T12:04:00Z</time>
      </trkpt>
      <trkpt lat="46.75986" lon="5.61465">
        <ele>246.7</ele>
        <time>2021-03-28T12:04:11Z</time>
      </trkpt>
      <trkpt lat="46.75986" lon="5.61457">
        <ele>246.8</ele>
        <time>2021-03-28T12:04:16Z</time>
      </trkpt>
      <trkpt lat="46.75985" lon="5.6145">
        <ele>247.4</ele>
        <time>2021-03-28T12:04:21Z</time>
      </trkpt>
      <trkpt lat="46.75983" lon="5.61443">
        <ele>247.8</ele>
        <time>2021-03-28T12:04:27Z</time>
      </trkpt>
      <trkpt lat="46.75981" lon="5.61437">
        <ele>247.7</ele>
        <time>2021-03-28T12:04:32Z</time>
      </trkpt>
      <trkpt lat="46.7598" lon="5.61429">
        <ele>247.6</ele>
        <time>2021-03-28T12:04:36Z</time>
      </trkpt>
      <trkpt lat="46.7598" lon="5.61422">
        <ele>247.8</ele>
        <time>2021-03-28T12:04:40Z</time>
      </trkpt>
      <trkpt lat="46.75984" lon="5.61417">
        <ele>247.5</ele>
        <time>2021-03-28T12:04:56Z</time>
      </trkpt>
      <trkpt lat="46.75984" lon="5.6141">
        <ele>247</ele>
        <time>2021-03-28T12:05:00Z</time>
      </trkpt>
      <trkpt lat="46.75986" lon="5.61404">
        <ele>246.2</ele>
        <time>2021-03-28T12:05:04Z</time>
      </trkpt>
      <trkpt lat="46.75987" lon="5.61396">
        <ele>245.2</ele>
        <time>2021-03-28T12:05:09Z</time>
      </trkpt>
      <trkpt lat="46.75988" lon="5.61388">
        <ele>244.4</ele>
        <time>2021-03-28T12:05:13Z</time>
      </trkpt>
      <trkpt lat="46.75989" lon="5.61381">
        <ele>243.7</ele>
        <time>2021-03-28T12:05:17Z</time>
      </trkpt>
      <trkpt lat="46.75989" lon="5.61374">
        <ele>243.1</ele>
        <time>2021-03-28T12:05:21Z</time>
      </trkpt>
      <trkpt lat="46.75989" lon="5.61367">
        <ele>243</ele>
        <time>2021-03-28T12:05:25Z</time>
      </trkpt>
      <trkpt lat="46.7599" lon="5.61361">
        <ele>243.1</ele>
        <time>2021-03-28T12:05:29Z</time>
      </trkpt>
      <trkpt lat="46.75991" lon="5.61353">
        <ele>243.2</ele>
        <time>2021-03-28T12:05:34Z</time>
      </trkpt>
      <trkpt lat="46.75992" lon="5.61345">
        <ele>243.7</ele>
        <time>2021-03-28T12:05:38Z</time>
      </trkpt>
      <trkpt lat="46.75992" lon="5.61338">
        <ele>244.3</ele>
        <time>2021-03-28T12:05:42Z</time>
      </trkpt>
      <trkpt lat="46.75994" lon="5.61332">
        <ele>245</ele>
        <time>2021-03-28T12:05:46Z</time>
      </trkpt>
      <trkpt lat="46.75995" lon="5.61325">
        <ele>245.4</ele>
        <time>2021-03-28T12:05:50Z</time>
      </trkpt>
      <trkpt lat="46.75998" lon="5.61318">
        <ele>245.6</ele>
        <time>2021-03-28T12:05:55Z</time>
      </trkpt>
      <trkpt lat="46.76" lon="5.61312">
        <ele>246</ele>
        <time>2021-03-28T12:06:00Z</time>
      </trkpt>
      <trkpt lat="46.76003" lon="5.61305">
        <ele>245.7</ele>
        <time>2021-03-28T12:06:05Z</time>
      </trkpt>
      <trkpt lat="46.76006" lon="5.61298">
        <ele>245</ele>
        <time>2021-03-28T12:06:10Z</time>
      </trkpt>
      <trkpt lat="46.76008" lon="5.61292">
        <ele>244.2</ele>
        <time>2021-03-28T12:06:15Z</time>
      </trkpt>
      <trkpt lat="46.76011" lon="5.61286">
        <ele>244</ele>
        <time>2021-03-28T12:06:19Z</time>
      </trkpt>
      <trkpt lat="46.76015" lon="5.6128">
        <ele>243.4</ele>
        <time>2021-03-28T12:06:24Z</time>
      </trkpt>
      <trkpt lat="46.76019" lon="5.61275">
        <ele>242.8</ele>
        <time>2021-03-28T12:06:28Z</time>
      </trkpt>
      <trkpt lat="46.76023" lon="5.6127">
        <ele>243</ele>
        <time>2021-03-28T12:06:32Z</time>
      </trkpt>
      <trkpt lat="46.76027" lon="5.61265">
        <ele>243</ele>
        <time>2021-03-28T12:06:36Z</time>
      </trkpt>
      <trkpt lat="46.76031" lon="5.61261">
        <ele>243</ele>
        <time>2021-03-28T12:06:40Z</time>
      </trkpt>
      <trkpt lat="46.76035" lon="5.61257">
        <ele>242.8</ele>
        <time>2021-03-28T12:06:44Z</time>
      </trkpt>
      <trkpt lat="46.76039" lon="5.61252">
        <ele>242.4</ele>
        <time>2021-03-28T12:06:49Z</time>
      </trkpt>
      <trkpt lat="46.76043" lon="5.61247">
        <ele>242</ele>
        <time>2021-03-28T12:06:54Z</time>
      </trkpt>
      <trkpt lat="46.76047" lon="5.61244">
        <ele>241.6</ele>
        <time>2021-03-28T12:06:58Z</time>
      </trkpt>
      <trkpt lat="46.76051" lon="5.61241">
        <ele>240.7</ele>
        <time>2021-03-28T12:07:03Z</time>
      </trkpt>
      <trkpt lat="46.76056" lon="5.61236">
        <ele>239.8</ele>
        <time>2021-03-28T12:07:08Z</time>
      </trkpt>
      <trkpt lat="46.7606" lon="5.61232">
        <ele>238.9</ele>
        <time>2021-03-28T12:07:13Z</time>
      </trkpt>
      <trkpt lat="46.76063" lon="5.61226">
        <ele>238</ele>
        <time>2021-03-28T12:07:18Z</time>
      </trkpt>
      <trkpt lat="46.76066" lon="5.61221">
        <ele>237.4</ele>
        <time>2021-03-28T12:07:22Z</time>
      </trkpt>
      <trkpt lat="46.76068" lon="5.61214">
        <ele>237</ele>
        <time>2021-03-28T12:07:26Z</time>
      </trkpt>
      <trkpt lat="46.7607" lon="5.61208">
        <ele>236.8</ele>
        <time>2021-03-28T12:07:30Z</time>
      </trkpt>
      <trkpt lat="46.76073" lon="5.61201">
        <ele>236.5</ele>
        <time>2021-03-28T12:07:35Z</time>
      </trkpt>
      <trkpt lat="46.76076" lon="5.61194">
        <ele>236.3</ele>
        <time>2021-03-28T12:07:40Z</time>
      </trkpt>
      <trkpt lat="46.76078" lon="5.61184">
        <ele>237.7</ele>
        <time>2021-03-28T12:07:44Z</time>
      </trkpt>
      <trkpt lat="46.76082" lon="5.6118">
        <ele>238.4</ele>
        <time>2021-03-28T12:07:49Z</time>
      </trkpt>
      <trkpt lat="46.76086" lon="5.61175">
        <ele>238.8</ele>
        <time>2021-03-28T12:07:54Z</time>
      </trkpt>
      <trkpt lat="46.76089" lon="5.61169">
        <ele>239.3</ele>
        <time>2021-03-28T12:08:10Z</time>
      </trkpt>
      <trkpt lat="46.76091" lon="5.61163">
        <ele>239</ele>
        <time>2021-03-28T12:08:17Z</time>
      </trkpt>
      <trkpt lat="46.76095" lon="5.61159">
        <ele>238.9</ele>
        <time>2021-03-28T12:08:33Z</time>
      </trkpt>
      <trkpt lat="46.76098" lon="5.61153">
        <ele>238.9</ele>
        <time>2021-03-28T12:08:38Z</time>
      </trkpt>
      <trkpt lat="46.76102" lon="5.61149">
        <ele>238.8</ele>
        <time>2021-03-28T12:08:43Z</time>
      </trkpt>
      <trkpt lat="46.76106" lon="5.61144">
        <ele>238.5</ele>
        <time>2021-03-28T12:08:48Z</time>
      </trkpt>
      <trkpt lat="46.76109" lon="5.61139">
        <ele>237.9</ele>
        <time>2021-03-28T12:08:54Z</time>
      </trkpt>
      <trkpt lat="46.76109" lon="5.6113">
        <ele>236.8</ele>
        <time>2021-03-28T12:09:01Z</time>
      </trkpt>
      <trkpt lat="46.76108" lon="5.61124">
        <ele>234.8</ele>
        <time>2021-03-28T12:09:29Z</time>
      </trkpt>
      <trkpt lat="46.76113" lon="5.61121">
        <ele>234.7</ele>
        <time>2021-03-28T12:09:44Z</time>
      </trkpt>
      <trkpt lat="46.76118" lon="5.61116">
        <ele>234.5</ele>
        <time>2021-03-28T12:09:48Z</time>
      </trkpt>
      <trkpt lat="46.76123" lon="5.61113">
        <ele>234.6</ele>
        <time>2021-03-28T12:09:52Z</time>
      </trkpt>
      <trkpt lat="46.76127" lon="5.6111">
        <ele>234.7</ele>
        <time>2021-03-28T12:09:57Z</time>
      </trkpt>
      <trkpt lat="46.76132" lon="5.61106">
        <ele>234.5</ele>
        <time>2021-03-28T12:10:09Z</time>
      </trkpt>
      <trkpt lat="46.76136" lon="5.61103">
        <ele>234.4</ele>
        <time>2021-03-28T12:10:14Z</time>
      </trkpt>
      <trkpt lat="46.7614" lon="5.611">
        <ele>234.4</ele>
        <time>2021-03-28T12:10:19Z</time>
      </trkpt>
      <trkpt lat="46.76143" lon="5.61094">
        <ele>235.6</ele>
        <time>2021-03-28T12:10:23Z</time>
      </trkpt>
      <trkpt lat="46.76147" lon="5.61089">
        <ele>236.8</ele>
        <time>2021-03-28T12:10:27Z</time>
      </trkpt>
      <trkpt lat="46.76151" lon="5.61084">
        <ele>237.6</ele>
        <time>2021-03-28T12:10:32Z</time>
      </trkpt>
      <trkpt lat="46.76155" lon="5.61076">
        <ele>239.3</ele>
        <time>2021-03-28T12:10:36Z</time>
      </trkpt>
      <trkpt lat="46.76159" lon="5.61067">
        <ele>241.1</ele>
        <time>2021-03-28T12:10:40Z</time>
      </trkpt>
      <trkpt lat="46.76163" lon="5.61062">
        <ele>242.9</ele>
        <time>2021-03-28T12:10:44Z</time>
      </trkpt>
      <trkpt lat="46.76166" lon="5.61057">
        <ele>244.5</ele>
        <time>2021-03-28T12:10:48Z</time>
      </trkpt>
      <trkpt lat="46.7617" lon="5.61051">
        <ele>246.2</ele>
        <time>2021-03-28T12:10:53Z</time>
      </trkpt>
      <trkpt lat="46.76174" lon="5.61047">
        <ele>247.1</ele>
        <time>2021-03-28T12:10:57Z</time>
      </trkpt>
      <trkpt lat="46.76178" lon="5.61043">
        <ele>247.5</ele>
        <time>2021-03-28T12:11:01Z</time>
      </trkpt>
      <trkpt lat="46.76182" lon="5.61039">
        <ele>247.7</ele>
        <time>2021-03-28T12:11:06Z</time>
      </trkpt>
      <trkpt lat="46.76186" lon="5.61035">
        <ele>247.9</ele>
        <time>2021-03-28T12:11:12Z</time>
      </trkpt>
      <trkpt lat="46.76191" lon="5.61035">
        <ele>248</ele>
        <time>2021-03-28T12:11:19Z</time>
      </trkpt>
      <trkpt lat="46.76196" lon="5.61034">
        <ele>246.2</ele>
        <time>2021-03-28T12:11:56Z</time>
      </trkpt>
      <trkpt lat="46.762" lon="5.6103">
        <ele>245.3</ele>
        <time>2021-03-28T12:12:01Z</time>
      </trkpt>
      <trkpt lat="46.76205" lon="5.61028">
        <ele>244.5</ele>
        <time>2021-03-28T12:12:05Z</time>
      </trkpt>
      <trkpt lat="46.76211" lon="5.61028">
        <ele>243.6</ele>
        <time>2021-03-28T12:12:09Z</time>
      </trkpt>
      <trkpt lat="46.76216" lon="5.61027">
        <ele>242.5</ele>
        <time>2021-03-28T12:12:13Z</time>
      </trkpt>
      <trkpt lat="46.76222" lon="5.61025">
        <ele>241.2</ele>
        <time>2021-03-28T12:12:17Z</time>
      </trkpt>
      <trkpt lat="46.76228" lon="5.61023">
        <ele>239.9</ele>
        <time>2021-03-28T12:12:21Z</time>
      </trkpt>
      <trkpt lat="46.76234" lon="5.61012">
        <ele>240.4</ele>
        <time>2021-03-28T12:12:25Z</time>
      </trkpt>
      <trkpt lat="46.76237" lon="5.61007">
        <ele>239.9</ele>
        <time>2021-03-28T12:12:29Z</time>
      </trkpt>
      <trkpt lat="46.76242" lon="5.61004">
        <ele>238.6</ele>
        <time>2021-03-28T12:12:35Z</time>
      </trkpt>
      <trkpt lat="46.76246" lon="5.60999">
        <ele>236.6</ele>
        <time>2021-03-28T12:12:42Z</time>
      </trkpt>
      <trkpt lat="46.7625" lon="5.60994">
        <ele>235.4</ele>
        <time>2021-03-28T12:12:47Z</time>
      </trkpt>
      <trkpt lat="46.76253" lon="5.6099">
        <ele>234.1</ele>
        <time>2021-03-28T12:12:52Z</time>
      </trkpt>
      <trkpt lat="46.76256" lon="5.60976">
        <ele>237.3</ele>
        <time>2021-03-28T12:12:56Z</time>
      </trkpt>
      <trkpt lat="46.76258" lon="5.60969">
        <ele>238.9</ele>
        <time>2021-03-28T12:13:00Z</time>
      </trkpt>
      <trkpt lat="46.76261" lon="5.60964">
        <ele>239.6</ele>
        <time>2021-03-28T12:13:04Z</time>
      </trkpt>
      <trkpt lat="46.76264" lon="5.60959">
        <ele>239.8</ele>
        <time>2021-03-28T12:13:08Z</time>
      </trkpt>
      <trkpt lat="46.76267" lon="5.60954">
        <ele>239.7</ele>
        <time>2021-03-28T12:13:13Z</time>
      </trkpt>
      <trkpt lat="46.76271" lon="5.60948">
        <ele>239.3</ele>
        <time>2021-03-28T12:13:18Z</time>
      </trkpt>
      <trkpt lat="46.76274" lon="5.60942">
        <ele>239</ele>
        <time>2021-03-28T12:13:22Z</time>
      </trkpt>
      <trkpt lat="46.76278" lon="5.60933">
        <ele>240.5</ele>
        <time>2021-03-28T12:13:27Z</time>
      </trkpt>
      <trkpt lat="46.76281" lon="5.60926">
        <ele>242.2</ele>
        <time>2021-03-28T12:13:31Z</time>
      </trkpt>
      <trkpt lat="46.76285" lon="5.60921">
        <ele>243.2</ele>
        <time>2021-03-28T12:13:36Z</time>
      </trkpt>
      <trkpt lat="46.76288" lon="5.60916">
        <ele>243.2</ele>
        <time>2021-03-28T12:13:41Z</time>
      </trkpt>
      <trkpt lat="46.76292" lon="5.60911">
        <ele>242.5</ele>
        <time>2021-03-28T12:13:45Z</time>
      </trkpt>
      <trkpt lat="46.76295" lon="5.60906">
        <ele>241.8</ele>
        <time>2021-03-28T12:13:49Z</time>
      </trkpt>
      <trkpt lat="46.76299" lon="5.60901">
        <ele>240.5</ele>
        <time>2021-03-28T12:13:54Z</time>
      </trkpt>
      <trkpt lat="46.76303" lon="5.60895">
        <ele>239.5</ele>
        <time>2021-03-28T12:13:59Z</time>
      </trkpt>
      <trkpt lat="46.76306" lon="5.6089">
        <ele>238.7</ele>
        <time>2021-03-28T12:14:04Z</time>
      </trkpt>
      <trkpt lat="46.7631" lon="5.60884">
        <ele>237.9</ele>
        <time>2021-03-28T12:14:09Z</time>
      </trkpt>
      <trkpt lat="46.76313" lon="5.60878">
        <ele>238.3</ele>
        <time>2021-03-28T12:14:13Z</time>
      </trkpt>
      <trkpt lat="46.76316" lon="5.60872">
        <ele>239.1</ele>
        <time>2021-03-28T12:14:18Z</time>
      </trkpt>
      <trkpt lat="46.76319" lon="5.60866">
        <ele>240.1</ele>
        <time>2021-03-28T12:14:23Z</time>
      </trkpt>
      <trkpt lat="46.76322" lon="5.6086">
        <ele>240.7</ele>
        <time>2021-03-28T12:14:27Z</time>
      </trkpt>
      <trkpt lat="46.76326" lon="5.60854">
        <ele>241.1</ele>
        <time>2021-03-28T12:14:32Z</time>
      </trkpt>
      <trkpt lat="46.7633" lon="5.60848">
        <ele>241</ele>
        <time>2021-03-28T12:14:37Z</time>
      </trkpt>
      <trkpt lat="46.76334" lon="5.60842">
        <ele>241</ele>
        <time>2021-03-28T12:14:42Z</time>
      </trkpt>
      <trkpt lat="46.76337" lon="5.60837">
        <ele>240.7</ele>
        <time>2021-03-28T12:14:47Z</time>
      </trkpt>
      <trkpt lat="46.76341" lon="5.60831">
        <ele>240.3</ele>
        <time>2021-03-28T12:14:52Z</time>
      </trkpt>
      <trkpt lat="46.76345" lon="5.60826">
        <ele>239.9</ele>
        <time>2021-03-28T12:14:57Z</time>
      </trkpt>
      <trkpt lat="46.76348" lon="5.60821">
        <ele>239.4</ele>
        <time>2021-03-28T12:15:02Z</time>
      </trkpt>
      <trkpt lat="46.76352" lon="5.60816">
        <ele>238.8</ele>
        <time>2021-03-28T12:15:07Z</time>
      </trkpt>
      <trkpt lat="46.76355" lon="5.60812">
        <ele>238</ele>
        <time>2021-03-28T12:15:12Z</time>
      </trkpt>
      <trkpt lat="46.76358" lon="5.60803">
        <ele>241</ele>
        <time>2021-03-28T12:15:16Z</time>
      </trkpt>
      <trkpt lat="46.76362" lon="5.60799">
        <ele>242</ele>
        <time>2021-03-28T12:15:20Z</time>
      </trkpt>
      <trkpt lat="46.76367" lon="5.60796">
        <ele>242.2</ele>
        <time>2021-03-28T12:15:25Z</time>
      </trkpt>
      <trkpt lat="46.76371" lon="5.60793">
        <ele>242.1</ele>
        <time>2021-03-28T12:15:29Z</time>
      </trkpt>
      <trkpt lat="46.76375" lon="5.60789">
        <ele>241.7</ele>
        <time>2021-03-28T12:15:34Z</time>
      </trkpt>
      <trkpt lat="46.76379" lon="5.60786">
        <ele>241.4</ele>
        <time>2021-03-28T12:15:39Z</time>
      </trkpt>
      <trkpt lat="46.76384" lon="5.60782">
        <ele>241.4</ele>
        <time>2021-03-28T12:15:44Z</time>
      </trkpt>
      <trkpt lat="46.76389" lon="5.6078">
        <ele>241.4</ele>
        <time>2021-03-28T12:15:48Z</time>
      </trkpt>
      <trkpt lat="46.76395" lon="5.60776">
        <ele>241.6</ele>
        <time>2021-03-28T12:15:52Z</time>
      </trkpt>
      <trkpt lat="46.76399" lon="5.60772">
        <ele>242.1</ele>
        <time>2021-03-28T12:15:56Z</time>
      </trkpt>
      <trkpt lat="46.76403" lon="5.60767">
        <ele>242.6</ele>
        <time>2021-03-28T12:16:00Z</time>
      </trkpt>
      <trkpt lat="46.76408" lon="5.60763">
        <ele>242.7</ele>
        <time>2021-03-28T12:16:05Z</time>
      </trkpt>
      <trkpt lat="46.76413" lon="5.6076">
        <ele>242.9</ele>
        <time>2021-03-28T12:16:10Z</time>
      </trkpt>
      <trkpt lat="46.76417" lon="5.60756">
        <ele>243</ele>
        <time>2021-03-28T12:16:14Z</time>
      </trkpt>
      <trkpt lat="46.76421" lon="5.60751">
        <ele>243</ele>
        <time>2021-03-28T12:16:19Z</time>
      </trkpt>
      <trkpt lat="46.76426" lon="5.60747">
        <ele>242.9</ele>
        <time>2021-03-28T12:16:23Z</time>
      </trkpt>
      <trkpt lat="46.7643" lon="5.60743">
        <ele>242.8</ele>
        <time>2021-03-28T12:16:27Z</time>
      </trkpt>
      <trkpt lat="46.76434" lon="5.6074">
        <ele>242.6</ele>
        <time>2021-03-28T12:16:31Z</time>
      </trkpt>
      <trkpt lat="46.76438" lon="5.60735">
        <ele>242</ele>
        <time>2021-03-28T12:16:35Z</time>
      </trkpt>
      <trkpt lat="46.76442" lon="5.60731">
        <ele>241.4</ele>
        <time>2021-03-28T12:16:39Z</time>
      </trkpt>
      <trkpt lat="46.76446" lon="5.60729">
        <ele>240.7</ele>
        <time>2021-03-28T12:16:43Z</time>
      </trkpt>
      <trkpt lat="46.76451" lon="5.60725">
        <ele>239.8</ele>
        <time>2021-03-28T12:16:48Z</time>
      </trkpt>
      <trkpt lat="46.76455" lon="5.6072">
        <ele>239.1</ele>
        <time>2021-03-28T12:16:53Z</time>
      </trkpt>
      <trkpt lat="46.76459" lon="5.60715">
        <ele>238.4</ele>
        <time>2021-03-28T12:16:58Z</time>
      </trkpt>
      <trkpt lat="46.76462" lon="5.6071">
        <ele>237.9</ele>
        <time>2021-03-28T12:17:02Z</time>
      </trkpt>
      <trkpt lat="46.76466" lon="5.60705">
        <ele>237.4</ele>
        <time>2021-03-28T12:17:06Z</time>
      </trkpt>
      <trkpt lat="46.76469" lon="5.60699">
        <ele>237</ele>
        <time>2021-03-28T12:17:11Z</time>
      </trkpt>
      <trkpt lat="46.76472" lon="5.60694">
        <ele>237.1</ele>
        <time>2021-03-28T12:17:16Z</time>
      </trkpt>
      <trkpt lat="46.76476" lon="5.60688">
        <ele>237.2</ele>
        <time>2021-03-28T12:17:20Z</time>
      </trkpt>
      <trkpt lat="46.7648" lon="5.60683">
        <ele>237.1</ele>
        <time>2021-03-28T12:17:24Z</time>
      </trkpt>
      <trkpt lat="46.76484" lon="5.60678">
        <ele>236.5</ele>
        <time>2021-03-28T12:17:28Z</time>
      </trkpt>
      <trkpt lat="46.76488" lon="5.60672">
        <ele>236</ele>
        <time>2021-03-28T12:17:32Z</time>
      </trkpt>
      <trkpt lat="46.76491" lon="5.60666">
        <ele>235.9</ele>
        <time>2021-03-28T12:17:36Z</time>
      </trkpt>
      <trkpt lat="46.76495" lon="5.60661">
        <ele>235.8</ele>
        <time>2021-03-28T12:17:40Z</time>
      </trkpt>
      <trkpt lat="46.76498" lon="5.60655">
        <ele>235.7</ele>
        <time>2021-03-28T12:17:44Z</time>
      </trkpt>
      <trkpt lat="46.765" lon="5.60649">
        <ele>236.1</ele>
        <time>2021-03-28T12:17:49Z</time>
      </trkpt>
      <trkpt lat="46.76504" lon="5.60645">
        <ele>236.1</ele>
        <time>2021-03-28T12:17:54Z</time>
      </trkpt>
      <trkpt lat="46.76507" lon="5.6064">
        <ele>236.1</ele>
        <time>2021-03-28T12:17:58Z</time>
      </trkpt>
      <trkpt lat="46.76511" lon="5.60634">
        <ele>236.2</ele>
        <time>2021-03-28T12:18:02Z</time>
      </trkpt>
      <trkpt lat="46.76514" lon="5.6063">
        <ele>236.3</ele>
        <time>2021-03-28T12:18:06Z</time>
      </trkpt>
      <trkpt lat="46.76517" lon="5.60624">
        <ele>236.3</ele>
        <time>2021-03-28T12:18:10Z</time>
      </trkpt>
      <trkpt lat="46.7652" lon="5.60618">
        <ele>236.4</ele>
        <time>2021-03-28T12:18:14Z</time>
      </trkpt>
      <trkpt lat="46.76524" lon="5.60612">
        <ele>236.2</ele>
        <time>2021-03-28T12:18:19Z</time>
      </trkpt>
      <trkpt lat="46.76527" lon="5.60607">
        <ele>236</ele>
        <time>2021-03-28T12:18:24Z</time>
      </trkpt>
      <trkpt lat="46.7653" lon="5.60601">
        <ele>236.2</ele>
        <time>2021-03-28T12:18:28Z</time>
      </trkpt>
      <trkpt lat="46.76533" lon="5.60595">
        <ele>236.7</ele>
        <time>2021-03-28T12:18:33Z</time>
      </trkpt>
      <trkpt lat="46.76536" lon="5.60588">
        <ele>239.4</ele>
        <time>2021-03-28T12:18:37Z</time>
      </trkpt>
      <trkpt lat="46.76538" lon="5.60582">
        <ele>241.7</ele>
        <time>2021-03-28T12:18:41Z</time>
      </trkpt>
      <trkpt lat="46.76541" lon="5.60576">
        <ele>242.9</ele>
        <time>2021-03-28T12:18:45Z</time>
      </trkpt>
      <trkpt lat="46.76543" lon="5.60569">
        <ele>243.7</ele>
        <time>2021-03-28T12:18:49Z</time>
      </trkpt>
      <trkpt lat="46.76545" lon="5.60563">
        <ele>244.5</ele>
        <time>2021-03-28T12:18:53Z</time>
      </trkpt>
      <trkpt lat="46.76547" lon="5.60556">
        <ele>245.1</ele>
        <time>2021-03-28T12:18:57Z</time>
      </trkpt>
      <trkpt lat="46.7655" lon="5.6055">
        <ele>245.4</ele>
        <time>2021-03-28T12:19:02Z</time>
      </trkpt>
      <trkpt lat="46.76554" lon="5.60544">
        <ele>245.5</ele>
        <time>2021-03-28T12:19:08Z</time>
      </trkpt>
      <trkpt lat="46.76556" lon="5.60538">
        <ele>245</ele>
        <time>2021-03-28T12:19:14Z</time>
      </trkpt>
      <trkpt lat="46.76559" lon="5.60532">
        <ele>244.3</ele>
        <time>2021-03-28T12:19:20Z</time>
      </trkpt>
      <trkpt lat="46.76561" lon="5.60525">
        <ele>243.7</ele>
        <time>2021-03-28T12:19:25Z</time>
      </trkpt>
      <trkpt lat="46.76564" lon="5.60519">
        <ele>243.4</ele>
        <time>2021-03-28T12:19:29Z</time>
      </trkpt>
      <trkpt lat="46.76566" lon="5.60513">
        <ele>243.1</ele>
        <time>2021-03-28T12:19:33Z</time>
      </trkpt>
      <trkpt lat="46.7657" lon="5.60507">
        <ele>242.5</ele>
        <time>2021-03-28T12:19:38Z</time>
      </trkpt>
      <trkpt lat="46.76573" lon="5.605">
        <ele>241.7</ele>
        <time>2021-03-28T12:19:42Z</time>
      </trkpt>
      <trkpt lat="46.76575" lon="5.60495">
        <ele>240.8</ele>
        <time>2021-03-28T12:19:46Z</time>
      </trkpt>
      <trkpt lat="46.76579" lon="5.60489">
        <ele>239.7</ele>
        <time>2021-03-28T12:19:51Z</time>
      </trkpt>
      <trkpt lat="46.76582" lon="5.60483">
        <ele>238.6</ele>
        <time>2021-03-28T12:19:56Z</time>
      </trkpt>
      <trkpt lat="46.76584" lon="5.60476">
        <ele>237.9</ele>
        <time>2021-03-28T12:20:01Z</time>
      </trkpt>
      <trkpt lat="46.76587" lon="5.60469">
        <ele>237.5</ele>
        <time>2021-03-28T12:20:05Z</time>
      </trkpt>
      <trkpt lat="46.76589" lon="5.60462">
        <ele>237.3</ele>
        <time>2021-03-28T12:20:09Z</time>
      </trkpt>
      <trkpt lat="46.76591" lon="5.60456">
        <ele>236.7</ele>
        <time>2021-03-28T12:20:13Z</time>
      </trkpt>
      <trkpt lat="46.76593" lon="5.60448">
        <ele>237</ele>
        <time>2021-03-28T12:20:17Z</time>
      </trkpt>
      <trkpt lat="46.76595" lon="5.60441">
        <ele>237.3</ele>
        <time>2021-03-28T12:20:21Z</time>
      </trkpt>
      <trkpt lat="46.76597" lon="5.60434">
        <ele>237.6</ele>
        <time>2021-03-28T12:20:26Z</time>
      </trkpt>
      <trkpt lat="46.76599" lon="5.60428">
        <ele>237.7</ele>
        <time>2021-03-28T12:20:30Z</time>
      </trkpt>
      <trkpt lat="46.76601" lon="5.60421">
        <ele>237.8</ele>
        <time>2021-03-28T12:20:34Z</time>
      </trkpt>
      <trkpt lat="46.76603" lon="5.60414">
        <ele>238</ele>
        <time>2021-03-28T12:20:38Z</time>
      </trkpt>
      <trkpt lat="46.76604" lon="5.60407">
        <ele>238.5</ele>
        <time>2021-03-28T12:20:42Z</time>
      </trkpt>
      <trkpt lat="46.76606" lon="5.604">
        <ele>239.3</ele>
        <time>2021-03-28T12:20:46Z</time>
      </trkpt>
      <trkpt lat="46.76608" lon="5.60393">
        <ele>239.8</ele>
        <time>2021-03-28T12:20:50Z</time>
      </trkpt>
      <trkpt lat="46.7661" lon="5.60386">
        <ele>240.7</ele>
        <time>2021-03-28T12:20:54Z</time>
      </trkpt>
      <trkpt lat="46.76612" lon="5.60379">
        <ele>241.6</ele>
        <time>2021-03-28T12:20:58Z</time>
      </trkpt>
      <trkpt lat="46.76614" lon="5.60373">
        <ele>242.3</ele>
        <time>2021-03-28T12:21:02Z</time>
      </trkpt>
      <trkpt lat="46.76616" lon="5.60366">
        <ele>242.7</ele>
        <time>2021-03-28T12:21:06Z</time>
      </trkpt>
      <trkpt lat="46.76618" lon="5.6036">
        <ele>242.9</ele>
        <time>2021-03-28T12:21:10Z</time>
      </trkpt>
      <trkpt lat="46.7662" lon="5.60353">
        <ele>243.1</ele>
        <time>2021-03-28T12:21:14Z</time>
      </trkpt>
      <trkpt lat="46.76622" lon="5.60346">
        <ele>243.2</ele>
        <time>2021-03-28T12:21:18Z</time>
      </trkpt>
      <trkpt lat="46.76623" lon="5.6034">
        <ele>243.4</ele>
        <time>2021-03-28T12:21:22Z</time>
      </trkpt>
      <trkpt lat="46.76625" lon="5.60333">
        <ele>243.7</ele>
        <time>2021-03-28T12:21:26Z</time>
      </trkpt>
      <trkpt lat="46.76626" lon="5.60326">
        <ele>244.1</ele>
        <time>2021-03-28T12:21:30Z</time>
      </trkpt>
      <trkpt lat="46.76628" lon="5.6032">
        <ele>244.3</ele>
        <time>2021-03-28T12:21:34Z</time>
      </trkpt>
      <trkpt lat="46.7663" lon="5.60314">
        <ele>244.3</ele>
        <time>2021-03-28T12:21:38Z</time>
      </trkpt>
      <trkpt lat="46.76632" lon="5.60308">
        <ele>244.2</ele>
        <time>2021-03-28T12:21:42Z</time>
      </trkpt>
      <trkpt lat="46.76634" lon="5.60301">
        <ele>244.3</ele>
        <time>2021-03-28T12:21:47Z</time>
      </trkpt>
      <trkpt lat="46.76636" lon="5.60295">
        <ele>244.3</ele>
        <time>2021-03-28T12:21:51Z</time>
      </trkpt>
      <trkpt lat="46.76638" lon="5.60288">
        <ele>244.3</ele>
        <time>2021-03-28T12:21:55Z</time>
      </trkpt>
      <trkpt lat="46.76641" lon="5.60282">
        <ele>244.1</ele>
        <time>2021-03-28T12:21:59Z</time>
      </trkpt>
      <trkpt lat="46.76643" lon="5.60276">
        <ele>243.8</ele>
        <time>2021-03-28T12:22:03Z</time>
      </trkpt>
      <trkpt lat="46.76644" lon="5.60269">
        <ele>243.5</ele>
        <time>2021-03-28T12:22:07Z</time>
      </trkpt>
      <trkpt lat="46.76646" lon="5.60263">
        <ele>243.1</ele>
        <time>2021-03-28T12:22:11Z</time>
      </trkpt>
      <trkpt lat="46.76648" lon="5.60256">
        <ele>242.6</ele>
        <time>2021-03-28T12:22:15Z</time>
      </trkpt>
      <trkpt lat="46.7665" lon="5.60249">
        <ele>242</ele>
        <time>2021-03-28T12:22:20Z</time>
      </trkpt>
      <trkpt lat="46.76652" lon="5.60242">
        <ele>241.9</ele>
        <time>2021-03-28T12:22:25Z</time>
      </trkpt>
      <trkpt lat="46.76655" lon="5.60235">
        <ele>242.1</ele>
        <time>2021-03-28T12:22:30Z</time>
      </trkpt>
      <trkpt lat="46.76658" lon="5.60228">
        <ele>242.1</ele>
        <time>2021-03-28T12:22:35Z</time>
      </trkpt>
      <trkpt lat="46.7666" lon="5.60222">
        <ele>242</ele>
        <time>2021-03-28T12:22:39Z</time>
      </trkpt>
      <trkpt lat="46.76662" lon="5.60216">
        <ele>241.8</ele>
        <time>2021-03-28T12:22:43Z</time>
      </trkpt>
      <trkpt lat="46.76664" lon="5.60209">
        <ele>241.8</ele>
        <time>2021-03-28T12:22:48Z</time>
      </trkpt>
      <trkpt lat="46.76666" lon="5.60203">
        <ele>241.8</ele>
        <time>2021-03-28T12:22:52Z</time>
      </trkpt>
      <trkpt lat="46.76668" lon="5.60196">
        <ele>242</ele>
        <time>2021-03-28T12:22:56Z</time>
      </trkpt>
      <trkpt lat="46.7667" lon="5.60189">
        <ele>242.1</ele>
        <time>2021-03-28T12:23:00Z</time>
      </trkpt>
      <trkpt lat="46.76672" lon="5.60183">
        <ele>242.2</ele>
        <time>2021-03-28T12:23:04Z</time>
      </trkpt>
      <trkpt lat="46.76674" lon="5.60177">
        <ele>242.3</ele>
        <time>2021-03-28T12:23:08Z</time>
      </trkpt>
      <trkpt lat="46.76676" lon="5.6017">
        <ele>242.2</ele>
        <time>2021-03-28T12:23:12Z</time>
      </trkpt>
      <trkpt lat="46.76678" lon="5.60164">
        <ele>242.3</ele>
        <time>2021-03-28T12:23:16Z</time>
      </trkpt>
      <trkpt lat="46.7668" lon="5.60157">
        <ele>242.2</ele>
        <time>2021-03-28T12:23:21Z</time>
      </trkpt>
      <trkpt lat="46.76682" lon="5.6015">
        <ele>242.3</ele>
        <time>2021-03-28T12:23:26Z</time>
      </trkpt>
      <trkpt lat="46.76685" lon="5.60144">
        <ele>242.3</ele>
        <time>2021-03-28T12:23:30Z</time>
      </trkpt>
      <trkpt lat="46.76687" lon="5.60136">
        <ele>242.1</ele>
        <time>2021-03-28T12:23:35Z</time>
      </trkpt>
      <trkpt lat="46.76689" lon="5.60129">
        <ele>241.8</ele>
        <time>2021-03-28T12:23:40Z</time>
      </trkpt>
      <trkpt lat="46.76692" lon="5.60123">
        <ele>241.4</ele>
        <time>2021-03-28T12:23:44Z</time>
      </trkpt>
      <trkpt lat="46.76694" lon="5.60117">
        <ele>240.9</ele>
        <time>2021-03-28T12:23:48Z</time>
      </trkpt>
      <trkpt lat="46.76696" lon="5.60111">
        <ele>240.4</ele>
        <time>2021-03-28T12:23:52Z</time>
      </trkpt>
      <trkpt lat="46.76699" lon="5.60105">
        <ele>240.3</ele>
        <time>2021-03-28T12:23:56Z</time>
      </trkpt>
      <trkpt lat="46.767" lon="5.60099">
        <ele>240.4</ele>
        <time>2021-03-28T12:24:00Z</time>
      </trkpt>
      <trkpt lat="46.76703" lon="5.60092">
        <ele>241</ele>
        <time>2021-03-28T12:24:05Z</time>
      </trkpt>
      <trkpt lat="46.76707" lon="5.60087">
        <ele>241.4</ele>
        <time>2021-03-28T12:24:10Z</time>
      </trkpt>
      <trkpt lat="46.76711" lon="5.60081">
        <ele>241.4</ele>
        <time>2021-03-28T12:24:15Z</time>
      </trkpt>
      <trkpt lat="46.76716" lon="5.60078">
        <ele>241.2</ele>
        <time>2021-03-28T12:24:20Z</time>
      </trkpt>
      <trkpt lat="46.7672" lon="5.60079">
        <ele>241</ele>
        <time>2021-03-28T12:24:24Z</time>
      </trkpt>
      <trkpt lat="46.76725" lon="5.60082">
        <ele>240.5</ele>
        <time>2021-03-28T12:24:28Z</time>
      </trkpt>
      <trkpt lat="46.76729" lon="5.60086">
        <ele>240.1</ele>
        <time>2021-03-28T12:24:32Z</time>
      </trkpt>
      <trkpt lat="46.76733" lon="5.60089">
        <ele>239.8</ele>
        <time>2021-03-28T12:24:38Z</time>
      </trkpt>
      <trkpt lat="46.76737" lon="5.60093">
        <ele>239.4</ele>
        <time>2021-03-28T12:24:43Z</time>
      </trkpt>
      <trkpt lat="46.76741" lon="5.60097">
        <ele>238.9</ele>
        <time>2021-03-28T12:24:48Z</time>
      </trkpt>
      <trkpt lat="46.76746" lon="5.60101">
        <ele>238.9</ele>
        <time>2021-03-28T12:24:53Z</time>
      </trkpt>
      <trkpt lat="46.7675" lon="5.60105">
        <ele>238.8</ele>
        <time>2021-03-28T12:24:58Z</time>
      </trkpt>
      <trkpt lat="46.76754" lon="5.60109">
        <ele>238.2</ele>
        <time>2021-03-28T12:25:04Z</time>
      </trkpt>
      <trkpt lat="46.76759" lon="5.60112">
        <ele>238</ele>
        <time>2021-03-28T12:25:08Z</time>
      </trkpt>
      <trkpt lat="46.76763" lon="5.60115">
        <ele>237.8</ele>
        <time>2021-03-28T12:25:14Z</time>
      </trkpt>
      <trkpt lat="46.76766" lon="5.6012">
        <ele>238.2</ele>
        <time>2021-03-28T12:25:25Z</time>
      </trkpt>
      <trkpt lat="46.7677" lon="5.60125">
        <ele>238.5</ele>
        <time>2021-03-28T12:25:31Z</time>
      </trkpt>
      <trkpt lat="46.76773" lon="5.60131">
        <ele>238.8</ele>
        <time>2021-03-28T12:25:36Z</time>
      </trkpt>
      <trkpt lat="46.76775" lon="5.60137">
        <ele>239</ele>
        <time>2021-03-28T12:25:40Z</time>
      </trkpt>
      <trkpt lat="46.76779" lon="5.60142">
        <ele>239.1</ele>
        <time>2021-03-28T12:25:44Z</time>
      </trkpt>
      <trkpt lat="46.76782" lon="5.60148">
        <ele>239.3</ele>
        <time>2021-03-28T12:25:49Z</time>
      </trkpt>
      <trkpt lat="46.76786" lon="5.60155">
        <ele>239.7</ele>
        <time>2021-03-28T12:25:54Z</time>
      </trkpt>
      <trkpt lat="46.76789" lon="5.6016">
        <ele>240.2</ele>
        <time>2021-03-28T12:25:58Z</time>
      </trkpt>
      <trkpt lat="46.76792" lon="5.60165">
        <ele>240.6</ele>
        <time>2021-03-28T12:26:02Z</time>
      </trkpt>
      <trkpt lat="46.76795" lon="5.6017">
        <ele>241.1</ele>
        <time>2021-03-28T12:26:06Z</time>
      </trkpt>
      <trkpt lat="46.76799" lon="5.60175">
        <ele>241.3</ele>
        <time>2021-03-28T12:26:10Z</time>
      </trkpt>
      <trkpt lat="46.76802" lon="5.60181">
        <ele>241.4</ele>
        <time>2021-03-28T12:26:15Z</time>
      </trkpt>
      <trkpt lat="46.76805" lon="5.60186">
        <ele>241.5</ele>
        <time>2021-03-28T12:26:19Z</time>
      </trkpt>
      <trkpt lat="46.76809" lon="5.60191">
        <ele>241.6</ele>
        <time>2021-03-28T12:26:23Z</time>
      </trkpt>
      <trkpt lat="46.76812" lon="5.60195">
        <ele>241.7</ele>
        <time>2021-03-28T12:26:27Z</time>
      </trkpt>
      <trkpt lat="46.76816" lon="5.60201">
        <ele>242</ele>
        <time>2021-03-28T12:26:31Z</time>
      </trkpt>
      <trkpt lat="46.76819" lon="5.60206">
        <ele>242.3</ele>
        <time>2021-03-28T12:26:35Z</time>
      </trkpt>
      <trkpt lat="46.76822" lon="5.6021">
        <ele>242.8</ele>
        <time>2021-03-28T12:26:39Z</time>
      </trkpt>
      <trkpt lat="46.76826" lon="5.60215">
        <ele>243.1</ele>
        <time>2021-03-28T12:26:43Z</time>
      </trkpt>
      <trkpt lat="46.7683" lon="5.60221">
        <ele>243.4</ele>
        <time>2021-03-28T12:26:47Z</time>
      </trkpt>
      <trkpt lat="46.76834" lon="5.60225">
        <ele>243.5</ele>
        <time>2021-03-28T12:26:51Z</time>
      </trkpt>
      <trkpt lat="46.76838" lon="5.60229">
        <ele>243.4</ele>
        <time>2021-03-28T12:26:55Z</time>
      </trkpt>
      <trkpt lat="46.76842" lon="5.60233">
        <ele>243.2</ele>
        <time>2021-03-28T12:26:59Z</time>
      </trkpt>
      <trkpt lat="46.76845" lon="5.60237">
        <ele>243.1</ele>
        <time>2021-03-28T12:27:03Z</time>
      </trkpt>
      <trkpt lat="46.76849" lon="5.60242">
        <ele>242.5</ele>
        <time>2021-03-28T12:27:08Z</time>
      </trkpt>
      <trkpt lat="46.76853" lon="5.60247">
        <ele>242</ele>
        <time>2021-03-28T12:27:14Z</time>
      </trkpt>
      <trkpt lat="46.76858" lon="5.60248">
        <ele>242</ele>
        <time>2021-03-28T12:27:19Z</time>
      </trkpt>
      <trkpt lat="46.76863" lon="5.60252">
        <ele>242</ele>
        <time>2021-03-28T12:27:24Z</time>
      </trkpt>
      <trkpt lat="46.76867" lon="5.60257">
        <ele>242</ele>
        <time>2021-03-28T12:27:28Z</time>
      </trkpt>
      <trkpt lat="46.76871" lon="5.60261">
        <ele>242.1</ele>
        <time>2021-03-28T12:27:33Z</time>
      </trkpt>
      <trkpt lat="46.76876" lon="5.60265">
        <ele>242.3</ele>
        <time>2021-03-28T12:27:38Z</time>
      </trkpt>
      <trkpt lat="46.7688" lon="5.60269">
        <ele>242.4</ele>
        <time>2021-03-28T12:27:43Z</time>
      </trkpt>
      <trkpt lat="46.76885" lon="5.60273">
        <ele>242.8</ele>
        <time>2021-03-28T12:27:48Z</time>
      </trkpt>
      <trkpt lat="46.76889" lon="5.60277">
        <ele>242.8</ele>
        <time>2021-03-28T12:27:52Z</time>
      </trkpt>
      <trkpt lat="46.76894" lon="5.60279">
        <ele>242.6</ele>
        <time>2021-03-28T12:27:57Z</time>
      </trkpt>
      <trkpt lat="46.76898" lon="5.60282">
        <ele>242.3</ele>
        <time>2021-03-28T12:28:02Z</time>
      </trkpt>
      <trkpt lat="46.76903" lon="5.60285">
        <ele>242.1</ele>
        <time>2021-03-28T12:28:07Z</time>
      </trkpt>
      <trkpt lat="46.76908" lon="5.60285">
        <ele>241.8</ele>
        <time>2021-03-28T12:28:13Z</time>
      </trkpt>
      <trkpt lat="46.76914" lon="5.60286">
        <ele>241.5</ele>
        <time>2021-03-28T12:28:18Z</time>
      </trkpt>
      <trkpt lat="46.76919" lon="5.60287">
        <ele>241.6</ele>
        <time>2021-03-28T12:28:23Z</time>
      </trkpt>
      <trkpt lat="46.76923" lon="5.60287">
        <ele>242</ele>
        <time>2021-03-28T12:28:28Z</time>
      </trkpt>
      <trkpt lat="46.76928" lon="5.60289">
        <ele>242.5</ele>
        <time>2021-03-28T12:28:32Z</time>
      </trkpt>
      <trkpt lat="46.76932" lon="5.60293">
        <ele>243.8</ele>
        <time>2021-03-28T12:28:39Z</time>
      </trkpt>
      <trkpt lat="46.76935" lon="5.60298">
        <ele>245.2</ele>
        <time>2021-03-28T12:28:45Z</time>
      </trkpt>
      <trkpt lat="46.7694" lon="5.60302">
        <ele>246.3</ele>
        <time>2021-03-28T12:28:52Z</time>
      </trkpt>
      <trkpt lat="46.76944" lon="5.60306">
        <ele>246.9</ele>
        <time>2021-03-28T12:28:58Z</time>
      </trkpt>
      <trkpt lat="46.76947" lon="5.6031">
        <ele>247.9</ele>
        <time>2021-03-28T12:29:06Z</time>
      </trkpt>
      <trkpt lat="46.76952" lon="5.60312">
        <ele>248.6</ele>
        <time>2021-03-28T12:29:12Z</time>
      </trkpt>
      <trkpt lat="46.76957" lon="5.60316">
        <ele>249</ele>
        <time>2021-03-28T12:29:18Z</time>
      </trkpt>
      <trkpt lat="46.76961" lon="5.60319">
        <ele>249.3</ele>
        <time>2021-03-28T12:29:23Z</time>
      </trkpt>
      <trkpt lat="46.76966" lon="5.6032">
        <ele>250.2</ele>
        <time>2021-03-28T12:29:29Z</time>
      </trkpt>
      <trkpt lat="46.76971" lon="5.60322">
        <ele>251.3</ele>
        <time>2021-03-28T12:29:36Z</time>
      </trkpt>
      <trkpt lat="46.76976" lon="5.60323">
        <ele>252.2</ele>
        <time>2021-03-28T12:29:42Z</time>
      </trkpt>
      <trkpt lat="46.7698" lon="5.60325">
        <ele>253.1</ele>
        <time>2021-03-28T12:29:48Z</time>
      </trkpt>
      <trkpt lat="46.76985" lon="5.60326">
        <ele>253.7</ele>
        <time>2021-03-28T12:29:53Z</time>
      </trkpt>
      <trkpt lat="46.7699" lon="5.60328">
        <ele>254.6</ele>
        <time>2021-03-28T12:29:59Z</time>
      </trkpt>
      <trkpt lat="46.76995" lon="5.60329">
        <ele>255.6</ele>
        <time>2021-03-28T12:30:05Z</time>
      </trkpt>
      <trkpt lat="46.77" lon="5.60329">
        <ele>256.6</ele>
        <time>2021-03-28T12:30:10Z</time>
      </trkpt>
      <trkpt lat="46.77005" lon="5.60329">
        <ele>257.9</ele>
        <time>2021-03-28T12:30:16Z</time>
      </trkpt>
      <trkpt lat="46.7701" lon="5.60328">
        <ele>259.3</ele>
        <time>2021-03-28T12:30:21Z</time>
      </trkpt>
      <trkpt lat="46.77014" lon="5.60328">
        <ele>260.6</ele>
        <time>2021-03-28T12:30:25Z</time>
      </trkpt>
      <trkpt lat="46.7702" lon="5.60327">
        <ele>262.4</ele>
        <time>2021-03-28T12:30:30Z</time>
      </trkpt>
      <trkpt lat="46.77025" lon="5.60326">
        <ele>264</ele>
        <time>2021-03-28T12:30:37Z</time>
      </trkpt>
      <trkpt lat="46.7703" lon="5.60327">
        <ele>264.7</ele>
        <time>2021-03-28T12:30:43Z</time>
      </trkpt>
      <trkpt lat="46.77035" lon="5.60326">
        <ele>265.4</ele>
        <time>2021-03-28T12:30:49Z</time>
      </trkpt>
      <trkpt lat="46.7704" lon="5.60326">
        <ele>265.9</ele>
        <time>2021-03-28T12:30:55Z</time>
      </trkpt>
      <trkpt lat="46.77045" lon="5.60325">
        <ele>266.4</ele>
        <time>2021-03-28T12:31:00Z</time>
      </trkpt>
      <trkpt lat="46.7705" lon="5.60325">
        <ele>266.8</ele>
        <time>2021-03-28T12:31:06Z</time>
      </trkpt>
      <trkpt lat="46.77055" lon="5.60326">
        <ele>267</ele>
        <time>2021-03-28T12:31:11Z</time>
      </trkpt>
      <trkpt lat="46.7706" lon="5.60327">
        <ele>267.2</ele>
        <time>2021-03-28T12:31:16Z</time>
      </trkpt>
      <trkpt lat="46.77065" lon="5.60326">
        <ele>267.7</ele>
        <time>2021-03-28T12:31:23Z</time>
      </trkpt>
      <trkpt lat="46.7707" lon="5.60326">
        <ele>268.3</ele>
        <time>2021-03-28T12:31:28Z</time>
      </trkpt>
      <trkpt lat="46.77075" lon="5.60325">
        <ele>269.2</ele>
        <time>2021-03-28T12:31:33Z</time>
      </trkpt>
      <trkpt lat="46.7708" lon="5.60324">
        <ele>270.2</ele>
        <time>2021-03-28T12:31:38Z</time>
      </trkpt>
      <trkpt lat="46.77084" lon="5.60323">
        <ele>271.1</ele>
        <time>2021-03-28T12:31:45Z</time>
      </trkpt>
      <trkpt lat="46.77089" lon="5.60322">
        <ele>271.6</ele>
        <time>2021-03-28T12:31:52Z</time>
      </trkpt>
      <trkpt lat="46.77095" lon="5.60322">
        <ele>272</ele>
        <time>2021-03-28T12:31:58Z</time>
      </trkpt>
      <trkpt lat="46.77099" lon="5.60322">
        <ele>272.6</ele>
        <time>2021-03-28T12:32:03Z</time>
      </trkpt>
      <trkpt lat="46.77104" lon="5.60323">
        <ele>273</ele>
        <time>2021-03-28T12:32:08Z</time>
      </trkpt>
      <trkpt lat="46.77109" lon="5.60323">
        <ele>273.1</ele>
        <time>2021-03-28T12:32:12Z</time>
      </trkpt>
      <trkpt lat="46.77115" lon="5.60322">
        <ele>273.4</ele>
        <time>2021-03-28T12:32:17Z</time>
      </trkpt>
      <trkpt lat="46.7712" lon="5.60321">
        <ele>274</ele>
        <time>2021-03-28T12:32:23Z</time>
      </trkpt>
      <trkpt lat="46.77125" lon="5.60322">
        <ele>274.4</ele>
        <time>2021-03-28T12:32:29Z</time>
      </trkpt>
      <trkpt lat="46.7713" lon="5.60322">
        <ele>274.6</ele>
        <time>2021-03-28T12:32:35Z</time>
      </trkpt>
      <trkpt lat="46.77135" lon="5.60324">
        <ele>274.8</ele>
        <time>2021-03-28T12:32:42Z</time>
      </trkpt>
      <trkpt lat="46.77139" lon="5.60326">
        <ele>274.9</ele>
        <time>2021-03-28T12:32:47Z</time>
      </trkpt>
      <trkpt lat="46.77144" lon="5.60329">
        <ele>275.2</ele>
        <time>2021-03-28T12:32:53Z</time>
      </trkpt>
      <trkpt lat="46.77148" lon="5.60333">
        <ele>275.6</ele>
        <time>2021-03-28T12:33:04Z</time>
      </trkpt>
      <trkpt lat="46.77152" lon="5.60334">
        <ele>275.9</ele>
        <time>2021-03-28T12:33:10Z</time>
      </trkpt>
      <trkpt lat="46.77157" lon="5.60331">
        <ele>276.5</ele>
        <time>2021-03-28T12:33:19Z</time>
      </trkpt>
      <trkpt lat="46.77155" lon="5.60337">
        <ele>281</ele>
        <time>2021-03-28T12:34:34Z</time>
      </trkpt>
      <trkpt lat="46.77151" lon="5.6034">
        <ele>282.6</ele>
        <time>2021-03-28T12:36:55Z</time>
      </trkpt>
      <trkpt lat="46.77149" lon="5.60347">
        <ele>282.7</ele>
        <time>2021-03-28T12:37:02Z</time>
      </trkpt>
      <trkpt lat="46.77149" lon="5.60354">
        <ele>282.5</ele>
        <time>2021-03-28T12:37:09Z</time>
      </trkpt>
      <trkpt lat="46.77147" lon="5.60361">
        <ele>282.1</ele>
        <time>2021-03-28T12:37:14Z</time>
      </trkpt>
      <trkpt lat="46.77145" lon="5.60367">
        <ele>281.8</ele>
        <time>2021-03-28T12:37:18Z</time>
      </trkpt>
      <trkpt lat="46.77144" lon="5.60375">
        <ele>281.4</ele>
        <time>2021-03-28T12:37:23Z</time>
      </trkpt>
      <trkpt lat="46.77144" lon="5.60382">
        <ele>280.9</ele>
        <time>2021-03-28T12:37:27Z</time>
      </trkpt>
      <trkpt lat="46.77144" lon="5.60389">
        <ele>280.2</ele>
        <time>2021-03-28T12:37:32Z</time>
      </trkpt>
      <trkpt lat="46.77144" lon="5.60396">
        <ele>279.6</ele>
        <time>2021-03-28T12:37:37Z</time>
      </trkpt>
      <trkpt lat="46.77143" lon="5.60403">
        <ele>279.2</ele>
        <time>2021-03-28T12:37:42Z</time>
      </trkpt>
      <trkpt lat="46.77143" lon="5.60411">
        <ele>278.9</ele>
        <time>2021-03-28T12:37:47Z</time>
      </trkpt>
      <trkpt lat="46.77143" lon="5.60418">
        <ele>278.5</ele>
        <time>2021-03-28T12:37:52Z</time>
      </trkpt>
      <trkpt lat="46.77142" lon="5.60425">
        <ele>278.2</ele>
        <time>2021-03-28T12:37:56Z</time>
      </trkpt>
      <trkpt lat="46.77142" lon="5.60431">
        <ele>278.1</ele>
        <time>2021-03-28T12:38:00Z</time>
      </trkpt>
      <trkpt lat="46.77142" lon="5.60438">
        <ele>278.1</ele>
        <time>2021-03-28T12:38:04Z</time>
      </trkpt>
      <trkpt lat="46.77139" lon="5.60445">
        <ele>277.5</ele>
        <time>2021-03-28T12:38:09Z</time>
      </trkpt>
      <trkpt lat="46.77137" lon="5.60451">
        <ele>275.7</ele>
        <time>2021-03-28T12:38:14Z</time>
      </trkpt>
      <trkpt lat="46.77136" lon="5.60457">
        <ele>274.2</ele>
        <time>2021-03-28T12:38:18Z</time>
      </trkpt>
      <trkpt lat="46.77136" lon="5.60465">
        <ele>273</ele>
        <time>2021-03-28T12:38:22Z</time>
      </trkpt>
      <trkpt lat="46.77135" lon="5.60471">
        <ele>272.2</ele>
        <time>2021-03-28T12:38:26Z</time>
      </trkpt>
      <trkpt lat="46.77132" lon="5.60478">
        <ele>271.3</ele>
        <time>2021-03-28T12:38:31Z</time>
      </trkpt>
      <trkpt lat="46.77131" lon="5.60485">
        <ele>270.4</ele>
        <time>2021-03-28T12:38:36Z</time>
      </trkpt>
      <trkpt lat="46.77131" lon="5.60492">
        <ele>269.5</ele>
        <time>2021-03-28T12:38:42Z</time>
      </trkpt>
      <trkpt lat="46.77131" lon="5.605">
        <ele>269</ele>
        <time>2021-03-28T12:38:47Z</time>
      </trkpt>
      <trkpt lat="46.77131" lon="5.60507">
        <ele>268.5</ele>
        <time>2021-03-28T12:38:52Z</time>
      </trkpt>
      <trkpt lat="46.77131" lon="5.60514">
        <ele>268.5</ele>
        <time>2021-03-28T12:38:56Z</time>
      </trkpt>
      <trkpt lat="46.7713" lon="5.60521">
        <ele>268.6</ele>
        <time>2021-03-28T12:39:00Z</time>
      </trkpt>
      <trkpt lat="46.77131" lon="5.60527">
        <ele>268.9</ele>
        <time>2021-03-28T12:39:04Z</time>
      </trkpt>
      <trkpt lat="46.7713" lon="5.60535">
        <ele>269.5</ele>
        <time>2021-03-28T12:39:08Z</time>
      </trkpt>
      <trkpt lat="46.7713" lon="5.60542">
        <ele>270.1</ele>
        <time>2021-03-28T12:39:12Z</time>
      </trkpt>
      <trkpt lat="46.77128" lon="5.60549">
        <ele>270.7</ele>
        <time>2021-03-28T12:39:16Z</time>
      </trkpt>
      <trkpt lat="46.77126" lon="5.60556">
        <ele>271.4</ele>
        <time>2021-03-28T12:39:20Z</time>
      </trkpt>
      <trkpt lat="46.77126" lon="5.60563">
        <ele>272.3</ele>
        <time>2021-03-28T12:39:24Z</time>
      </trkpt>
      <trkpt lat="46.77126" lon="5.6057">
        <ele>273.4</ele>
        <time>2021-03-28T12:39:29Z</time>
      </trkpt>
      <trkpt lat="46.77128" lon="5.60578">
        <ele>274.2</ele>
        <time>2021-03-28T12:39:35Z</time>
      </trkpt>
      <trkpt lat="46.7713" lon="5.60584">
        <ele>275</ele>
        <time>2021-03-28T12:39:40Z</time>
      </trkpt>
      <trkpt lat="46.77133" lon="5.60591">
        <ele>275.5</ele>
        <time>2021-03-28T12:39:45Z</time>
      </trkpt>
      <trkpt lat="46.77134" lon="5.60598">
        <ele>275.8</ele>
        <time>2021-03-28T12:39:49Z</time>
      </trkpt>
      <trkpt lat="46.77135" lon="5.60605">
        <ele>276.2</ele>
        <time>2021-03-28T12:39:53Z</time>
      </trkpt>
      <trkpt lat="46.77135" lon="5.60612">
        <ele>276.6</ele>
        <time>2021-03-28T12:39:57Z</time>
      </trkpt>
      <trkpt lat="46.77136" lon="5.60618">
        <ele>277.2</ele>
        <time>2021-03-28T12:40:01Z</time>
      </trkpt>
      <trkpt lat="46.77138" lon="5.60624">
        <ele>277.5</ele>
        <time>2021-03-28T12:40:05Z</time>
      </trkpt>
      <trkpt lat="46.77141" lon="5.60631">
        <ele>277.6</ele>
        <time>2021-03-28T12:40:11Z</time>
      </trkpt>
      <trkpt lat="46.77142" lon="5.60637">
        <ele>277.2</ele>
        <time>2021-03-28T12:40:24Z</time>
      </trkpt>
      <trkpt lat="46.77143" lon="5.60644">
        <ele>276.5</ele>
        <time>2021-03-28T12:40:30Z</time>
      </trkpt>
      <trkpt lat="46.77145" lon="5.60651">
        <ele>276.3</ele>
        <time>2021-03-28T12:40:35Z</time>
      </trkpt>
      <trkpt lat="46.77146" lon="5.60658">
        <ele>276.3</ele>
        <time>2021-03-28T12:40:42Z</time>
      </trkpt>
      <trkpt lat="46.77148" lon="5.60665">
        <ele>276.4</ele>
        <time>2021-03-28T12:40:47Z</time>
      </trkpt>
      <trkpt lat="46.77149" lon="5.60673">
        <ele>276.8</ele>
        <time>2021-03-28T12:40:51Z</time>
      </trkpt>
      <trkpt lat="46.77151" lon="5.60679">
        <ele>277.2</ele>
        <time>2021-03-28T12:40:55Z</time>
      </trkpt>
      <trkpt lat="46.77153" lon="5.60685">
        <ele>277.7</ele>
        <time>2021-03-28T12:41:01Z</time>
      </trkpt>
      <trkpt lat="46.77154" lon="5.60692">
        <ele>278.5</ele>
        <time>2021-03-28T12:41:08Z</time>
      </trkpt>
      <trkpt lat="46.77154" lon="5.607">
        <ele>280.7</ele>
        <time>2021-03-28T12:41:15Z</time>
      </trkpt>
      <trkpt lat="46.77153" lon="5.60706">
        <ele>282.4</ele>
        <time>2021-03-28T12:41:21Z</time>
      </trkpt>
      <trkpt lat="46.77154" lon="5.60713">
        <ele>283.8</ele>
        <time>2021-03-28T12:41:27Z</time>
      </trkpt>
      <trkpt lat="46.77154" lon="5.60721">
        <ele>284.8</ele>
        <time>2021-03-28T12:41:32Z</time>
      </trkpt>
      <trkpt lat="46.77156" lon="5.60728">
        <ele>285.4</ele>
        <time>2021-03-28T12:41:37Z</time>
      </trkpt>
      <trkpt lat="46.77159" lon="5.60733">
        <ele>285.7</ele>
        <time>2021-03-28T12:41:42Z</time>
      </trkpt>
      <trkpt lat="46.77163" lon="5.60737">
        <ele>286.1</ele>
        <time>2021-03-28T12:41:48Z</time>
      </trkpt>
      <trkpt lat="46.77167" lon="5.6074">
        <ele>284.3</ele>
        <time>2021-03-28T12:42:21Z</time>
      </trkpt>
      <trkpt lat="46.77172" lon="5.60743">
        <ele>284.5</ele>
        <time>2021-03-28T12:42:26Z</time>
      </trkpt>
      <trkpt lat="46.77176" lon="5.60747">
        <ele>284.6</ele>
        <time>2021-03-28T12:42:32Z</time>
      </trkpt>
      <trkpt lat="46.77178" lon="5.60753">
        <ele>284.9</ele>
        <time>2021-03-28T12:42:37Z</time>
      </trkpt>
      <trkpt lat="46.7718" lon="5.6076">
        <ele>285.5</ele>
        <time>2021-03-28T12:42:43Z</time>
      </trkpt>
      <trkpt lat="46.77184" lon="5.60758">
        <ele>286.9</ele>
        <time>2021-03-28T12:43:19Z</time>
      </trkpt>
      <trkpt lat="46.77182" lon="5.60764">
        <ele>286.9</ele>
        <time>2021-03-28T12:43:28Z</time>
      </trkpt>
      <trkpt lat="46.77186" lon="5.60762">
        <ele>287.8</ele>
        <time>2021-03-28T12:44:14Z</time>
      </trkpt>
      <trkpt lat="46.77181" lon="5.60758">
        <ele>286.8</ele>
        <time>2021-03-28T12:44:48Z</time>
      </trkpt>
      <trkpt lat="46.77185" lon="5.60752">
        <ele>287.2</ele>
        <time>2021-03-28T12:45:48Z</time>
      </trkpt>
      <trkpt lat="46.77189" lon="5.60749">
        <ele>287.5</ele>
        <time>2021-03-28T12:45:53Z</time>
      </trkpt>
      <trkpt lat="46.77193" lon="5.60744">
        <ele>287.8</ele>
        <time>2021-03-28T12:45:58Z</time>
      </trkpt>
      <trkpt lat="46.77196" lon="5.60739">
        <ele>288.2</ele>
        <time>2021-03-28T12:46:09Z</time>
      </trkpt>
      <trkpt lat="46.77199" lon="5.60734">
        <ele>288.3</ele>
        <time>2021-03-28T12:46:16Z</time>
      </trkpt>
      <trkpt lat="46.77202" lon="5.60729">
        <ele>288.3</ele>
        <time>2021-03-28T12:46:22Z</time>
      </trkpt>
      <trkpt lat="46.77206" lon="5.60725">
        <ele>288.6</ele>
        <time>2021-03-28T12:46:31Z</time>
      </trkpt>
      <trkpt lat="46.77209" lon="5.60719">
        <ele>289.8</ele>
        <time>2021-03-28T12:46:40Z</time>
      </trkpt>
      <trkpt lat="46.77208" lon="5.60712">
        <ele>292.9</ele>
        <time>2021-03-28T12:46:50Z</time>
      </trkpt>
      <trkpt lat="46.77209" lon="5.60706">
        <ele>296.8</ele>
        <time>2021-03-28T12:47:21Z</time>
      </trkpt>
      <trkpt lat="46.77212" lon="5.607">
        <ele>297.5</ele>
        <time>2021-03-28T12:47:26Z</time>
      </trkpt>
      <trkpt lat="46.77214" lon="5.60693">
        <ele>298.6</ele>
        <time>2021-03-28T12:47:32Z</time>
      </trkpt>
      <trkpt lat="46.77215" lon="5.60686">
        <ele>300.3</ele>
        <time>2021-03-28T12:47:39Z</time>
      </trkpt>
      <trkpt lat="46.77216" lon="5.6068">
        <ele>301.7</ele>
        <time>2021-03-28T12:47:44Z</time>
      </trkpt>
      <trkpt lat="46.77216" lon="5.60673">
        <ele>302.7</ele>
        <time>2021-03-28T12:47:48Z</time>
      </trkpt>
      <trkpt lat="46.77216" lon="5.60666">
        <ele>304</ele>
        <time>2021-03-28T12:47:53Z</time>
      </trkpt>
      <trkpt lat="46.77214" lon="5.60659">
        <ele>305.6</ele>
        <time>2021-03-28T12:47:59Z</time>
      </trkpt>
      <trkpt lat="46.77215" lon="5.60652">
        <ele>307</ele>
        <time>2021-03-28T12:48:05Z</time>
      </trkpt>
      <trkpt lat="46.77217" lon="5.60646">
        <ele>308.3</ele>
        <time>2021-03-28T12:48:11Z</time>
      </trkpt>
      <trkpt lat="46.77219" lon="5.60639">
        <ele>310</ele>
        <time>2021-03-28T12:48:17Z</time>
      </trkpt>
      <trkpt lat="46.77219" lon="5.60631">
        <ele>312.1</ele>
        <time>2021-03-28T12:48:23Z</time>
      </trkpt>
      <trkpt lat="46.7722" lon="5.60624">
        <ele>313.9</ele>
        <time>2021-03-28T12:48:29Z</time>
      </trkpt>
      <trkpt lat="46.77221" lon="5.60617">
        <ele>315.8</ele>
        <time>2021-03-28T12:48:37Z</time>
      </trkpt>
      <trkpt lat="46.77223" lon="5.60611">
        <ele>315.9</ele>
        <time>2021-03-28T12:48:44Z</time>
      </trkpt>
      <trkpt lat="46.77224" lon="5.60604">
        <ele>315.8</ele>
        <time>2021-03-28T12:48:50Z</time>
      </trkpt>
      <trkpt lat="46.77227" lon="5.60598">
        <ele>315.9</ele>
        <time>2021-03-28T12:48:55Z</time>
      </trkpt>
      <trkpt lat="46.7723" lon="5.60592">
        <ele>316.1</ele>
        <time>2021-03-28T12:49:01Z</time>
      </trkpt>
      <trkpt lat="46.77234" lon="5.60587">
        <ele>316.3</ele>
        <time>2021-03-28T12:49:06Z</time>
      </trkpt>
      <trkpt lat="46.77237" lon="5.60581">
        <ele>316.2</ele>
        <time>2021-03-28T12:49:12Z</time>
      </trkpt>
      <trkpt lat="46.7724" lon="5.60575">
        <ele>315.8</ele>
        <time>2021-03-28T12:49:17Z</time>
      </trkpt>
      <trkpt lat="46.77244" lon="5.6057">
        <ele>315</ele>
        <time>2021-03-28T12:49:24Z</time>
      </trkpt>
      <trkpt lat="46.77245" lon="5.60563">
        <ele>314.6</ele>
        <time>2021-03-28T12:49:31Z</time>
      </trkpt>
      <trkpt lat="46.77248" lon="5.60556">
        <ele>314.5</ele>
        <time>2021-03-28T12:49:36Z</time>
      </trkpt>
      <trkpt lat="46.7725" lon="5.6055">
        <ele>314.6</ele>
        <time>2021-03-28T12:49:41Z</time>
      </trkpt>
      <trkpt lat="46.77253" lon="5.60544">
        <ele>314.8</ele>
        <time>2021-03-28T12:50:06Z</time>
      </trkpt>
      <trkpt lat="46.77257" lon="5.60544">
        <ele>315.8</ele>
        <time>2021-03-28T12:50:11Z</time>
      </trkpt>
      <trkpt lat="46.77251" lon="5.60546">
        <ele>316.4</ele>
        <time>2021-03-28T12:50:41Z</time>
      </trkpt>
      <trkpt lat="46.77246" lon="5.60546">
        <ele>315.2</ele>
        <time>2021-03-28T12:50:45Z</time>
      </trkpt>
      <trkpt lat="46.77252" lon="5.60543">
        <ele>314.2</ele>
        <time>2021-03-28T12:51:21Z</time>
      </trkpt>
      <trkpt lat="46.77256" lon="5.60542">
        <ele>315.4</ele>
        <time>2021-03-28T12:51:25Z</time>
      </trkpt>
      <trkpt lat="46.7726" lon="5.60537">
        <ele>317.2</ele>
        <time>2021-03-28T12:51:32Z</time>
      </trkpt>
      <trkpt lat="46.77262" lon="5.60531">
        <ele>318.1</ele>
        <time>2021-03-28T12:51:38Z</time>
      </trkpt>
      <trkpt lat="46.77262" lon="5.60538">
        <ele>320</ele>
        <time>2021-03-28T12:52:13Z</time>
      </trkpt>
      <trkpt lat="46.7726" lon="5.60545">
        <ele>320.6</ele>
        <time>2021-03-28T12:52:19Z</time>
      </trkpt>
      <trkpt lat="46.77258" lon="5.60551">
        <ele>321.6</ele>
        <time>2021-03-28T12:52:27Z</time>
      </trkpt>
      <trkpt lat="46.77256" lon="5.60558">
        <ele>321.6</ele>
        <time>2021-03-28T12:52:50Z</time>
      </trkpt>
      <trkpt lat="46.77256" lon="5.60565">
        <ele>321</ele>
        <time>2021-03-28T12:52:59Z</time>
      </trkpt>
      <trkpt lat="46.77257" lon="5.60572">
        <ele>320.9</ele>
        <time>2021-03-28T12:53:07Z</time>
      </trkpt>
      <trkpt lat="46.77256" lon="5.60579">
        <ele>321.2</ele>
        <time>2021-03-28T12:53:15Z</time>
      </trkpt>
      <trkpt lat="46.77254" lon="5.60585">
        <ele>321.7</ele>
        <time>2021-03-28T12:53:20Z</time>
      </trkpt>
      <trkpt lat="46.77253" lon="5.60591">
        <ele>323</ele>
        <time>2021-03-28T12:53:27Z</time>
      </trkpt>
      <trkpt lat="46.77253" lon="5.60598">
        <ele>324</ele>
        <time>2021-03-28T12:53:34Z</time>
      </trkpt>
      <trkpt lat="46.77254" lon="5.60605">
        <ele>324.4</ele>
        <time>2021-03-28T12:53:39Z</time>
      </trkpt>
      <trkpt lat="46.77254" lon="5.60613">
        <ele>324.8</ele>
        <time>2021-03-28T12:53:45Z</time>
      </trkpt>
      <trkpt lat="46.77255" lon="5.6062">
        <ele>325</ele>
        <time>2021-03-28T12:53:50Z</time>
      </trkpt>
      <trkpt lat="46.77256" lon="5.60626">
        <ele>325.3</ele>
        <time>2021-03-28T12:53:56Z</time>
      </trkpt>
      <trkpt lat="46.77258" lon="5.60633">
        <ele>325.7</ele>
        <time>2021-03-28T12:54:02Z</time>
      </trkpt>
      <trkpt lat="46.7726" lon="5.60639">
        <ele>325.9</ele>
        <time>2021-03-28T12:54:08Z</time>
      </trkpt>
      <trkpt lat="46.77262" lon="5.60645">
        <ele>326</ele>
        <time>2021-03-28T12:54:17Z</time>
      </trkpt>
      <trkpt lat="46.77266" lon="5.60648">
        <ele>326.6</ele>
        <time>2021-03-28T12:54:25Z</time>
      </trkpt>
      <trkpt lat="46.7727" lon="5.60652">
        <ele>326.9</ele>
        <time>2021-03-28T12:54:31Z</time>
      </trkpt>
      <trkpt lat="46.77273" lon="5.60657">
        <ele>327.2</ele>
        <time>2021-03-28T12:54:38Z</time>
      </trkpt>
      <trkpt lat="46.77276" lon="5.60661">
        <ele>327.4</ele>
        <time>2021-03-28T12:54:45Z</time>
      </trkpt>
      <trkpt lat="46.77274" lon="5.60666">
        <ele>326.9</ele>
        <time>2021-03-28T12:54:53Z</time>
      </trkpt>
      <trkpt lat="46.77269" lon="5.6067">
        <ele>326.9</ele>
        <time>2021-03-28T12:55:38Z</time>
      </trkpt>
      <trkpt lat="46.77271" lon="5.60663">
        <ele>328.7</ele>
        <time>2021-03-28T12:56:31Z</time>
      </trkpt>
      <trkpt lat="46.77277" lon="5.6066">
        <ele>328.4</ele>
        <time>2021-03-28T12:56:35Z</time>
      </trkpt>
      <trkpt lat="46.77281" lon="5.60659">
        <ele>329</ele>
        <time>2021-03-28T12:57:35Z</time>
      </trkpt>
      <trkpt lat="46.77286" lon="5.60661">
        <ele>329.5</ele>
        <time>2021-03-28T12:57:44Z</time>
      </trkpt>
      <trkpt lat="46.77289" lon="5.60667">
        <ele>329.9</ele>
        <time>2021-03-28T12:57:51Z</time>
      </trkpt>
      <trkpt lat="46.77293" lon="5.6067">
        <ele>331.3</ele>
        <time>2021-03-28T12:57:56Z</time>
      </trkpt>
      <trkpt lat="46.77297" lon="5.60673">
        <ele>333</ele>
        <time>2021-03-28T12:58:02Z</time>
      </trkpt>
      <trkpt lat="46.773" lon="5.60679">
        <ele>336.1</ele>
        <time>2021-03-28T12:58:12Z</time>
      </trkpt>
      <trkpt lat="46.77305" lon="5.60684">
        <ele>338.5</ele>
        <time>2021-03-28T12:58:19Z</time>
      </trkpt>
      <trkpt lat="46.77309" lon="5.60687">
        <ele>339.7</ele>
        <time>2021-03-28T12:58:23Z</time>
      </trkpt>
      <trkpt lat="46.77311" lon="5.60692">
        <ele>341.1</ele>
        <time>2021-03-28T12:58:28Z</time>
      </trkpt>
      <trkpt lat="46.77314" lon="5.60698">
        <ele>342.5</ele>
        <time>2021-03-28T12:58:33Z</time>
      </trkpt>
      <trkpt lat="46.77317" lon="5.60704">
        <ele>343.9</ele>
        <time>2021-03-28T12:58:40Z</time>
      </trkpt>
      <trkpt lat="46.7732" lon="5.60709">
        <ele>344.8</ele>
        <time>2021-03-28T12:58:46Z</time>
      </trkpt>
      <trkpt lat="46.77324" lon="5.60713">
        <ele>345.8</ele>
        <time>2021-03-28T12:58:56Z</time>
      </trkpt>
      <trkpt lat="46.77329" lon="5.60716">
        <ele>346.5</ele>
        <time>2021-03-28T12:59:02Z</time>
      </trkpt>
      <trkpt lat="46.77334" lon="5.60719">
        <ele>347.1</ele>
        <time>2021-03-28T12:59:07Z</time>
      </trkpt>
      <trkpt lat="46.77339" lon="5.60721">
        <ele>348.3</ele>
        <time>2021-03-28T12:59:14Z</time>
      </trkpt>
      <trkpt lat="46.77344" lon="5.60723">
        <ele>349.6</ele>
        <time>2021-03-28T12:59:19Z</time>
      </trkpt>
      <trkpt lat="46.77347" lon="5.60728">
        <ele>350.7</ele>
        <time>2021-03-28T12:59:27Z</time>
      </trkpt>
      <trkpt lat="46.77352" lon="5.60731">
        <ele>351</ele>
        <time>2021-03-28T12:59:32Z</time>
      </trkpt>
      <trkpt lat="46.77357" lon="5.60733">
        <ele>351.1</ele>
        <time>2021-03-28T12:59:36Z</time>
      </trkpt>
      <trkpt lat="46.77362" lon="5.60736">
        <ele>350.7</ele>
        <time>2021-03-28T12:59:40Z</time>
      </trkpt>
      <trkpt lat="46.77365" lon="5.60741">
        <ele>350.5</ele>
        <time>2021-03-28T12:59:46Z</time>
      </trkpt>
      <trkpt lat="46.77369" lon="5.60746">
        <ele>350.7</ele>
        <time>2021-03-28T12:59:54Z</time>
      </trkpt>
      <trkpt lat="46.77373" lon="5.6075">
        <ele>351.6</ele>
        <time>2021-03-28T13:00:00Z</time>
      </trkpt>
      <trkpt lat="46.77375" lon="5.60755">
        <ele>352.1</ele>
        <time>2021-03-28T13:00:11Z</time>
      </trkpt>
      <trkpt lat="46.77379" lon="5.60759">
        <ele>351.7</ele>
        <time>2021-03-28T13:00:58Z</time>
      </trkpt>
      <trkpt lat="46.77384" lon="5.60763">
        <ele>351.7</ele>
        <time>2021-03-28T13:01:04Z</time>
      </trkpt>
      <trkpt lat="46.77386" lon="5.60769">
        <ele>351.3</ele>
        <time>2021-03-28T13:01:10Z</time>
      </trkpt>
      <trkpt lat="46.77391" lon="5.60772">
        <ele>350.6</ele>
        <time>2021-03-28T13:01:21Z</time>
      </trkpt>
      <trkpt lat="46.77394" lon="5.60777">
        <ele>348.7</ele>
        <time>2021-03-28T13:01:28Z</time>
      </trkpt>
      <trkpt lat="46.77398" lon="5.6078">
        <ele>347.2</ele>
        <time>2021-03-28T13:01:33Z</time>
      </trkpt>
      <trkpt lat="46.77403" lon="5.60781">
        <ele>345.9</ele>
        <time>2021-03-28T13:01:38Z</time>
      </trkpt>
      <trkpt lat="46.77408" lon="5.60781">
        <ele>345</ele>
        <time>2021-03-28T13:01:45Z</time>
      </trkpt>
      <trkpt lat="46.77413" lon="5.6078">
        <ele>345</ele>
        <time>2021-03-28T13:01:50Z</time>
      </trkpt>
      <trkpt lat="46.77417" lon="5.60779">
        <ele>345.4</ele>
        <time>2021-03-28T13:01:57Z</time>
      </trkpt>
      <trkpt lat="46.77422" lon="5.60777">
        <ele>346.2</ele>
        <time>2021-03-28T13:02:02Z</time>
      </trkpt>
      <trkpt lat="46.77427" lon="5.60774">
        <ele>347</ele>
        <time>2021-03-28T13:02:07Z</time>
      </trkpt>
      <trkpt lat="46.77431" lon="5.60771">
        <ele>347.9</ele>
        <time>2021-03-28T13:02:15Z</time>
      </trkpt>
      <trkpt lat="46.77435" lon="5.60769">
        <ele>348.8</ele>
        <time>2021-03-28T13:02:19Z</time>
      </trkpt>
      <trkpt lat="46.7744" lon="5.60768">
        <ele>349.8</ele>
        <time>2021-03-28T13:02:23Z</time>
      </trkpt>
      <trkpt lat="46.77444" lon="5.60771">
        <ele>350.4</ele>
        <time>2021-03-28T13:02:29Z</time>
      </trkpt>
      <trkpt lat="46.77448" lon="5.60776">
        <ele>350.8</ele>
        <time>2021-03-28T13:02:34Z</time>
      </trkpt>
      <trkpt lat="46.77452" lon="5.6078">
        <ele>351.1</ele>
        <time>2021-03-28T13:02:40Z</time>
      </trkpt>
      <trkpt lat="46.77456" lon="5.60783">
        <ele>351.5</ele>
        <time>2021-03-28T13:02:45Z</time>
      </trkpt>
      <trkpt lat="46.77461" lon="5.60785">
        <ele>352</ele>
        <time>2021-03-28T13:02:51Z</time>
      </trkpt>
      <trkpt lat="46.77465" lon="5.60789">
        <ele>352.5</ele>
        <time>2021-03-28T13:02:56Z</time>
      </trkpt>
      <trkpt lat="46.77469" lon="5.60792">
        <ele>353.3</ele>
        <time>2021-03-28T13:03:01Z</time>
      </trkpt>
      <trkpt lat="46.77474" lon="5.60794">
        <ele>354.6</ele>
        <time>2021-03-28T13:03:06Z</time>
      </trkpt>
      <trkpt lat="46.77479" lon="5.60798">
        <ele>356.5</ele>
        <time>2021-03-28T13:03:11Z</time>
      </trkpt>
      <trkpt lat="46.77482" lon="5.60803">
        <ele>358.8</ele>
        <time>2021-03-28T13:03:16Z</time>
      </trkpt>
      <trkpt lat="46.77485" lon="5.60807">
        <ele>361</ele>
        <time>2021-03-28T13:03:21Z</time>
      </trkpt>
      <trkpt lat="46.7749" lon="5.6081">
        <ele>362.8</ele>
        <time>2021-03-28T13:03:26Z</time>
      </trkpt>
      <trkpt lat="46.77493" lon="5.60815">
        <ele>364.7</ele>
        <time>2021-03-28T13:03:32Z</time>
      </trkpt>
      <trkpt lat="46.77496" lon="5.6082">
        <ele>366</ele>
        <time>2021-03-28T13:03:37Z</time>
      </trkpt>
      <trkpt lat="46.77501" lon="5.60822">
        <ele>367.2</ele>
        <time>2021-03-28T13:03:42Z</time>
      </trkpt>
      <trkpt lat="46.77506" lon="5.60826">
        <ele>368.3</ele>
        <time>2021-03-28T13:03:48Z</time>
      </trkpt>
      <trkpt lat="46.77511" lon="5.6083">
        <ele>368.9</ele>
        <time>2021-03-28T13:03:52Z</time>
      </trkpt>
      <trkpt lat="46.77515" lon="5.60833">
        <ele>369.7</ele>
        <time>2021-03-28T13:03:57Z</time>
      </trkpt>
      <trkpt lat="46.7752" lon="5.60837">
        <ele>370.3</ele>
        <time>2021-03-28T13:04:02Z</time>
      </trkpt>
      <trkpt lat="46.77524" lon="5.6084">
        <ele>370.5</ele>
        <time>2021-03-28T13:04:08Z</time>
      </trkpt>
      <trkpt lat="46.77529" lon="5.60843">
        <ele>371.5</ele>
        <time>2021-03-28T13:04:14Z</time>
      </trkpt>
      <trkpt lat="46.77534" lon="5.60845">
        <ele>372.3</ele>
        <time>2021-03-28T13:04:19Z</time>
      </trkpt>
      <trkpt lat="46.77539" lon="5.60848">
        <ele>373.4</ele>
        <time>2021-03-28T13:04:25Z</time>
      </trkpt>
      <trkpt lat="46.77543" lon="5.60852">
        <ele>374.1</ele>
        <time>2021-03-28T13:04:31Z</time>
      </trkpt>
      <trkpt lat="46.77548" lon="5.60857">
        <ele>374.9</ele>
        <time>2021-03-28T13:04:37Z</time>
      </trkpt>
      <trkpt lat="46.77551" lon="5.60861">
        <ele>375.4</ele>
        <time>2021-03-28T13:04:42Z</time>
      </trkpt>
      <trkpt lat="46.77556" lon="5.60865">
        <ele>375.9</ele>
        <time>2021-03-28T13:04:47Z</time>
      </trkpt>
      <trkpt lat="46.7756" lon="5.60869">
        <ele>376.6</ele>
        <time>2021-03-28T13:04:52Z</time>
      </trkpt>
      <trkpt lat="46.77564" lon="5.60873">
        <ele>377</ele>
        <time>2021-03-28T13:04:56Z</time>
      </trkpt>
      <trkpt lat="46.77568" lon="5.60877">
        <ele>377.5</ele>
        <time>2021-03-28T13:05:01Z</time>
      </trkpt>
      <trkpt lat="46.77572" lon="5.6088">
        <ele>377.9</ele>
        <time>2021-03-28T13:05:05Z</time>
      </trkpt>
      <trkpt lat="46.77577" lon="5.60883">
        <ele>378</ele>
        <time>2021-03-28T13:05:10Z</time>
      </trkpt>
      <trkpt lat="46.77582" lon="5.60886">
        <ele>377.9</ele>
        <time>2021-03-28T13:05:15Z</time>
      </trkpt>
      <trkpt lat="46.77586" lon="5.6089">
        <ele>378.2</ele>
        <time>2021-03-28T13:05:20Z</time>
      </trkpt>
      <trkpt lat="46.77591" lon="5.60894">
        <ele>378.2</ele>
        <time>2021-03-28T13:05:25Z</time>
      </trkpt>
      <trkpt lat="46.77594" lon="5.60898">
        <ele>378.3</ele>
        <time>2021-03-28T13:05:32Z</time>
      </trkpt>
      <trkpt lat="46.77598" lon="5.60901">
        <ele>378.2</ele>
        <time>2021-03-28T13:05:36Z</time>
      </trkpt>
      <trkpt lat="46.77603" lon="5.60905">
        <ele>378</ele>
        <time>2021-03-28T13:05:40Z</time>
      </trkpt>
      <trkpt lat="46.77608" lon="5.60908">
        <ele>377.8</ele>
        <time>2021-03-28T13:05:44Z</time>
      </trkpt>
      <trkpt lat="46.77612" lon="5.60911">
        <ele>378</ele>
        <time>2021-03-28T13:05:48Z</time>
      </trkpt>
      <trkpt lat="46.77616" lon="5.60914">
        <ele>378.3</ele>
        <time>2021-03-28T13:05:52Z</time>
      </trkpt>
      <trkpt lat="46.7762" lon="5.60919">
        <ele>378.6</ele>
        <time>2021-03-28T13:05:57Z</time>
      </trkpt>
      <trkpt lat="46.77623" lon="5.60924">
        <ele>379</ele>
        <time>2021-03-28T13:06:03Z</time>
      </trkpt>
      <trkpt lat="46.77628" lon="5.60927">
        <ele>378.8</ele>
        <time>2021-03-28T13:06:09Z</time>
      </trkpt>
      <trkpt lat="46.77633" lon="5.60929">
        <ele>378.3</ele>
        <time>2021-03-28T13:06:15Z</time>
      </trkpt>
      <trkpt lat="46.77638" lon="5.60933">
        <ele>377.9</ele>
        <time>2021-03-28T13:06:21Z</time>
      </trkpt>
      <trkpt lat="46.77642" lon="5.60935">
        <ele>378.1</ele>
        <time>2021-03-28T13:06:26Z</time>
      </trkpt>
      <trkpt lat="46.77646" lon="5.60938">
        <ele>378.3</ele>
        <time>2021-03-28T13:06:31Z</time>
      </trkpt>
      <trkpt lat="46.77651" lon="5.60941">
        <ele>378.2</ele>
        <time>2021-03-28T13:06:35Z</time>
      </trkpt>
      <trkpt lat="46.77655" lon="5.60945">
        <ele>378</ele>
        <time>2021-03-28T13:06:39Z</time>
      </trkpt>
      <trkpt lat="46.7766" lon="5.60949">
        <ele>377.5</ele>
        <time>2021-03-28T13:06:44Z</time>
      </trkpt>
      <trkpt lat="46.77664" lon="5.60953">
        <ele>376.8</ele>
        <time>2021-03-28T13:06:49Z</time>
      </trkpt>
      <trkpt lat="46.77669" lon="5.60956">
        <ele>375.8</ele>
        <time>2021-03-28T13:06:54Z</time>
      </trkpt>
      <trkpt lat="46.77673" lon="5.60959">
        <ele>375.1</ele>
        <time>2021-03-28T13:06:59Z</time>
      </trkpt>
      <trkpt lat="46.77677" lon="5.60962">
        <ele>374.3</ele>
        <time>2021-03-28T13:07:04Z</time>
      </trkpt>
      <trkpt lat="46.77681" lon="5.60967">
        <ele>374</ele>
        <time>2021-03-28T13:07:09Z</time>
      </trkpt>
      <trkpt lat="46.77685" lon="5.6097">
        <ele>373.1</ele>
        <time>2021-03-28T13:07:16Z</time>
      </trkpt>
      <trkpt lat="46.7769" lon="5.60974">
        <ele>372.1</ele>
        <time>2021-03-28T13:07:22Z</time>
      </trkpt>
      <trkpt lat="46.77694" lon="5.60977">
        <ele>371.6</ele>
        <time>2021-03-28T13:07:26Z</time>
      </trkpt>
      <trkpt lat="46.77698" lon="5.60981">
        <ele>371.1</ele>
        <time>2021-03-28T13:07:30Z</time>
      </trkpt>
      <trkpt lat="46.77701" lon="5.60986">
        <ele>370.9</ele>
        <time>2021-03-28T13:07:34Z</time>
      </trkpt>
      <trkpt lat="46.77705" lon="5.60991">
        <ele>371.1</ele>
        <time>2021-03-28T13:07:39Z</time>
      </trkpt>
      <trkpt lat="46.7771" lon="5.60994">
        <ele>371.2</ele>
        <time>2021-03-28T13:07:44Z</time>
      </trkpt>
      <trkpt lat="46.77714" lon="5.60998">
        <ele>371.3</ele>
        <time>2021-03-28T13:07:49Z</time>
      </trkpt>
      <trkpt lat="46.77719" lon="5.61001">
        <ele>371.6</ele>
        <time>2021-03-28T13:07:54Z</time>
      </trkpt>
      <trkpt lat="46.77723" lon="5.61005">
        <ele>371.8</ele>
        <time>2021-03-28T13:07:58Z</time>
      </trkpt>
      <trkpt lat="46.77727" lon="5.61009">
        <ele>372</ele>
        <time>2021-03-28T13:08:02Z</time>
      </trkpt>
      <trkpt lat="46.77732" lon="5.61012">
        <ele>372.4</ele>
        <time>2021-03-28T13:08:07Z</time>
      </trkpt>
      <trkpt lat="46.77737" lon="5.61015">
        <ele>373.2</ele>
        <time>2021-03-28T13:08:12Z</time>
      </trkpt>
      <trkpt lat="46.77741" lon="5.61018">
        <ele>374</ele>
        <time>2021-03-28T13:08:16Z</time>
      </trkpt>
      <trkpt lat="46.77745" lon="5.61023">
        <ele>375</ele>
        <time>2021-03-28T13:08:21Z</time>
      </trkpt>
      <trkpt lat="46.77748" lon="5.61028">
        <ele>376.1</ele>
        <time>2021-03-28T13:08:28Z</time>
      </trkpt>
      <trkpt lat="46.77752" lon="5.61031">
        <ele>376.9</ele>
        <time>2021-03-28T13:08:33Z</time>
      </trkpt>
      <trkpt lat="46.77757" lon="5.61034">
        <ele>377.9</ele>
        <time>2021-03-28T13:08:39Z</time>
      </trkpt>
      <trkpt lat="46.77761" lon="5.61038">
        <ele>378.6</ele>
        <time>2021-03-28T13:08:43Z</time>
      </trkpt>
      <trkpt lat="46.77768" lon="5.61041">
        <ele>379.2</ele>
        <time>2021-03-28T13:08:47Z</time>
      </trkpt>
      <trkpt lat="46.77775" lon="5.61045">
        <ele>379.7</ele>
        <time>2021-03-28T13:08:51Z</time>
      </trkpt>
      <trkpt lat="46.77781" lon="5.61049">
        <ele>380.8</ele>
        <time>2021-03-28T13:08:55Z</time>
      </trkpt>
      <trkpt lat="46.77785" lon="5.61052">
        <ele>382.1</ele>
        <time>2021-03-28T13:09:00Z</time>
      </trkpt>
      <trkpt lat="46.77789" lon="5.61056">
        <ele>382.8</ele>
        <time>2021-03-28T13:09:04Z</time>
      </trkpt>
      <trkpt lat="46.77792" lon="5.61061">
        <ele>383.3</ele>
        <time>2021-03-28T13:09:09Z</time>
      </trkpt>
      <trkpt lat="46.77797" lon="5.61064">
        <ele>383.4</ele>
        <time>2021-03-28T13:09:14Z</time>
      </trkpt>
      <trkpt lat="46.77804" lon="5.61066">
        <ele>383.1</ele>
        <time>2021-03-28T13:09:18Z</time>
      </trkpt>
      <trkpt lat="46.77808" lon="5.61069">
        <ele>382.9</ele>
        <time>2021-03-28T13:09:22Z</time>
      </trkpt>
      <trkpt lat="46.77811" lon="5.61074">
        <ele>383</ele>
        <time>2021-03-28T13:09:28Z</time>
      </trkpt>
      <trkpt lat="46.77815" lon="5.61078">
        <ele>381.5</ele>
        <time>2021-03-28T13:09:36Z</time>
      </trkpt>
      <trkpt lat="46.7782" lon="5.61083">
        <ele>379.7</ele>
        <time>2021-03-28T13:09:43Z</time>
      </trkpt>
      <trkpt lat="46.77824" lon="5.61088">
        <ele>379.1</ele>
        <time>2021-03-28T13:09:48Z</time>
      </trkpt>
      <trkpt lat="46.77829" lon="5.6109">
        <ele>379.1</ele>
        <time>2021-03-28T13:09:52Z</time>
      </trkpt>
      <trkpt lat="46.77833" lon="5.61093">
        <ele>379</ele>
        <time>2021-03-28T13:09:58Z</time>
      </trkpt>
      <trkpt lat="46.77838" lon="5.61095">
        <ele>379.1</ele>
        <time>2021-03-28T13:10:04Z</time>
      </trkpt>
      <trkpt lat="46.77844" lon="5.61095">
        <ele>379.6</ele>
        <time>2021-03-28T13:10:08Z</time>
      </trkpt>
      <trkpt lat="46.77851" lon="5.61095">
        <ele>380.8</ele>
        <time>2021-03-28T13:10:12Z</time>
      </trkpt>
      <trkpt lat="46.77857" lon="5.61096">
        <ele>381.8</ele>
        <time>2021-03-28T13:10:16Z</time>
      </trkpt>
      <trkpt lat="46.77862" lon="5.611">
        <ele>383.1</ele>
        <time>2021-03-28T13:10:21Z</time>
      </trkpt>
      <trkpt lat="46.77866" lon="5.61104">
        <ele>383.5</ele>
        <time>2021-03-28T13:10:26Z</time>
      </trkpt>
      <trkpt lat="46.7787" lon="5.61109">
        <ele>381.4</ele>
        <time>2021-03-28T13:10:32Z</time>
      </trkpt>
      <trkpt lat="46.77874" lon="5.61114">
        <ele>378.9</ele>
        <time>2021-03-28T13:10:38Z</time>
      </trkpt>
      <trkpt lat="46.77877" lon="5.61121">
        <ele>377</ele>
        <time>2021-03-28T13:10:44Z</time>
      </trkpt>
      <trkpt lat="46.77879" lon="5.61126">
        <ele>375.5</ele>
        <time>2021-03-28T13:10:49Z</time>
      </trkpt>
      <trkpt lat="46.77882" lon="5.61132">
        <ele>373.2</ele>
        <time>2021-03-28T13:10:54Z</time>
      </trkpt>
      <trkpt lat="46.77885" lon="5.61138">
        <ele>371.2</ele>
        <time>2021-03-28T13:10:59Z</time>
      </trkpt>
      <trkpt lat="46.77885" lon="5.61145">
        <ele>369.5</ele>
        <time>2021-03-28T13:11:04Z</time>
      </trkpt>
      <trkpt lat="46.77885" lon="5.61153">
        <ele>368.3</ele>
        <time>2021-03-28T13:11:09Z</time>
      </trkpt>
      <trkpt lat="46.77888" lon="5.6116">
        <ele>367.6</ele>
        <time>2021-03-28T13:11:14Z</time>
      </trkpt>
      <trkpt lat="46.7789" lon="5.61166">
        <ele>368.2</ele>
        <time>2021-03-28T13:11:19Z</time>
      </trkpt>
      <trkpt lat="46.77891" lon="5.61175">
        <ele>368.3</ele>
        <time>2021-03-28T13:11:25Z</time>
      </trkpt>
      <trkpt lat="46.77891" lon="5.61183">
        <ele>367.5</ele>
        <time>2021-03-28T13:11:30Z</time>
      </trkpt>
      <trkpt lat="46.7789" lon="5.6119">
        <ele>365.6</ele>
        <time>2021-03-28T13:11:35Z</time>
      </trkpt>
      <trkpt lat="46.77889" lon="5.61198">
        <ele>364.1</ele>
        <time>2021-03-28T13:11:40Z</time>
      </trkpt>
      <trkpt lat="46.77888" lon="5.61205">
        <ele>363.4</ele>
        <time>2021-03-28T13:11:44Z</time>
      </trkpt>
      <trkpt lat="46.77889" lon="5.61211">
        <ele>362.7</ele>
        <time>2021-03-28T13:11:49Z</time>
      </trkpt>
      <trkpt lat="46.7789" lon="5.61218">
        <ele>362.2</ele>
        <time>2021-03-28T13:11:54Z</time>
      </trkpt>
      <trkpt lat="46.77889" lon="5.61225">
        <ele>362</ele>
        <time>2021-03-28T13:11:59Z</time>
      </trkpt>
      <trkpt lat="46.77888" lon="5.61232">
        <ele>361.3</ele>
        <time>2021-03-28T13:12:04Z</time>
      </trkpt>
      <trkpt lat="46.77886" lon="5.61239">
        <ele>360.6</ele>
        <time>2021-03-28T13:12:09Z</time>
      </trkpt>
      <trkpt lat="46.77887" lon="5.61246">
        <ele>358.5</ele>
        <time>2021-03-28T13:12:15Z</time>
      </trkpt>
      <trkpt lat="46.77889" lon="5.61253">
        <ele>357.1</ele>
        <time>2021-03-28T13:12:20Z</time>
      </trkpt>
      <trkpt lat="46.77888" lon="5.6126">
        <ele>356.2</ele>
        <time>2021-03-28T13:12:26Z</time>
      </trkpt>
      <trkpt lat="46.7789" lon="5.61269">
        <ele>355.9</ele>
        <time>2021-03-28T13:12:35Z</time>
      </trkpt>
      <trkpt lat="46.77893" lon="5.61276">
        <ele>357.5</ele>
        <time>2021-03-28T13:12:39Z</time>
      </trkpt>
      <trkpt lat="46.77896" lon="5.61283">
        <ele>359.1</ele>
        <time>2021-03-28T13:12:44Z</time>
      </trkpt>
      <trkpt lat="46.77898" lon="5.61289">
        <ele>359.9</ele>
        <time>2021-03-28T13:12:49Z</time>
      </trkpt>
      <trkpt lat="46.77904" lon="5.61289">
        <ele>360</ele>
        <time>2021-03-28T13:13:25Z</time>
      </trkpt>
      <trkpt lat="46.77908" lon="5.6129">
        <ele>357.6</ele>
        <time>2021-03-28T13:13:31Z</time>
      </trkpt>
      <trkpt lat="46.77917" lon="5.61304">
        <ele>364.3</ele>
        <time>2021-03-28T13:13:38Z</time>
      </trkpt>
      <trkpt lat="46.77925" lon="5.61313">
        <ele>372.7</ele>
        <time>2021-03-28T13:13:42Z</time>
      </trkpt>
      <trkpt lat="46.77929" lon="5.61318">
        <ele>379.1</ele>
        <time>2021-03-28T13:13:46Z</time>
      </trkpt>
      <trkpt lat="46.77933" lon="5.61322">
        <ele>384</ele>
        <time>2021-03-28T13:13:51Z</time>
      </trkpt>
      <trkpt lat="46.77938" lon="5.61322">
        <ele>386.3</ele>
        <time>2021-03-28T13:13:55Z</time>
      </trkpt>
      <trkpt lat="46.77943" lon="5.61324">
        <ele>387.6</ele>
        <time>2021-03-28T13:13:59Z</time>
      </trkpt>
      <trkpt lat="46.77948" lon="5.61329">
        <ele>388</ele>
        <time>2021-03-28T13:14:03Z</time>
      </trkpt>
      <trkpt lat="46.77951" lon="5.61334">
        <ele>388</ele>
        <time>2021-03-28T13:14:07Z</time>
      </trkpt>
      <trkpt lat="46.77952" lon="5.6134">
        <ele>387.8</ele>
        <time>2021-03-28T13:14:11Z</time>
      </trkpt>
      <trkpt lat="46.77953" lon="5.61347">
        <ele>386.4</ele>
        <time>2021-03-28T13:14:17Z</time>
      </trkpt>
      <trkpt lat="46.77954" lon="5.61353">
        <ele>383</ele>
        <time>2021-03-28T13:14:26Z</time>
      </trkpt>
      <trkpt lat="46.77953" lon="5.6136">
        <ele>380.5</ele>
        <time>2021-03-28T13:14:35Z</time>
      </trkpt>
      <trkpt lat="46.77951" lon="5.61367">
        <ele>379.2</ele>
        <time>2021-03-28T13:14:40Z</time>
      </trkpt>
      <trkpt lat="46.77949" lon="5.61374">
        <ele>378.1</ele>
        <time>2021-03-28T13:14:45Z</time>
      </trkpt>
      <trkpt lat="46.77948" lon="5.61381">
        <ele>376.7</ele>
        <time>2021-03-28T13:14:52Z</time>
      </trkpt>
      <trkpt lat="46.77945" lon="5.61386">
        <ele>375.6</ele>
        <time>2021-03-28T13:15:02Z</time>
      </trkpt>
      <trkpt lat="46.77943" lon="5.61392">
        <ele>375.1</ele>
        <time>2021-03-28T13:15:08Z</time>
      </trkpt>
      <trkpt lat="46.77942" lon="5.61399">
        <ele>374.3</ele>
        <time>2021-03-28T13:15:15Z</time>
      </trkpt>
      <trkpt lat="46.77941" lon="5.61407">
        <ele>373.3</ele>
        <time>2021-03-28T13:15:20Z</time>
      </trkpt>
      <trkpt lat="46.77939" lon="5.61413">
        <ele>372.1</ele>
        <time>2021-03-28T13:15:25Z</time>
      </trkpt>
      <trkpt lat="46.77937" lon="5.6142">
        <ele>371</ele>
        <time>2021-03-28T13:15:30Z</time>
      </trkpt>
      <trkpt lat="46.77934" lon="5.61425">
        <ele>368.8</ele>
        <time>2021-03-28T13:15:47Z</time>
      </trkpt>
      <trkpt lat="46.77933" lon="5.61432">
        <ele>368.2</ele>
        <time>2021-03-28T13:15:53Z</time>
      </trkpt>
      <trkpt lat="46.7793" lon="5.61439">
        <ele>367.2</ele>
        <time>2021-03-28T13:15:59Z</time>
      </trkpt>
      <trkpt lat="46.77927" lon="5.61444">
        <ele>365.7</ele>
        <time>2021-03-28T13:16:04Z</time>
      </trkpt>
      <trkpt lat="46.77924" lon="5.6145">
        <ele>363.9</ele>
        <time>2021-03-28T13:16:10Z</time>
      </trkpt>
      <trkpt lat="46.77922" lon="5.61457">
        <ele>362.6</ele>
        <time>2021-03-28T13:16:16Z</time>
      </trkpt>
      <trkpt lat="46.77924" lon="5.61466">
        <ele>362.6</ele>
        <time>2021-03-28T13:17:49Z</time>
      </trkpt>
      <trkpt lat="46.77928" lon="5.61469">
        <ele>362.9</ele>
        <time>2021-03-28T13:17:53Z</time>
      </trkpt>
      <trkpt lat="46.77932" lon="5.6147">
        <ele>362.9</ele>
        <time>2021-03-28T13:17:59Z</time>
      </trkpt>
      <trkpt lat="46.77937" lon="5.61472">
        <ele>362.2</ele>
        <time>2021-03-28T13:18:07Z</time>
      </trkpt>
      <trkpt lat="46.77942" lon="5.61473">
        <ele>361.4</ele>
        <time>2021-03-28T13:18:12Z</time>
      </trkpt>
      <trkpt lat="46.77947" lon="5.61473">
        <ele>360.3</ele>
        <time>2021-03-28T13:18:17Z</time>
      </trkpt>
      <trkpt lat="46.77952" lon="5.61474">
        <ele>358.2</ele>
        <time>2021-03-28T13:18:24Z</time>
      </trkpt>
      <trkpt lat="46.77957" lon="5.61474">
        <ele>357.2</ele>
        <time>2021-03-28T13:18:29Z</time>
      </trkpt>
      <trkpt lat="46.77962" lon="5.61473">
        <ele>356</ele>
        <time>2021-03-28T13:18:34Z</time>
      </trkpt>
      <trkpt lat="46.77966" lon="5.61474">
        <ele>354</ele>
        <time>2021-03-28T13:18:40Z</time>
      </trkpt>
      <trkpt lat="46.77971" lon="5.61475">
        <ele>353.3</ele>
        <time>2021-03-28T13:18:44Z</time>
      </trkpt>
      <trkpt lat="46.77976" lon="5.61476">
        <ele>353.2</ele>
        <time>2021-03-28T13:18:48Z</time>
      </trkpt>
      <trkpt lat="46.77981" lon="5.61477">
        <ele>353</ele>
        <time>2021-03-28T13:18:53Z</time>
      </trkpt>
      <trkpt lat="46.77986" lon="5.61478">
        <ele>352.5</ele>
        <time>2021-03-28T13:18:57Z</time>
      </trkpt>
      <trkpt lat="46.77991" lon="5.61478">
        <ele>351.8</ele>
        <time>2021-03-28T13:19:01Z</time>
      </trkpt>
      <trkpt lat="46.77997" lon="5.61478">
        <ele>351.2</ele>
        <time>2021-03-28T13:19:05Z</time>
      </trkpt>
      <trkpt lat="46.78002" lon="5.61477">
        <ele>351.3</ele>
        <time>2021-03-28T13:19:09Z</time>
      </trkpt>
      <trkpt lat="46.78007" lon="5.61478">
        <ele>352.8</ele>
        <time>2021-03-28T13:19:15Z</time>
      </trkpt>
      <trkpt lat="46.78012" lon="5.6148">
        <ele>354.9</ele>
        <time>2021-03-28T13:19:20Z</time>
      </trkpt>
      <trkpt lat="46.78017" lon="5.61482">
        <ele>357</ele>
        <time>2021-03-28T13:19:25Z</time>
      </trkpt>
      <trkpt lat="46.78022" lon="5.61483">
        <ele>358.3</ele>
        <time>2021-03-28T13:19:30Z</time>
      </trkpt>
      <trkpt lat="46.78027" lon="5.61483">
        <ele>359</ele>
        <time>2021-03-28T13:19:35Z</time>
      </trkpt>
      <trkpt lat="46.78032" lon="5.61482">
        <ele>359.1</ele>
        <time>2021-03-28T13:19:40Z</time>
      </trkpt>
      <trkpt lat="46.78037" lon="5.61483">
        <ele>358.8</ele>
        <time>2021-03-28T13:19:44Z</time>
      </trkpt>
      <trkpt lat="46.78042" lon="5.61484">
        <ele>358.6</ele>
        <time>2021-03-28T13:19:48Z</time>
      </trkpt>
      <trkpt lat="46.78047" lon="5.61486">
        <ele>358.2</ele>
        <time>2021-03-28T13:19:53Z</time>
      </trkpt>
      <trkpt lat="46.78051" lon="5.61488">
        <ele>357.5</ele>
        <time>2021-03-28T13:19:58Z</time>
      </trkpt>
      <trkpt lat="46.78056" lon="5.61489">
        <ele>356.9</ele>
        <time>2021-03-28T13:20:03Z</time>
      </trkpt>
      <trkpt lat="46.7806" lon="5.61492">
        <ele>356.7</ele>
        <time>2021-03-28T13:20:08Z</time>
      </trkpt>
      <trkpt lat="46.78065" lon="5.61493">
        <ele>356.6</ele>
        <time>2021-03-28T13:20:16Z</time>
      </trkpt>
      <trkpt lat="46.78071" lon="5.61495">
        <ele>356.5</ele>
        <time>2021-03-28T13:20:22Z</time>
      </trkpt>
      <trkpt lat="46.78076" lon="5.61497">
        <ele>356.5</ele>
        <time>2021-03-28T13:20:26Z</time>
      </trkpt>
      <trkpt lat="46.78081" lon="5.61498">
        <ele>356.8</ele>
        <time>2021-03-28T13:20:30Z</time>
      </trkpt>
      <trkpt lat="46.78085" lon="5.615">
        <ele>356.9</ele>
        <time>2021-03-28T13:20:40Z</time>
      </trkpt>
      <trkpt lat="46.7809" lon="5.61502">
        <ele>358.2</ele>
        <time>2021-03-28T13:20:47Z</time>
      </trkpt>
      <trkpt lat="46.78095" lon="5.61501">
        <ele>359.3</ele>
        <time>2021-03-28T13:20:52Z</time>
      </trkpt>
      <trkpt lat="46.781" lon="5.61501">
        <ele>359.6</ele>
        <time>2021-03-28T13:20:57Z</time>
      </trkpt>
      <trkpt lat="46.78105" lon="5.615">
        <ele>358.8</ele>
        <time>2021-03-28T13:21:02Z</time>
      </trkpt>
      <trkpt lat="46.78109" lon="5.61499">
        <ele>356.9</ele>
        <time>2021-03-28T13:21:11Z</time>
      </trkpt>
      <trkpt lat="46.78113" lon="5.61502">
        <ele>354.6</ele>
        <time>2021-03-28T13:21:18Z</time>
      </trkpt>
      <trkpt lat="46.78119" lon="5.61505">
        <ele>352.5</ele>
        <time>2021-03-28T13:21:24Z</time>
      </trkpt>
      <trkpt lat="46.78124" lon="5.61506">
        <ele>351.1</ele>
        <time>2021-03-28T13:21:29Z</time>
      </trkpt>
      <trkpt lat="46.78129" lon="5.6151">
        <ele>350</ele>
        <time>2021-03-28T13:21:34Z</time>
      </trkpt>
      <trkpt lat="46.78133" lon="5.61514">
        <ele>349.2</ele>
        <time>2021-03-28T13:21:39Z</time>
      </trkpt>
      <trkpt lat="46.78137" lon="5.61517">
        <ele>348.3</ele>
        <time>2021-03-28T13:21:44Z</time>
      </trkpt>
      <trkpt lat="46.78143" lon="5.6152">
        <ele>348.4</ele>
        <time>2021-03-28T13:21:48Z</time>
      </trkpt>
      <trkpt lat="46.78147" lon="5.61524">
        <ele>349</ele>
        <time>2021-03-28T13:21:55Z</time>
      </trkpt>
      <trkpt lat="46.78152" lon="5.61527">
        <ele>349.4</ele>
        <time>2021-03-28T13:21:59Z</time>
      </trkpt>
      <trkpt lat="46.78158" lon="5.6153">
        <ele>349.5</ele>
        <time>2021-03-28T13:22:03Z</time>
      </trkpt>
      <trkpt lat="46.78162" lon="5.61533">
        <ele>349</ele>
        <time>2021-03-28T13:22:08Z</time>
      </trkpt>
      <trkpt lat="46.78166" lon="5.61538">
        <ele>347.6</ele>
        <time>2021-03-28T13:22:14Z</time>
      </trkpt>
      <trkpt lat="46.78169" lon="5.61544">
        <ele>347.3</ele>
        <time>2021-03-28T13:22:19Z</time>
      </trkpt>
      <trkpt lat="46.78173" lon="5.61548">
        <ele>347.5</ele>
        <time>2021-03-28T13:22:23Z</time>
      </trkpt>
      <trkpt lat="46.78181" lon="5.61551">
        <ele>349.8</ele>
        <time>2021-03-28T13:22:27Z</time>
      </trkpt>
      <trkpt lat="46.78187" lon="5.61554">
        <ele>351.8</ele>
        <time>2021-03-28T13:22:31Z</time>
      </trkpt>
      <trkpt lat="46.78192" lon="5.61558">
        <ele>353.1</ele>
        <time>2021-03-28T13:22:36Z</time>
      </trkpt>
      <trkpt lat="46.78194" lon="5.61564">
        <ele>354.2</ele>
        <time>2021-03-28T13:22:43Z</time>
      </trkpt>
      <trkpt lat="46.78196" lon="5.61569">
        <ele>354.2</ele>
        <time>2021-03-28T13:22:50Z</time>
      </trkpt>
      <trkpt lat="46.782" lon="5.61575">
        <ele>353.5</ele>
        <time>2021-03-28T13:22:56Z</time>
      </trkpt>
      <trkpt lat="46.78203" lon="5.6158">
        <ele>352.5</ele>
        <time>2021-03-28T13:23:01Z</time>
      </trkpt>
      <trkpt lat="46.78206" lon="5.61586">
        <ele>351.3</ele>
        <time>2021-03-28T13:23:07Z</time>
      </trkpt>
      <trkpt lat="46.78209" lon="5.61591">
        <ele>349.9</ele>
        <time>2021-03-28T13:23:13Z</time>
      </trkpt>
      <trkpt lat="46.78213" lon="5.61597">
        <ele>348.7</ele>
        <time>2021-03-28T13:23:19Z</time>
      </trkpt>
      <trkpt lat="46.78217" lon="5.616">
        <ele>347.2</ele>
        <time>2021-03-28T13:23:25Z</time>
      </trkpt>
      <trkpt lat="46.78222" lon="5.61601">
        <ele>345.7</ele>
        <time>2021-03-28T13:23:31Z</time>
      </trkpt>
      <trkpt lat="46.78228" lon="5.61602">
        <ele>344.1</ele>
        <time>2021-03-28T13:23:36Z</time>
      </trkpt>
      <trkpt lat="46.78232" lon="5.61601">
        <ele>340.4</ele>
        <time>2021-03-28T13:23:43Z</time>
      </trkpt>
      <trkpt lat="46.78237" lon="5.61601">
        <ele>337.2</ele>
        <time>2021-03-28T13:23:49Z</time>
      </trkpt>
      <trkpt lat="46.78242" lon="5.61601">
        <ele>334.6</ele>
        <time>2021-03-28T13:23:55Z</time>
      </trkpt>
      <trkpt lat="46.78247" lon="5.61599">
        <ele>332.7</ele>
        <time>2021-03-28T13:24:03Z</time>
      </trkpt>
      <trkpt lat="46.78252" lon="5.61597">
        <ele>331.6</ele>
        <time>2021-03-28T13:24:09Z</time>
      </trkpt>
      <trkpt lat="46.78257" lon="5.61596">
        <ele>331.1</ele>
        <time>2021-03-28T13:24:14Z</time>
      </trkpt>
      <trkpt lat="46.78262" lon="5.61595">
        <ele>330.4</ele>
        <time>2021-03-28T13:24:18Z</time>
      </trkpt>
      <trkpt lat="46.78267" lon="5.61596">
        <ele>329.3</ele>
        <time>2021-03-28T13:24:23Z</time>
      </trkpt>
      <trkpt lat="46.78271" lon="5.61598">
        <ele>328.8</ele>
        <time>2021-03-28T13:24:27Z</time>
      </trkpt>
      <trkpt lat="46.78275" lon="5.61603">
        <ele>328.5</ele>
        <time>2021-03-28T13:24:33Z</time>
      </trkpt>
      <trkpt lat="46.78279" lon="5.61608">
        <ele>328.6</ele>
        <time>2021-03-28T13:24:38Z</time>
      </trkpt>
      <trkpt lat="46.78284" lon="5.61612">
        <ele>329.5</ele>
        <time>2021-03-28T13:24:42Z</time>
      </trkpt>
      <trkpt lat="46.7829" lon="5.61618">
        <ele>330.6</ele>
        <time>2021-03-28T13:24:46Z</time>
      </trkpt>
      <trkpt lat="46.78293" lon="5.61623">
        <ele>331.4</ele>
        <time>2021-03-28T13:24:50Z</time>
      </trkpt>
      <trkpt lat="46.78293" lon="5.6163">
        <ele>330.4</ele>
        <time>2021-03-28T13:24:58Z</time>
      </trkpt>
      <trkpt lat="46.78293" lon="5.61637">
        <ele>328.3</ele>
        <time>2021-03-28T13:25:16Z</time>
      </trkpt>
      <trkpt lat="46.78295" lon="5.61643">
        <ele>328.4</ele>
        <time>2021-03-28T13:25:23Z</time>
      </trkpt>
      <trkpt lat="46.78298" lon="5.61648">
        <ele>328.5</ele>
        <time>2021-03-28T13:25:28Z</time>
      </trkpt>
      <trkpt lat="46.78301" lon="5.61654">
        <ele>328.6</ele>
        <time>2021-03-28T13:25:33Z</time>
      </trkpt>
      <trkpt lat="46.78304" lon="5.61659">
        <ele>329.1</ele>
        <time>2021-03-28T13:25:38Z</time>
      </trkpt>
      <trkpt lat="46.78308" lon="5.61664">
        <ele>329.6</ele>
        <time>2021-03-28T13:25:42Z</time>
      </trkpt>
      <trkpt lat="46.78314" lon="5.61664">
        <ele>330.3</ele>
        <time>2021-03-28T13:25:46Z</time>
      </trkpt>
      <trkpt lat="46.78319" lon="5.61662">
        <ele>331.1</ele>
        <time>2021-03-28T13:25:51Z</time>
      </trkpt>
      <trkpt lat="46.78324" lon="5.61665">
        <ele>331</ele>
        <time>2021-03-28T13:25:59Z</time>
      </trkpt>
      <trkpt lat="46.78329" lon="5.61665">
        <ele>330.1</ele>
        <time>2021-03-28T13:26:07Z</time>
      </trkpt>
      <trkpt lat="46.78334" lon="5.61663">
        <ele>329.4</ele>
        <time>2021-03-28T13:26:12Z</time>
      </trkpt>
      <trkpt lat="46.78327" lon="5.61654">
        <ele>328.8</ele>
        <time>2021-03-28T13:26:16Z</time>
      </trkpt>
      <trkpt lat="46.78328" lon="5.61646">
        <ele>328.1</ele>
        <time>2021-03-28T13:26:20Z</time>
      </trkpt>
      <trkpt lat="46.78332" lon="5.61638">
        <ele>327.3</ele>
        <time>2021-03-28T13:26:24Z</time>
      </trkpt>
      <trkpt lat="46.78337" lon="5.61636">
        <ele>325.9</ele>
        <time>2021-03-28T13:26:32Z</time>
      </trkpt>
      <trkpt lat="46.78342" lon="5.61641">
        <ele>325.1</ele>
        <time>2021-03-28T13:27:22Z</time>
      </trkpt>
      <trkpt lat="46.78346" lon="5.61645">
        <ele>324.7</ele>
        <time>2021-03-28T13:27:29Z</time>
      </trkpt>
      <trkpt lat="46.78349" lon="5.6165">
        <ele>324.4</ele>
        <time>2021-03-28T13:27:35Z</time>
      </trkpt>
      <trkpt lat="46.78351" lon="5.61656">
        <ele>323.8</ele>
        <time>2021-03-28T13:27:42Z</time>
      </trkpt>
      <trkpt lat="46.78351" lon="5.61663">
        <ele>323</ele>
        <time>2021-03-28T13:28:28Z</time>
      </trkpt>
      <trkpt lat="46.78355" lon="5.61668">
        <ele>322.4</ele>
        <time>2021-03-28T13:28:34Z</time>
      </trkpt>
      <trkpt lat="46.78357" lon="5.61673">
        <ele>322.4</ele>
        <time>2021-03-28T13:28:39Z</time>
      </trkpt>
      <trkpt lat="46.78357" lon="5.6168">
        <ele>322.7</ele>
        <time>2021-03-28T13:28:44Z</time>
      </trkpt>
      <trkpt lat="46.78355" lon="5.61688">
        <ele>323</ele>
        <time>2021-03-28T13:28:49Z</time>
      </trkpt>
      <trkpt lat="46.78351" lon="5.61692">
        <ele>323.6</ele>
        <time>2021-03-28T13:28:53Z</time>
      </trkpt>
      <trkpt lat="46.78347" lon="5.61698">
        <ele>324.6</ele>
        <time>2021-03-28T13:28:57Z</time>
      </trkpt>
      <trkpt lat="46.78343" lon="5.61704">
        <ele>326.2</ele>
        <time>2021-03-28T13:29:01Z</time>
      </trkpt>
      <trkpt lat="46.78338" lon="5.61707">
        <ele>327.9</ele>
        <time>2021-03-28T13:29:06Z</time>
      </trkpt>
      <trkpt lat="46.78334" lon="5.61708">
        <ele>329.1</ele>
        <time>2021-03-28T13:29:10Z</time>
      </trkpt>
      <trkpt lat="46.78328" lon="5.6171">
        <ele>330.3</ele>
        <time>2021-03-28T13:29:14Z</time>
      </trkpt>
      <trkpt lat="46.78325" lon="5.61715">
        <ele>332</ele>
        <time>2021-03-28T13:29:20Z</time>
      </trkpt>
      <trkpt lat="46.78322" lon="5.61722">
        <ele>333.5</ele>
        <time>2021-03-28T13:29:25Z</time>
      </trkpt>
      <trkpt lat="46.78324" lon="5.61728">
        <ele>335.6</ele>
        <time>2021-03-28T13:29:33Z</time>
      </trkpt>
      <trkpt lat="46.78321" lon="5.61722">
        <ele>335</ele>
        <time>2021-03-28T13:30:17Z</time>
      </trkpt>
      <trkpt lat="46.78324" lon="5.61728">
        <ele>330.9</ele>
        <time>2021-03-28T13:30:52Z</time>
      </trkpt>
      <trkpt lat="46.78324" lon="5.61735">
        <ele>331.2</ele>
        <time>2021-03-28T13:30:58Z</time>
      </trkpt>
      <trkpt lat="46.78325" lon="5.61742">
        <ele>331.6</ele>
        <time>2021-03-28T13:31:03Z</time>
      </trkpt>
      <trkpt lat="46.78328" lon="5.61748">
        <ele>332.3</ele>
        <time>2021-03-28T13:31:08Z</time>
      </trkpt>
      <trkpt lat="46.78325" lon="5.61742">
        <ele>334.5</ele>
        <time>2021-03-28T13:31:34Z</time>
      </trkpt>
      <trkpt lat="46.78321" lon="5.61738">
        <ele>334.4</ele>
        <time>2021-03-28T13:31:39Z</time>
      </trkpt>
      <trkpt lat="46.78318" lon="5.61732">
        <ele>334.5</ele>
        <time>2021-03-28T13:31:45Z</time>
      </trkpt>
      <trkpt lat="46.78315" lon="5.61726">
        <ele>335.4</ele>
        <time>2021-03-28T13:31:52Z</time>
      </trkpt>
      <trkpt lat="46.78312" lon="5.61722">
        <ele>335.5</ele>
        <time>2021-03-28T13:31:58Z</time>
      </trkpt>
      <trkpt lat="46.78309" lon="5.61717">
        <ele>336</ele>
        <time>2021-03-28T13:32:03Z</time>
      </trkpt>
      <trkpt lat="46.78305" lon="5.61713">
        <ele>336.7</ele>
        <time>2021-03-28T13:32:09Z</time>
      </trkpt>
      <trkpt lat="46.78301" lon="5.6171">
        <ele>337.5</ele>
        <time>2021-03-28T13:32:14Z</time>
      </trkpt>
      <trkpt lat="46.78296" lon="5.61706">
        <ele>338.2</ele>
        <time>2021-03-28T13:32:19Z</time>
      </trkpt>
      <trkpt lat="46.78291" lon="5.61705">
        <ele>337.8</ele>
        <time>2021-03-28T13:32:28Z</time>
      </trkpt>
      <trkpt lat="46.78286" lon="5.61704">
        <ele>337.4</ele>
        <time>2021-03-28T13:32:33Z</time>
      </trkpt>
      <trkpt lat="46.78281" lon="5.61704">
        <ele>337</ele>
        <time>2021-03-28T13:32:38Z</time>
      </trkpt>
      <trkpt lat="46.78277" lon="5.61703">
        <ele>336.4</ele>
        <time>2021-03-28T13:32:43Z</time>
      </trkpt>
      <trkpt lat="46.78272" lon="5.61701">
        <ele>336.3</ele>
        <time>2021-03-28T13:32:48Z</time>
      </trkpt>
      <trkpt lat="46.78267" lon="5.61699">
        <ele>337.9</ele>
        <time>2021-03-28T13:32:54Z</time>
      </trkpt>
      <trkpt lat="46.78262" lon="5.61698">
        <ele>340.3</ele>
        <time>2021-03-28T13:33:20Z</time>
      </trkpt>
      <trkpt lat="46.78257" lon="5.61695">
        <ele>340.4</ele>
        <time>2021-03-28T13:33:27Z</time>
      </trkpt>
      <trkpt lat="46.78253" lon="5.61691">
        <ele>343.9</ele>
        <time>2021-03-28T13:33:40Z</time>
      </trkpt>
      <trkpt lat="46.78249" lon="5.61689">
        <ele>345.6</ele>
        <time>2021-03-28T13:33:45Z</time>
      </trkpt>
      <trkpt lat="46.78244" lon="5.61687">
        <ele>346.7</ele>
        <time>2021-03-28T13:33:49Z</time>
      </trkpt>
      <trkpt lat="46.7824" lon="5.61685">
        <ele>348.6</ele>
        <time>2021-03-28T13:33:53Z</time>
      </trkpt>
      <trkpt lat="46.78235" lon="5.61682">
        <ele>351.1</ele>
        <time>2021-03-28T13:33:59Z</time>
      </trkpt>
      <trkpt lat="46.78231" lon="5.6168">
        <ele>351.1</ele>
        <time>2021-03-28T13:34:03Z</time>
      </trkpt>
      <trkpt lat="46.78227" lon="5.61676">
        <ele>350.1</ele>
        <time>2021-03-28T13:34:08Z</time>
      </trkpt>
      <trkpt lat="46.78222" lon="5.61674">
        <ele>349</ele>
        <time>2021-03-28T13:34:14Z</time>
      </trkpt>
      <trkpt lat="46.78226" lon="5.61679">
        <ele>347.2</ele>
        <time>2021-03-28T13:34:30Z</time>
      </trkpt>
      <trkpt lat="46.78231" lon="5.61682">
        <ele>346.5</ele>
        <time>2021-03-28T13:34:34Z</time>
      </trkpt>
      <trkpt lat="46.78236" lon="5.61683">
        <ele>346</ele>
        <time>2021-03-28T13:34:41Z</time>
      </trkpt>
      <trkpt lat="46.7824" lon="5.61686">
        <ele>346.4</ele>
        <time>2021-03-28T13:34:45Z</time>
      </trkpt>
      <trkpt lat="46.78244" lon="5.61689">
        <ele>346.6</ele>
        <time>2021-03-28T13:34:49Z</time>
      </trkpt>
      <trkpt lat="46.78249" lon="5.61692">
        <ele>346.6</ele>
        <time>2021-03-28T13:34:53Z</time>
      </trkpt>
      <trkpt lat="46.78254" lon="5.61694">
        <ele>346.6</ele>
        <time>2021-03-28T13:34:57Z</time>
      </trkpt>
      <trkpt lat="46.78258" lon="5.61696">
        <ele>345.6</ele>
        <time>2021-03-28T13:35:02Z</time>
      </trkpt>
      <trkpt lat="46.78263" lon="5.61699">
        <ele>344.5</ele>
        <time>2021-03-28T13:35:08Z</time>
      </trkpt>
      <trkpt lat="46.78268" lon="5.61702">
        <ele>342.4</ele>
        <time>2021-03-28T13:35:15Z</time>
      </trkpt>
      <trkpt lat="46.78272" lon="5.61704">
        <ele>340.6</ele>
        <time>2021-03-28T13:35:20Z</time>
      </trkpt>
      <trkpt lat="46.78278" lon="5.61705">
        <ele>338.8</ele>
        <time>2021-03-28T13:35:25Z</time>
      </trkpt>
      <trkpt lat="46.78282" lon="5.61707">
        <ele>336.5</ele>
        <time>2021-03-28T13:35:32Z</time>
      </trkpt>
      <trkpt lat="46.78288" lon="5.61708">
        <ele>336.4</ele>
        <time>2021-03-28T13:35:37Z</time>
      </trkpt>
      <trkpt lat="46.78293" lon="5.61711">
        <ele>337.2</ele>
        <time>2021-03-28T13:35:41Z</time>
      </trkpt>
      <trkpt lat="46.78295" lon="5.61718">
        <ele>340.2</ele>
        <time>2021-03-28T13:35:47Z</time>
      </trkpt>
      <trkpt lat="46.78293" lon="5.61725">
        <ele>342.1</ele>
        <time>2021-03-28T13:35:54Z</time>
      </trkpt>
      <trkpt lat="46.78289" lon="5.61729">
        <ele>342.6</ele>
        <time>2021-03-28T13:35:59Z</time>
      </trkpt>
      <trkpt lat="46.78286" lon="5.61734">
        <ele>343.1</ele>
        <time>2021-03-28T13:36:04Z</time>
      </trkpt>
      <trkpt lat="46.78282" lon="5.61738">
        <ele>343.2</ele>
        <time>2021-03-28T13:36:10Z</time>
      </trkpt>
      <trkpt lat="46.78279" lon="5.61744">
        <ele>342.7</ele>
        <time>2021-03-28T13:36:16Z</time>
      </trkpt>
      <trkpt lat="46.78277" lon="5.61751">
        <ele>342.3</ele>
        <time>2021-03-28T13:36:21Z</time>
      </trkpt>
      <trkpt lat="46.78275" lon="5.61758">
        <ele>342.4</ele>
        <time>2021-03-28T13:36:26Z</time>
      </trkpt>
      <trkpt lat="46.78273" lon="5.61765">
        <ele>342.7</ele>
        <time>2021-03-28T13:36:32Z</time>
      </trkpt>
      <trkpt lat="46.78273" lon="5.61771">
        <ele>343</ele>
        <time>2021-03-28T13:36:38Z</time>
      </trkpt>
      <trkpt lat="46.78274" lon="5.61778">
        <ele>343.2</ele>
        <time>2021-03-28T13:36:43Z</time>
      </trkpt>
      <trkpt lat="46.78274" lon="5.61786">
        <ele>343.8</ele>
        <time>2021-03-28T13:36:49Z</time>
      </trkpt>
      <trkpt lat="46.78275" lon="5.61794">
        <ele>344.7</ele>
        <time>2021-03-28T13:36:54Z</time>
      </trkpt>
      <trkpt lat="46.78276" lon="5.61801">
        <ele>345.6</ele>
        <time>2021-03-28T13:36:58Z</time>
      </trkpt>
      <trkpt lat="46.78276" lon="5.61809">
        <ele>347.3</ele>
        <time>2021-03-28T13:37:03Z</time>
      </trkpt>
      <trkpt lat="46.78278" lon="5.61816">
        <ele>349.2</ele>
        <time>2021-03-28T13:37:08Z</time>
      </trkpt>
      <trkpt lat="46.78279" lon="5.61823">
        <ele>351.1</ele>
        <time>2021-03-28T13:37:13Z</time>
      </trkpt>
      <trkpt lat="46.7828" lon="5.6183">
        <ele>352.7</ele>
        <time>2021-03-28T13:37:18Z</time>
      </trkpt>
      <trkpt lat="46.78282" lon="5.61837">
        <ele>354.1</ele>
        <time>2021-03-28T13:37:22Z</time>
      </trkpt>
      <trkpt lat="46.78284" lon="5.61843">
        <ele>355.6</ele>
        <time>2021-03-28T13:37:27Z</time>
      </trkpt>
      <trkpt lat="46.78288" lon="5.61849">
        <ele>357</ele>
        <time>2021-03-28T13:37:32Z</time>
      </trkpt>
      <trkpt lat="46.7829" lon="5.61856">
        <ele>357.4</ele>
        <time>2021-03-28T13:37:37Z</time>
      </trkpt>
      <trkpt lat="46.7829" lon="5.61862">
        <ele>357</ele>
        <time>2021-03-28T13:37:42Z</time>
      </trkpt>
      <trkpt lat="46.78291" lon="5.6187">
        <ele>357.2</ele>
        <time>2021-03-28T13:37:49Z</time>
      </trkpt>
      <trkpt lat="46.78293" lon="5.61875">
        <ele>357.7</ele>
        <time>2021-03-28T13:37:54Z</time>
      </trkpt>
      <trkpt lat="46.78295" lon="5.61881">
        <ele>358.3</ele>
        <time>2021-03-28T13:37:59Z</time>
      </trkpt>
      <trkpt lat="46.78298" lon="5.61888">
        <ele>359</ele>
        <time>2021-03-28T13:38:04Z</time>
      </trkpt>
      <trkpt lat="46.783" lon="5.61894">
        <ele>359.4</ele>
        <time>2021-03-28T13:38:08Z</time>
      </trkpt>
      <trkpt lat="46.78302" lon="5.61901">
        <ele>359.7</ele>
        <time>2021-03-28T13:38:15Z</time>
      </trkpt>
      <trkpt lat="46.78303" lon="5.61908">
        <ele>359.1</ele>
        <time>2021-03-28T13:38:19Z</time>
      </trkpt>
      <trkpt lat="46.78303" lon="5.61915">
        <ele>358.1</ele>
        <time>2021-03-28T13:38:23Z</time>
      </trkpt>
      <trkpt lat="46.78305" lon="5.61921">
        <ele>356.7</ele>
        <time>2021-03-28T13:38:28Z</time>
      </trkpt>
      <trkpt lat="46.78305" lon="5.61928">
        <ele>355.4</ele>
        <time>2021-03-28T13:38:33Z</time>
      </trkpt>
      <trkpt lat="46.78306" lon="5.61936">
        <ele>353.9</ele>
        <time>2021-03-28T13:38:39Z</time>
      </trkpt>
      <trkpt lat="46.78307" lon="5.61943">
        <ele>353.1</ele>
        <time>2021-03-28T13:38:45Z</time>
      </trkpt>
      <trkpt lat="46.78306" lon="5.6195">
        <ele>353.4</ele>
        <time>2021-03-28T13:38:52Z</time>
      </trkpt>
      <trkpt lat="46.78307" lon="5.61957">
        <ele>353.9</ele>
        <time>2021-03-28T13:38:58Z</time>
      </trkpt>
      <trkpt lat="46.78308" lon="5.61965">
        <ele>354.2</ele>
        <time>2021-03-28T13:39:04Z</time>
      </trkpt>
      <trkpt lat="46.78308" lon="5.61972">
        <ele>354.7</ele>
        <time>2021-03-28T13:39:09Z</time>
      </trkpt>
      <trkpt lat="46.7831" lon="5.61979">
        <ele>356.3</ele>
        <time>2021-03-28T13:39:14Z</time>
      </trkpt>
      <trkpt lat="46.78313" lon="5.61985">
        <ele>357.8</ele>
        <time>2021-03-28T13:39:19Z</time>
      </trkpt>
      <trkpt lat="46.78314" lon="5.61991">
        <ele>359.6</ele>
        <time>2021-03-28T13:39:25Z</time>
      </trkpt>
      <trkpt lat="46.78316" lon="5.61999">
        <ele>361.7</ele>
        <time>2021-03-28T13:39:31Z</time>
      </trkpt>
      <trkpt lat="46.78317" lon="5.62005">
        <ele>363.3</ele>
        <time>2021-03-28T13:39:36Z</time>
      </trkpt>
      <trkpt lat="46.78319" lon="5.62013">
        <ele>364.9</ele>
        <time>2021-03-28T13:39:41Z</time>
      </trkpt>
      <trkpt lat="46.78321" lon="5.62019">
        <ele>365</ele>
        <time>2021-03-28T13:39:46Z</time>
      </trkpt>
      <trkpt lat="46.78321" lon="5.62026">
        <ele>364.3</ele>
        <time>2021-03-28T13:39:51Z</time>
      </trkpt>
      <trkpt lat="46.78322" lon="5.62033">
        <ele>363.9</ele>
        <time>2021-03-28T13:39:56Z</time>
      </trkpt>
      <trkpt lat="46.78324" lon="5.6204">
        <ele>364.3</ele>
        <time>2021-03-28T13:40:01Z</time>
      </trkpt>
      <trkpt lat="46.78325" lon="5.62047">
        <ele>366.2</ele>
        <time>2021-03-28T13:40:08Z</time>
      </trkpt>
      <trkpt lat="46.78326" lon="5.62055">
        <ele>368.3</ele>
        <time>2021-03-28T13:40:15Z</time>
      </trkpt>
      <trkpt lat="46.78329" lon="5.6206">
        <ele>370.1</ele>
        <time>2021-03-28T13:40:21Z</time>
      </trkpt>
      <trkpt lat="46.78331" lon="5.62067">
        <ele>371.9</ele>
        <time>2021-03-28T13:40:27Z</time>
      </trkpt>
      <trkpt lat="46.78333" lon="5.62074">
        <ele>373.7</ele>
        <time>2021-03-28T13:40:33Z</time>
      </trkpt>
      <trkpt lat="46.78334" lon="5.62081">
        <ele>375.1</ele>
        <time>2021-03-28T13:40:38Z</time>
      </trkpt>
      <trkpt lat="46.78335" lon="5.62087">
        <ele>376.4</ele>
        <time>2021-03-28T13:40:43Z</time>
      </trkpt>
      <trkpt lat="46.78335" lon="5.62094">
        <ele>377.1</ele>
        <time>2021-03-28T13:40:48Z</time>
      </trkpt>
      <trkpt lat="46.78337" lon="5.62101">
        <ele>377.7</ele>
        <time>2021-03-28T13:40:55Z</time>
      </trkpt>
      <trkpt lat="46.78339" lon="5.62107">
        <ele>377.8</ele>
        <time>2021-03-28T13:40:59Z</time>
      </trkpt>
      <trkpt lat="46.78338" lon="5.62114">
        <ele>376.3</ele>
        <time>2021-03-28T13:41:11Z</time>
      </trkpt>
      <trkpt lat="46.7834" lon="5.62121">
        <ele>375.9</ele>
        <time>2021-03-28T13:41:17Z</time>
      </trkpt>
      <trkpt lat="46.78342" lon="5.62127">
        <ele>375.3</ele>
        <time>2021-03-28T13:41:21Z</time>
      </trkpt>
      <trkpt lat="46.78345" lon="5.62134">
        <ele>374.5</ele>
        <time>2021-03-28T13:41:26Z</time>
      </trkpt>
      <trkpt lat="46.78349" lon="5.62139">
        <ele>374.1</ele>
        <time>2021-03-28T13:41:30Z</time>
      </trkpt>
      <trkpt lat="46.78351" lon="5.62145">
        <ele>374.1</ele>
        <time>2021-03-28T13:41:35Z</time>
      </trkpt>
      <trkpt lat="46.78354" lon="5.6215">
        <ele>374.2</ele>
        <time>2021-03-28T13:41:39Z</time>
      </trkpt>
      <trkpt lat="46.78358" lon="5.62156">
        <ele>374.1</ele>
        <time>2021-03-28T13:41:44Z</time>
      </trkpt>
      <trkpt lat="46.78361" lon="5.6216">
        <ele>374.1</ele>
        <time>2021-03-28T13:41:49Z</time>
      </trkpt>
      <trkpt lat="46.78365" lon="5.62165">
        <ele>374.1</ele>
        <time>2021-03-28T13:41:54Z</time>
      </trkpt>
      <trkpt lat="46.78369" lon="5.62168">
        <ele>374.3</ele>
        <time>2021-03-28T13:41:59Z</time>
      </trkpt>
      <trkpt lat="46.78372" lon="5.62173">
        <ele>374.7</ele>
        <time>2021-03-28T13:42:04Z</time>
      </trkpt>
      <trkpt lat="46.78376" lon="5.62178">
        <ele>375.1</ele>
        <time>2021-03-28T13:42:08Z</time>
      </trkpt>
      <trkpt lat="46.78379" lon="5.62183">
        <ele>375.6</ele>
        <time>2021-03-28T13:42:13Z</time>
      </trkpt>
      <trkpt lat="46.78383" lon="5.62188">
        <ele>375.8</ele>
        <time>2021-03-28T13:42:18Z</time>
      </trkpt>
      <trkpt lat="46.78387" lon="5.62193">
        <ele>376</ele>
        <time>2021-03-28T13:42:24Z</time>
      </trkpt>
      <trkpt lat="46.78391" lon="5.62196">
        <ele>376.2</ele>
        <time>2021-03-28T13:42:30Z</time>
      </trkpt>
      <trkpt lat="46.78395" lon="5.62199">
        <ele>376.4</ele>
        <time>2021-03-28T13:42:35Z</time>
      </trkpt>
      <trkpt lat="46.78399" lon="5.62202">
        <ele>376.8</ele>
        <time>2021-03-28T13:42:40Z</time>
      </trkpt>
      <trkpt lat="46.78404" lon="5.62203">
        <ele>377.1</ele>
        <time>2021-03-28T13:42:45Z</time>
      </trkpt>
      <trkpt lat="46.78408" lon="5.62204">
        <ele>377.3</ele>
        <time>2021-03-28T13:42:50Z</time>
      </trkpt>
      <trkpt lat="46.78413" lon="5.62206">
        <ele>377.8</ele>
        <time>2021-03-28T13:42:55Z</time>
      </trkpt>
      <trkpt lat="46.78418" lon="5.62207">
        <ele>378.7</ele>
        <time>2021-03-28T13:43:00Z</time>
      </trkpt>
      <trkpt lat="46.78423" lon="5.62209">
        <ele>380.1</ele>
        <time>2021-03-28T13:43:08Z</time>
      </trkpt>
      <trkpt lat="46.78427" lon="5.62211">
        <ele>380.9</ele>
        <time>2021-03-28T13:43:12Z</time>
      </trkpt>
      <trkpt lat="46.78433" lon="5.62214">
        <ele>381.5</ele>
        <time>2021-03-28T13:43:16Z</time>
      </trkpt>
      <trkpt lat="46.78437" lon="5.62216">
        <ele>382.2</ele>
        <time>2021-03-28T13:43:21Z</time>
      </trkpt>
      <trkpt lat="46.78442" lon="5.62218">
        <ele>383</ele>
        <time>2021-03-28T13:43:26Z</time>
      </trkpt>
      <trkpt lat="46.78446" lon="5.62222">
        <ele>383.9</ele>
        <time>2021-03-28T13:43:31Z</time>
      </trkpt>
      <trkpt lat="46.7845" lon="5.62227">
        <ele>384.5</ele>
        <time>2021-03-28T13:43:36Z</time>
      </trkpt>
      <trkpt lat="46.78454" lon="5.62232">
        <ele>384.6</ele>
        <time>2021-03-28T13:43:40Z</time>
      </trkpt>
      <trkpt lat="46.78459" lon="5.62239">
        <ele>385.2</ele>
        <time>2021-03-28T13:43:44Z</time>
      </trkpt>
      <trkpt lat="46.7846" lon="5.62246">
        <ele>385.9</ele>
        <time>2021-03-28T13:43:51Z</time>
      </trkpt>
      <trkpt lat="46.78463" lon="5.62251">
        <ele>386.9</ele>
        <time>2021-03-28T13:43:56Z</time>
      </trkpt>
      <trkpt lat="46.78467" lon="5.62255">
        <ele>387.6</ele>
        <time>2021-03-28T13:44:02Z</time>
      </trkpt>
      <trkpt lat="46.7847" lon="5.6226">
        <ele>388.2</ele>
        <time>2021-03-28T13:44:13Z</time>
      </trkpt>
      <trkpt lat="46.78475" lon="5.62261">
        <ele>387.4</ele>
        <time>2021-03-28T13:44:22Z</time>
      </trkpt>
      <trkpt lat="46.7848" lon="5.62259">
        <ele>387.3</ele>
        <time>2021-03-28T13:44:26Z</time>
      </trkpt>
      <trkpt lat="46.78485" lon="5.62257">
        <ele>387.9</ele>
        <time>2021-03-28T13:44:33Z</time>
      </trkpt>
      <trkpt lat="46.78489" lon="5.62262">
        <ele>387.8</ele>
        <time>2021-03-28T13:44:41Z</time>
      </trkpt>
      <trkpt lat="46.78492" lon="5.62266">
        <ele>387.9</ele>
        <time>2021-03-28T13:44:45Z</time>
      </trkpt>
      <trkpt lat="46.78496" lon="5.6227">
        <ele>388.3</ele>
        <time>2021-03-28T13:44:50Z</time>
      </trkpt>
      <trkpt lat="46.78493" lon="5.62265">
        <ele>387.7</ele>
        <time>2021-03-28T13:45:01Z</time>
      </trkpt>
      <trkpt lat="46.78497" lon="5.62268">
        <ele>388.2</ele>
        <time>2021-03-28T13:45:28Z</time>
      </trkpt>
      <trkpt lat="46.785" lon="5.62276">
        <ele>389.6</ele>
        <time>2021-03-28T13:45:50Z</time>
      </trkpt>
      <trkpt lat="46.78504" lon="5.62279">
        <ele>390</ele>
        <time>2021-03-28T13:45:58Z</time>
      </trkpt>
      <trkpt lat="46.78501" lon="5.62274">
        <ele>392.1</ele>
        <time>2021-03-28T13:46:26Z</time>
      </trkpt>
      <trkpt lat="46.78506" lon="5.62274">
        <ele>392.7</ele>
        <time>2021-03-28T13:46:51Z</time>
      </trkpt>
      <trkpt lat="46.78509" lon="5.62269">
        <ele>396.1</ele>
        <time>2021-03-28T13:47:09Z</time>
      </trkpt>
      <trkpt lat="46.78512" lon="5.62263">
        <ele>397.2</ele>
        <time>2021-03-28T13:47:22Z</time>
      </trkpt>
      <trkpt lat="46.7851" lon="5.62257">
        <ele>397.6</ele>
        <time>2021-03-28T13:47:41Z</time>
      </trkpt>
      <trkpt lat="46.78508" lon="5.6225">
        <ele>396.9</ele>
        <time>2021-03-28T13:48:04Z</time>
      </trkpt>
      <trkpt lat="46.78511" lon="5.62244">
        <ele>397.4</ele>
        <time>2021-03-28T13:48:14Z</time>
      </trkpt>
      <trkpt lat="46.78514" lon="5.62238">
        <ele>398.4</ele>
        <time>2021-03-28T13:48:21Z</time>
      </trkpt>
      <trkpt lat="46.78517" lon="5.62233">
        <ele>399.3</ele>
        <time>2021-03-28T13:48:27Z</time>
      </trkpt>
      <trkpt lat="46.78521" lon="5.62229">
        <ele>400.4</ele>
        <time>2021-03-28T13:48:34Z</time>
      </trkpt>
      <trkpt lat="46.78523" lon="5.62222">
        <ele>401.1</ele>
        <time>2021-03-28T13:48:40Z</time>
      </trkpt>
      <trkpt lat="46.78524" lon="5.62216">
        <ele>401.9</ele>
        <time>2021-03-28T13:48:45Z</time>
      </trkpt>
      <trkpt lat="46.78526" lon="5.6221">
        <ele>402.9</ele>
        <time>2021-03-28T13:48:50Z</time>
      </trkpt>
      <trkpt lat="46.78529" lon="5.62205">
        <ele>403.3</ele>
        <time>2021-03-28T13:49:05Z</time>
      </trkpt>
      <trkpt lat="46.78533" lon="5.62209">
        <ele>397</ele>
        <time>2021-03-28T13:49:36Z</time>
      </trkpt>
      <trkpt lat="46.7853" lon="5.62205">
        <ele>400.8</ele>
        <time>2021-03-28T13:50:21Z</time>
      </trkpt>
      <trkpt lat="46.78531" lon="5.62197">
        <ele>405.1</ele>
        <time>2021-03-28T13:50:47Z</time>
      </trkpt>
      <trkpt lat="46.78533" lon="5.62189">
        <ele>405.5</ele>
        <time>2021-03-28T13:50:51Z</time>
      </trkpt>
      <trkpt lat="46.78534" lon="5.62181">
        <ele>405.5</ele>
        <time>2021-03-28T13:50:55Z</time>
      </trkpt>
      <trkpt lat="46.7853" lon="5.62169">
        <ele>405.8</ele>
        <time>2021-03-28T13:50:59Z</time>
      </trkpt>
      <trkpt lat="46.78529" lon="5.62162">
        <ele>406.3</ele>
        <time>2021-03-28T13:51:04Z</time>
      </trkpt>
      <trkpt lat="46.78532" lon="5.62155">
        <ele>407.7</ele>
        <time>2021-03-28T13:51:12Z</time>
      </trkpt>
      <trkpt lat="46.78534" lon="5.62149">
        <ele>408.6</ele>
        <time>2021-03-28T13:51:16Z</time>
      </trkpt>
      <trkpt lat="46.78536" lon="5.62142">
        <ele>409.5</ele>
        <time>2021-03-28T13:51:21Z</time>
      </trkpt>
      <trkpt lat="46.78539" lon="5.62136">
        <ele>410.6</ele>
        <time>2021-03-28T13:51:26Z</time>
      </trkpt>
      <trkpt lat="46.7854" lon="5.62129">
        <ele>411.8</ele>
        <time>2021-03-28T13:51:32Z</time>
      </trkpt>
      <trkpt lat="46.78542" lon="5.62122">
        <ele>413.4</ele>
        <time>2021-03-28T13:51:45Z</time>
      </trkpt>
      <trkpt lat="46.78544" lon="5.62115">
        <ele>413</ele>
        <time>2021-03-28T13:51:50Z</time>
      </trkpt>
      <trkpt lat="46.78546" lon="5.62108">
        <ele>412.7</ele>
        <time>2021-03-28T13:51:55Z</time>
      </trkpt>
      <trkpt lat="46.78549" lon="5.62103">
        <ele>412.8</ele>
        <time>2021-03-28T13:52:04Z</time>
      </trkpt>
      <trkpt lat="46.78551" lon="5.62096">
        <ele>412.8</ele>
        <time>2021-03-28T13:52:11Z</time>
      </trkpt>
      <trkpt lat="46.78554" lon="5.6209">
        <ele>412.3</ele>
        <time>2021-03-28T13:52:16Z</time>
      </trkpt>
      <trkpt lat="46.78556" lon="5.62084">
        <ele>411.6</ele>
        <time>2021-03-28T13:52:20Z</time>
      </trkpt>
      <trkpt lat="46.78558" lon="5.62077">
        <ele>411</ele>
        <time>2021-03-28T13:52:25Z</time>
      </trkpt>
      <trkpt lat="46.7856" lon="5.6207">
        <ele>410.8</ele>
        <time>2021-03-28T13:52:30Z</time>
      </trkpt>
      <trkpt lat="46.78562" lon="5.62064">
        <ele>410.8</ele>
        <time>2021-03-28T13:52:35Z</time>
      </trkpt>
      <trkpt lat="46.78562" lon="5.62057">
        <ele>411.1</ele>
        <time>2021-03-28T13:52:39Z</time>
      </trkpt>
      <trkpt lat="46.78564" lon="5.62049">
        <ele>411.3</ele>
        <time>2021-03-28T13:52:44Z</time>
      </trkpt>
      <trkpt lat="46.78567" lon="5.62043">
        <ele>411.9</ele>
        <time>2021-03-28T13:52:49Z</time>
      </trkpt>
      <trkpt lat="46.78569" lon="5.62036">
        <ele>412.5</ele>
        <time>2021-03-28T13:52:54Z</time>
      </trkpt>
      <trkpt lat="46.78572" lon="5.6203">
        <ele>413.2</ele>
        <time>2021-03-28T13:53:00Z</time>
      </trkpt>
      <trkpt lat="46.78571" lon="5.62023">
        <ele>413.8</ele>
        <time>2021-03-28T13:53:05Z</time>
      </trkpt>
      <trkpt lat="46.78575" lon="5.62027">
        <ele>415.1</ele>
        <time>2021-03-28T13:53:29Z</time>
      </trkpt>
      <trkpt lat="46.78579" lon="5.62026">
        <ele>415.5</ele>
        <time>2021-03-28T13:53:37Z</time>
      </trkpt>
      <trkpt lat="46.78583" lon="5.62021">
        <ele>415.7</ele>
        <time>2021-03-28T13:53:43Z</time>
      </trkpt>
      <trkpt lat="46.78587" lon="5.62017">
        <ele>416</ele>
        <time>2021-03-28T13:53:48Z</time>
      </trkpt>
      <trkpt lat="46.78591" lon="5.62014">
        <ele>417.1</ele>
        <time>2021-03-28T13:53:58Z</time>
      </trkpt>
      <trkpt lat="46.78595" lon="5.62012">
        <ele>417.9</ele>
        <time>2021-03-28T13:54:07Z</time>
      </trkpt>
      <trkpt lat="46.786" lon="5.62011">
        <ele>417.1</ele>
        <time>2021-03-28T13:54:19Z</time>
      </trkpt>
      <trkpt lat="46.78609" lon="5.62015">
        <ele>414.3</ele>
        <time>2021-03-28T13:54:23Z</time>
      </trkpt>
      <trkpt lat="46.78614" lon="5.62018">
        <ele>411.5</ele>
        <time>2021-03-28T13:54:27Z</time>
      </trkpt>
      <trkpt lat="46.78619" lon="5.62015">
        <ele>408.3</ele>
        <time>2021-03-28T13:54:33Z</time>
      </trkpt>
      <trkpt lat="46.78624" lon="5.62015">
        <ele>405.3</ele>
        <time>2021-03-28T13:54:41Z</time>
      </trkpt>
      <trkpt lat="46.78628" lon="5.6201">
        <ele>403.4</ele>
        <time>2021-03-28T13:54:47Z</time>
      </trkpt>
      <trkpt lat="46.78631" lon="5.62005">
        <ele>401.5</ele>
        <time>2021-03-28T13:55:00Z</time>
      </trkpt>
      <trkpt lat="46.78637" lon="5.61994">
        <ele>405.2</ele>
        <time>2021-03-28T13:55:04Z</time>
      </trkpt>
      <trkpt lat="46.78642" lon="5.61989">
        <ele>408.4</ele>
        <time>2021-03-28T13:55:08Z</time>
      </trkpt>
      <trkpt lat="46.78646" lon="5.61985">
        <ele>411.2</ele>
        <time>2021-03-28T13:55:15Z</time>
      </trkpt>
      <trkpt lat="46.78649" lon="5.6198">
        <ele>412.8</ele>
        <time>2021-03-28T13:55:24Z</time>
      </trkpt>
      <trkpt lat="46.78651" lon="5.61986">
        <ele>413.7</ele>
        <time>2021-03-28T13:56:00Z</time>
      </trkpt>
      <trkpt lat="46.78654" lon="5.61992">
        <ele>413.8</ele>
        <time>2021-03-28T13:56:05Z</time>
      </trkpt>
      <trkpt lat="46.78656" lon="5.61998">
        <ele>413.9</ele>
        <time>2021-03-28T13:56:09Z</time>
      </trkpt>
      <trkpt lat="46.78658" lon="5.62004">
        <ele>414.1</ele>
        <time>2021-03-28T13:56:13Z</time>
      </trkpt>
      <trkpt lat="46.7866" lon="5.62011">
        <ele>413.9</ele>
        <time>2021-03-28T13:56:18Z</time>
      </trkpt>
      <trkpt lat="46.78663" lon="5.62018">
        <ele>413.6</ele>
        <time>2021-03-28T13:56:22Z</time>
      </trkpt>
      <trkpt lat="46.78665" lon="5.62025">
        <ele>413.4</ele>
        <time>2021-03-28T13:56:26Z</time>
      </trkpt>
      <trkpt lat="46.78668" lon="5.62032">
        <ele>413.3</ele>
        <time>2021-03-28T13:56:31Z</time>
      </trkpt>
      <trkpt lat="46.78676" lon="5.62035">
        <ele>416.8</ele>
        <time>2021-03-28T13:56:35Z</time>
      </trkpt>
      <trkpt lat="46.78681" lon="5.6204">
        <ele>419.7</ele>
        <time>2021-03-28T13:56:39Z</time>
      </trkpt>
      <trkpt lat="46.78682" lon="5.62047">
        <ele>421.9</ele>
        <time>2021-03-28T13:56:44Z</time>
      </trkpt>
      <trkpt lat="46.78685" lon="5.62053">
        <ele>423.3</ele>
        <time>2021-03-28T13:56:50Z</time>
      </trkpt>
      <trkpt lat="46.78688" lon="5.62059">
        <ele>424</ele>
        <time>2021-03-28T13:56:55Z</time>
      </trkpt>
      <trkpt lat="46.78691" lon="5.62065">
        <ele>424.4</ele>
        <time>2021-03-28T13:57:00Z</time>
      </trkpt>
      <trkpt lat="46.78693" lon="5.62071">
        <ele>424.5</ele>
        <time>2021-03-28T13:57:05Z</time>
      </trkpt>
      <trkpt lat="46.78695" lon="5.62077">
        <ele>424</ele>
        <time>2021-03-28T13:57:22Z</time>
      </trkpt>
      <trkpt lat="46.78699" lon="5.62082">
        <ele>423.7</ele>
        <time>2021-03-28T13:57:28Z</time>
      </trkpt>
      <trkpt lat="46.78702" lon="5.62087">
        <ele>424.3</ele>
        <time>2021-03-28T13:57:32Z</time>
      </trkpt>
      <trkpt lat="46.78705" lon="5.62093">
        <ele>425.5</ele>
        <time>2021-03-28T13:57:37Z</time>
      </trkpt>
      <trkpt lat="46.78707" lon="5.62101">
        <ele>426.5</ele>
        <time>2021-03-28T13:57:43Z</time>
      </trkpt>
      <trkpt lat="46.78709" lon="5.62107">
        <ele>427.3</ele>
        <time>2021-03-28T13:57:49Z</time>
      </trkpt>
      <trkpt lat="46.78709" lon="5.62114">
        <ele>427.2</ele>
        <time>2021-03-28T13:57:56Z</time>
      </trkpt>
      <trkpt lat="46.78711" lon="5.62121">
        <ele>427.2</ele>
        <time>2021-03-28T13:58:03Z</time>
      </trkpt>
      <trkpt lat="46.78716" lon="5.62126">
        <ele>427.9</ele>
        <time>2021-03-28T13:58:10Z</time>
      </trkpt>
      <trkpt lat="46.78719" lon="5.6213">
        <ele>428.6</ele>
        <time>2021-03-28T13:58:16Z</time>
      </trkpt>
      <trkpt lat="46.78722" lon="5.62136">
        <ele>429.1</ele>
        <time>2021-03-28T13:58:21Z</time>
      </trkpt>
      <trkpt lat="46.78726" lon="5.62142">
        <ele>430.1</ele>
        <time>2021-03-28T13:58:27Z</time>
      </trkpt>
      <trkpt lat="46.78729" lon="5.62146">
        <ele>431</ele>
        <time>2021-03-28T13:58:32Z</time>
      </trkpt>
      <trkpt lat="46.78733" lon="5.62151">
        <ele>432</ele>
        <time>2021-03-28T13:58:37Z</time>
      </trkpt>
      <trkpt lat="46.78736" lon="5.62157">
        <ele>433.1</ele>
        <time>2021-03-28T13:58:43Z</time>
      </trkpt>
      <trkpt lat="46.78739" lon="5.62163">
        <ele>434.4</ele>
        <time>2021-03-28T13:58:50Z</time>
      </trkpt>
      <trkpt lat="46.78742" lon="5.62168">
        <ele>436.2</ele>
        <time>2021-03-28T13:58:59Z</time>
      </trkpt>
      <trkpt lat="46.78744" lon="5.62175">
        <ele>436.9</ele>
        <time>2021-03-28T13:59:04Z</time>
      </trkpt>
      <trkpt lat="46.78746" lon="5.62181">
        <ele>437.2</ele>
        <time>2021-03-28T13:59:09Z</time>
      </trkpt>
      <trkpt lat="46.78746" lon="5.62188">
        <ele>436.1</ele>
        <time>2021-03-28T13:59:16Z</time>
      </trkpt>
      <trkpt lat="46.78749" lon="5.62194">
        <ele>434.9</ele>
        <time>2021-03-28T13:59:22Z</time>
      </trkpt>
      <trkpt lat="46.78753" lon="5.622">
        <ele>433.7</ele>
        <time>2021-03-28T13:59:28Z</time>
      </trkpt>
      <trkpt lat="46.78758" lon="5.62203">
        <ele>432.7</ele>
        <time>2021-03-28T13:59:36Z</time>
      </trkpt>
      <trkpt lat="46.78763" lon="5.62206">
        <ele>433.4</ele>
        <time>2021-03-28T13:59:40Z</time>
      </trkpt>
      <trkpt lat="46.78759" lon="5.62209">
        <ele>433.4</ele>
        <time>2021-03-28T14:00:31Z</time>
      </trkpt>
      <trkpt lat="46.78759" lon="5.62216">
        <ele>433.4</ele>
        <time>2021-03-28T14:00:47Z</time>
      </trkpt>
      <trkpt lat="46.78763" lon="5.6222">
        <ele>435.4</ele>
        <time>2021-03-28T14:01:04Z</time>
      </trkpt>
      <trkpt lat="46.78768" lon="5.62221">
        <ele>436</ele>
        <time>2021-03-28T14:01:12Z</time>
      </trkpt>
      <trkpt lat="46.78772" lon="5.62225">
        <ele>436.5</ele>
        <time>2021-03-28T14:01:16Z</time>
      </trkpt>
      <trkpt lat="46.78777" lon="5.62228">
        <ele>437.7</ele>
        <time>2021-03-28T14:01:20Z</time>
      </trkpt>
      <trkpt lat="46.78782" lon="5.62228">
        <ele>438.8</ele>
        <time>2021-03-28T14:01:24Z</time>
      </trkpt>
      <trkpt lat="46.78787" lon="5.62227">
        <ele>439.7</ele>
        <time>2021-03-28T14:01:29Z</time>
      </trkpt>
      <trkpt lat="46.78792" lon="5.6223">
        <ele>440.4</ele>
        <time>2021-03-28T14:01:34Z</time>
      </trkpt>
      <trkpt lat="46.78796" lon="5.62235">
        <ele>440.7</ele>
        <time>2021-03-28T14:01:39Z</time>
      </trkpt>
      <trkpt lat="46.788" lon="5.62238">
        <ele>440.8</ele>
        <time>2021-03-28T14:01:43Z</time>
      </trkpt>
      <trkpt lat="46.78805" lon="5.62242">
        <ele>441.5</ele>
        <time>2021-03-28T14:01:50Z</time>
      </trkpt>
      <trkpt lat="46.78809" lon="5.62245">
        <ele>443.7</ele>
        <time>2021-03-28T14:01:56Z</time>
      </trkpt>
      <trkpt lat="46.78813" lon="5.6225">
        <ele>445</ele>
        <time>2021-03-28T14:02:02Z</time>
      </trkpt>
      <trkpt lat="46.78817" lon="5.62256">
        <ele>445.7</ele>
        <time>2021-03-28T14:02:07Z</time>
      </trkpt>
      <trkpt lat="46.78821" lon="5.6226">
        <ele>446.2</ele>
        <time>2021-03-28T14:02:11Z</time>
      </trkpt>
      <trkpt lat="46.78826" lon="5.62261">
        <ele>446.6</ele>
        <time>2021-03-28T14:02:15Z</time>
      </trkpt>
      <trkpt lat="46.78831" lon="5.62263">
        <ele>447.5</ele>
        <time>2021-03-28T14:02:19Z</time>
      </trkpt>
      <trkpt lat="46.78835" lon="5.62267">
        <ele>448.7</ele>
        <time>2021-03-28T14:02:24Z</time>
      </trkpt>
      <trkpt lat="46.78838" lon="5.62272">
        <ele>450.7</ele>
        <time>2021-03-28T14:02:31Z</time>
      </trkpt>
      <trkpt lat="46.78842" lon="5.62275">
        <ele>451.3</ele>
        <time>2021-03-28T14:02:37Z</time>
      </trkpt>
      <trkpt lat="46.78847" lon="5.62274">
        <ele>451.8</ele>
        <time>2021-03-28T14:02:44Z</time>
      </trkpt>
      <trkpt lat="46.78851" lon="5.62279">
        <ele>451.3</ele>
        <time>2021-03-28T14:03:01Z</time>
      </trkpt>
      <trkpt lat="46.78855" lon="5.62283">
        <ele>450.8</ele>
        <time>2021-03-28T14:03:07Z</time>
      </trkpt>
      <trkpt lat="46.78858" lon="5.62288">
        <ele>450.1</ele>
        <time>2021-03-28T14:03:14Z</time>
      </trkpt>
      <trkpt lat="46.78861" lon="5.62294">
        <ele>449.1</ele>
        <time>2021-03-28T14:03:21Z</time>
      </trkpt>
      <trkpt lat="46.78865" lon="5.62299">
        <ele>448</ele>
        <time>2021-03-28T14:03:27Z</time>
      </trkpt>
      <trkpt lat="46.78869" lon="5.62304">
        <ele>447.3</ele>
        <time>2021-03-28T14:03:34Z</time>
      </trkpt>
      <trkpt lat="46.78872" lon="5.62311">
        <ele>446.6</ele>
        <time>2021-03-28T14:03:41Z</time>
      </trkpt>
      <trkpt lat="46.78875" lon="5.62316">
        <ele>446.1</ele>
        <time>2021-03-28T14:03:48Z</time>
      </trkpt>
      <trkpt lat="46.78879" lon="5.62319">
        <ele>445.9</ele>
        <time>2021-03-28T14:03:53Z</time>
      </trkpt>
      <trkpt lat="46.78884" lon="5.62323">
        <ele>445.8</ele>
        <time>2021-03-28T14:03:58Z</time>
      </trkpt>
      <trkpt lat="46.78886" lon="5.62328">
        <ele>445.6</ele>
        <time>2021-03-28T14:04:05Z</time>
      </trkpt>
      <trkpt lat="46.78885" lon="5.62334">
        <ele>445.6</ele>
        <time>2021-03-28T14:04:13Z</time>
      </trkpt>
      <trkpt lat="46.7889" lon="5.62333">
        <ele>445.6</ele>
        <time>2021-03-28T14:04:20Z</time>
      </trkpt>
      <trkpt lat="46.78895" lon="5.62336">
        <ele>445.5</ele>
        <time>2021-03-28T14:04:26Z</time>
      </trkpt>
      <trkpt lat="46.78898" lon="5.62341">
        <ele>446.2</ele>
        <time>2021-03-28T14:04:33Z</time>
      </trkpt>
      <trkpt lat="46.78901" lon="5.62346">
        <ele>447.2</ele>
        <time>2021-03-28T14:04:39Z</time>
      </trkpt>
      <trkpt lat="46.78905" lon="5.62349">
        <ele>448.7</ele>
        <time>2021-03-28T14:04:47Z</time>
      </trkpt>
      <trkpt lat="46.7891" lon="5.62353">
        <ele>452.3</ele>
        <time>2021-03-28T14:05:11Z</time>
      </trkpt>
      <trkpt lat="46.78911" lon="5.62361">
        <ele>456.4</ele>
        <time>2021-03-28T14:05:27Z</time>
      </trkpt>
      <trkpt lat="46.7891" lon="5.62368">
        <ele>457</ele>
        <time>2021-03-28T14:05:33Z</time>
      </trkpt>
      <trkpt lat="46.78906" lon="5.62373">
        <ele>456.3</ele>
        <time>2021-03-28T14:05:45Z</time>
      </trkpt>
      <trkpt lat="46.78902" lon="5.62376">
        <ele>455.9</ele>
        <time>2021-03-28T14:05:51Z</time>
      </trkpt>
      <trkpt lat="46.789" lon="5.62382">
        <ele>455.6</ele>
        <time>2021-03-28T14:05:57Z</time>
      </trkpt>
      <trkpt lat="46.78898" lon="5.62388">
        <ele>455.1</ele>
        <time>2021-03-28T14:06:03Z</time>
      </trkpt>
      <trkpt lat="46.78896" lon="5.62394">
        <ele>454.5</ele>
        <time>2021-03-28T14:06:09Z</time>
      </trkpt>
      <trkpt lat="46.78892" lon="5.62397">
        <ele>454.1</ele>
        <time>2021-03-28T14:06:14Z</time>
      </trkpt>
      <trkpt lat="46.78888" lon="5.62401">
        <ele>453.5</ele>
        <time>2021-03-28T14:06:19Z</time>
      </trkpt>
      <trkpt lat="46.78884" lon="5.62405">
        <ele>453.1</ele>
        <time>2021-03-28T14:06:24Z</time>
      </trkpt>
      <trkpt lat="46.78879" lon="5.62406">
        <ele>453</ele>
        <time>2021-03-28T14:06:28Z</time>
      </trkpt>
      <trkpt lat="46.78874" lon="5.62408">
        <ele>452.8</ele>
        <time>2021-03-28T14:06:33Z</time>
      </trkpt>
      <trkpt lat="46.7887" lon="5.62411">
        <ele>452.6</ele>
        <time>2021-03-28T14:06:38Z</time>
      </trkpt>
      <trkpt lat="46.78866" lon="5.62416">
        <ele>452.4</ele>
        <time>2021-03-28T14:06:45Z</time>
      </trkpt>
      <trkpt lat="46.78862" lon="5.6242">
        <ele>452.4</ele>
        <time>2021-03-28T14:06:50Z</time>
      </trkpt>
      <trkpt lat="46.78857" lon="5.62422">
        <ele>452.4</ele>
        <time>2021-03-28T14:06:56Z</time>
      </trkpt>
      <trkpt lat="46.78853" lon="5.62424">
        <ele>452.4</ele>
        <time>2021-03-28T14:07:01Z</time>
      </trkpt>
      <trkpt lat="46.78848" lon="5.62427">
        <ele>450.7</ele>
        <time>2021-03-28T14:07:09Z</time>
      </trkpt>
      <trkpt lat="46.78843" lon="5.62431">
        <ele>450.3</ele>
        <time>2021-03-28T14:07:13Z</time>
      </trkpt>
      <trkpt lat="46.78839" lon="5.62434">
        <ele>449.5</ele>
        <time>2021-03-28T14:07:18Z</time>
      </trkpt>
      <trkpt lat="46.78837" lon="5.62441">
        <ele>446.7</ele>
        <time>2021-03-28T14:07:31Z</time>
      </trkpt>
      <trkpt lat="46.78834" lon="5.62445">
        <ele>446.5</ele>
        <time>2021-03-28T14:07:37Z</time>
      </trkpt>
      <trkpt lat="46.78829" lon="5.62448">
        <ele>447.1</ele>
        <time>2021-03-28T14:07:41Z</time>
      </trkpt>
      <trkpt lat="46.78826" lon="5.62452">
        <ele>447.7</ele>
        <time>2021-03-28T14:07:47Z</time>
      </trkpt>
      <trkpt lat="46.78822" lon="5.62456">
        <ele>447.9</ele>
        <time>2021-03-28T14:07:52Z</time>
      </trkpt>
      <trkpt lat="46.78816" lon="5.62457">
        <ele>447.4</ele>
        <time>2021-03-28T14:07:59Z</time>
      </trkpt>
      <trkpt lat="46.78812" lon="5.62461">
        <ele>446.9</ele>
        <time>2021-03-28T14:08:03Z</time>
      </trkpt>
      <trkpt lat="46.78808" lon="5.62464">
        <ele>446.6</ele>
        <time>2021-03-28T14:08:07Z</time>
      </trkpt>
      <trkpt lat="46.78803" lon="5.62467">
        <ele>446.3</ele>
        <time>2021-03-28T14:08:13Z</time>
      </trkpt>
      <trkpt lat="46.78798" lon="5.62471">
        <ele>446.1</ele>
        <time>2021-03-28T14:08:19Z</time>
      </trkpt>
      <trkpt lat="46.78792" lon="5.62474">
        <ele>445.8</ele>
        <time>2021-03-28T14:08:23Z</time>
      </trkpt>
      <trkpt lat="46.78787" lon="5.62475">
        <ele>444.3</ele>
        <time>2021-03-28T14:08:32Z</time>
      </trkpt>
      <trkpt lat="46.78783" lon="5.62478">
        <ele>442.8</ele>
        <time>2021-03-28T14:08:45Z</time>
      </trkpt>
      <trkpt lat="46.78777" lon="5.62482">
        <ele>442.5</ele>
        <time>2021-03-28T14:08:50Z</time>
      </trkpt>
      <trkpt lat="46.78771" lon="5.62486">
        <ele>442.3</ele>
        <time>2021-03-28T14:08:54Z</time>
      </trkpt>
      <trkpt lat="46.78766" lon="5.62491">
        <ele>442.3</ele>
        <time>2021-03-28T14:08:58Z</time>
      </trkpt>
      <trkpt lat="46.78763" lon="5.62496">
        <ele>441.8</ele>
        <time>2021-03-28T14:09:03Z</time>
      </trkpt>
      <trkpt lat="46.78758" lon="5.62498">
        <ele>441.3</ele>
        <time>2021-03-28T14:09:08Z</time>
      </trkpt>
      <trkpt lat="46.78755" lon="5.62503">
        <ele>439.9</ele>
        <time>2021-03-28T14:09:21Z</time>
      </trkpt>
      <trkpt lat="46.78735" lon="5.62521">
        <ele>453.3</ele>
        <time>2021-03-28T14:09:25Z</time>
      </trkpt>
      <trkpt lat="46.78731" lon="5.62526">
        <ele>459.5</ele>
        <time>2021-03-28T14:09:29Z</time>
      </trkpt>
      <trkpt lat="46.78727" lon="5.62531">
        <ele>466.9</ele>
        <time>2021-03-28T14:09:38Z</time>
      </trkpt>
      <trkpt lat="46.78724" lon="5.62537">
        <ele>469.7</ele>
        <time>2021-03-28T14:09:45Z</time>
      </trkpt>
      <trkpt lat="46.7872" lon="5.62542">
        <ele>471</ele>
        <time>2021-03-28T14:09:51Z</time>
      </trkpt>
      <trkpt lat="46.78716" lon="5.62547">
        <ele>472</ele>
        <time>2021-03-28T14:09:58Z</time>
      </trkpt>
      <trkpt lat="46.7871" lon="5.62556">
        <ele>472.6</ele>
        <time>2021-03-28T14:10:02Z</time>
      </trkpt>
      <trkpt lat="46.78706" lon="5.62563">
        <ele>472.8</ele>
        <time>2021-03-28T14:10:06Z</time>
      </trkpt>
      <trkpt lat="46.78702" lon="5.62569">
        <ele>473</ele>
        <time>2021-03-28T14:10:25Z</time>
      </trkpt>
      <trkpt lat="46.78698" lon="5.62572">
        <ele>473.7</ele>
        <time>2021-03-28T14:10:30Z</time>
      </trkpt>
      <trkpt lat="46.78694" lon="5.62575">
        <ele>473.8</ele>
        <time>2021-03-28T14:10:36Z</time>
      </trkpt>
      <trkpt lat="46.78689" lon="5.62575">
        <ele>473.4</ele>
        <time>2021-03-28T14:10:43Z</time>
      </trkpt>
      <trkpt lat="46.78681" lon="5.62576">
        <ele>478</ele>
        <time>2021-03-28T14:10:47Z</time>
      </trkpt>
      <trkpt lat="46.78684" lon="5.62582">
        <ele>496</ele>
        <time>2021-03-28T14:12:02Z</time>
      </trkpt>
      <trkpt lat="46.78685" lon="5.6259">
        <ele>497.4</ele>
        <time>2021-03-28T14:12:15Z</time>
      </trkpt>
      <trkpt lat="46.7868" lon="5.62592">
        <ele>495.8</ele>
        <time>2021-03-28T14:12:33Z</time>
      </trkpt>
      <trkpt lat="46.78675" lon="5.62593">
        <ele>494.9</ele>
        <time>2021-03-28T14:12:37Z</time>
      </trkpt>
      <trkpt lat="46.78671" lon="5.62596">
        <ele>491.4</ele>
        <time>2021-03-28T14:12:42Z</time>
      </trkpt>
      <trkpt lat="46.78668" lon="5.626">
        <ele>488.8</ele>
        <time>2021-03-28T14:12:50Z</time>
      </trkpt>
      <trkpt lat="46.78664" lon="5.62607">
        <ele>488.1</ele>
        <time>2021-03-28T14:12:54Z</time>
      </trkpt>
      <trkpt lat="46.7866" lon="5.62613">
        <ele>487.9</ele>
        <time>2021-03-28T14:12:58Z</time>
      </trkpt>
      <trkpt lat="46.78656" lon="5.62615">
        <ele>487.3</ele>
        <time>2021-03-28T14:13:05Z</time>
      </trkpt>
      <trkpt lat="46.78652" lon="5.62619">
        <ele>486.9</ele>
        <time>2021-03-28T14:13:11Z</time>
      </trkpt>
      <trkpt lat="46.78649" lon="5.62624">
        <ele>486.8</ele>
        <time>2021-03-28T14:13:15Z</time>
      </trkpt>
      <trkpt lat="46.78644" lon="5.62627">
        <ele>487</ele>
        <time>2021-03-28T14:13:20Z</time>
      </trkpt>
      <trkpt lat="46.78639" lon="5.6263">
        <ele>487.2</ele>
        <time>2021-03-28T14:13:24Z</time>
      </trkpt>
      <trkpt lat="46.78635" lon="5.62633">
        <ele>487.7</ele>
        <time>2021-03-28T14:13:28Z</time>
      </trkpt>
      <trkpt lat="46.78629" lon="5.6264">
        <ele>488</ele>
        <time>2021-03-28T14:13:32Z</time>
      </trkpt>
      <trkpt lat="46.78624" lon="5.62646">
        <ele>487.6</ele>
        <time>2021-03-28T14:13:36Z</time>
      </trkpt>
      <trkpt lat="46.7862" lon="5.6265">
        <ele>487.7</ele>
        <time>2021-03-28T14:13:41Z</time>
      </trkpt>
      <trkpt lat="46.78615" lon="5.62652">
        <ele>487.8</ele>
        <time>2021-03-28T14:13:47Z</time>
      </trkpt>
      <trkpt lat="46.78611" lon="5.62657">
        <ele>487.3</ele>
        <time>2021-03-28T14:13:53Z</time>
      </trkpt>
      <trkpt lat="46.78606" lon="5.62658">
        <ele>485.9</ele>
        <time>2021-03-28T14:13:58Z</time>
      </trkpt>
      <trkpt lat="46.78601" lon="5.6266">
        <ele>483.9</ele>
        <time>2021-03-28T14:14:03Z</time>
      </trkpt>
      <trkpt lat="46.78595" lon="5.62663">
        <ele>481.6</ele>
        <time>2021-03-28T14:14:09Z</time>
      </trkpt>
      <trkpt lat="46.78591" lon="5.62665">
        <ele>480.7</ele>
        <time>2021-03-28T14:14:13Z</time>
      </trkpt>
      <trkpt lat="46.78585" lon="5.62665">
        <ele>480.2</ele>
        <time>2021-03-28T14:14:18Z</time>
      </trkpt>
      <trkpt lat="46.78581" lon="5.62665">
        <ele>479.8</ele>
        <time>2021-03-28T14:14:24Z</time>
      </trkpt>
      <trkpt lat="46.78576" lon="5.62664">
        <ele>479.5</ele>
        <time>2021-03-28T14:14:29Z</time>
      </trkpt>
      <trkpt lat="46.78571" lon="5.62665">
        <ele>479.1</ele>
        <time>2021-03-28T14:14:34Z</time>
      </trkpt>
      <trkpt lat="46.78566" lon="5.62666">
        <ele>479.1</ele>
        <time>2021-03-28T14:14:40Z</time>
      </trkpt>
      <trkpt lat="46.78562" lon="5.62668">
        <ele>479.5</ele>
        <time>2021-03-28T14:14:47Z</time>
      </trkpt>
      <trkpt lat="46.78556" lon="5.62669">
        <ele>479.7</ele>
        <time>2021-03-28T14:14:52Z</time>
      </trkpt>
      <trkpt lat="46.78551" lon="5.62668">
        <ele>479.6</ele>
        <time>2021-03-28T14:14:56Z</time>
      </trkpt>
      <trkpt lat="46.78546" lon="5.62668">
        <ele>479.3</ele>
        <time>2021-03-28T14:15:03Z</time>
      </trkpt>
      <trkpt lat="46.78542" lon="5.62669">
        <ele>479.2</ele>
        <time>2021-03-28T14:15:09Z</time>
      </trkpt>
      <trkpt lat="46.78537" lon="5.62669">
        <ele>478.9</ele>
        <time>2021-03-28T14:15:15Z</time>
      </trkpt>
      <trkpt lat="46.78522" lon="5.62671">
        <ele>478.8</ele>
        <time>2021-03-28T14:15:19Z</time>
      </trkpt>
      <trkpt lat="46.78514" lon="5.62673">
        <ele>478.9</ele>
        <time>2021-03-28T14:15:23Z</time>
      </trkpt>
      <trkpt lat="46.78509" lon="5.62671">
        <ele>479.1</ele>
        <time>2021-03-28T14:15:30Z</time>
      </trkpt>
      <trkpt lat="46.78504" lon="5.62668">
        <ele>478.9</ele>
        <time>2021-03-28T14:15:37Z</time>
      </trkpt>
      <trkpt lat="46.78499" lon="5.62666">
        <ele>478.7</ele>
        <time>2021-03-28T14:15:46Z</time>
      </trkpt>
      <trkpt lat="46.78492" lon="5.62663">
        <ele>479.1</ele>
        <time>2021-03-28T14:15:50Z</time>
      </trkpt>
      <trkpt lat="46.78487" lon="5.62661">
        <ele>479.1</ele>
        <time>2021-03-28T14:15:54Z</time>
      </trkpt>
      <trkpt lat="46.78483" lon="5.62661">
        <ele>477.5</ele>
        <time>2021-03-28T14:16:03Z</time>
      </trkpt>
      <trkpt lat="46.78478" lon="5.62661">
        <ele>475.8</ele>
        <time>2021-03-28T14:16:08Z</time>
      </trkpt>
      <trkpt lat="46.78473" lon="5.6266">
        <ele>473.6</ele>
        <time>2021-03-28T14:16:15Z</time>
      </trkpt>
      <trkpt lat="46.78469" lon="5.62659">
        <ele>471.5</ele>
        <time>2021-03-28T14:16:22Z</time>
      </trkpt>
      <trkpt lat="46.78459" lon="5.62657">
        <ele>473.7</ele>
        <time>2021-03-28T14:16:26Z</time>
      </trkpt>
      <trkpt lat="46.78452" lon="5.62655">
        <ele>476.3</ele>
        <time>2021-03-28T14:16:30Z</time>
      </trkpt>
      <trkpt lat="46.78448" lon="5.62652">
        <ele>478</ele>
        <time>2021-03-28T14:16:36Z</time>
      </trkpt>
      <trkpt lat="46.78443" lon="5.62649">
        <ele>477.9</ele>
        <time>2021-03-28T14:16:41Z</time>
      </trkpt>
      <trkpt lat="46.78438" lon="5.62646">
        <ele>477.7</ele>
        <time>2021-03-28T14:16:45Z</time>
      </trkpt>
      <trkpt lat="46.78434" lon="5.62642">
        <ele>476.3</ele>
        <time>2021-03-28T14:16:53Z</time>
      </trkpt>
      <trkpt lat="46.7843" lon="5.6264">
        <ele>474.5</ele>
        <time>2021-03-28T14:17:00Z</time>
      </trkpt>
      <trkpt lat="46.78425" lon="5.62637">
        <ele>473.4</ele>
        <time>2021-03-28T14:17:04Z</time>
      </trkpt>
      <trkpt lat="46.78419" lon="5.62633">
        <ele>472.4</ele>
        <time>2021-03-28T14:17:08Z</time>
      </trkpt>
      <trkpt lat="46.78412" lon="5.6263">
        <ele>472.6</ele>
        <time>2021-03-28T14:17:12Z</time>
      </trkpt>
      <trkpt lat="46.78407" lon="5.62628">
        <ele>472.7</ele>
        <time>2021-03-28T14:17:16Z</time>
      </trkpt>
      <trkpt lat="46.78403" lon="5.62624">
        <ele>472.6</ele>
        <time>2021-03-28T14:17:22Z</time>
      </trkpt>
      <trkpt lat="46.78401" lon="5.62618">
        <ele>472.7</ele>
        <time>2021-03-28T14:17:29Z</time>
      </trkpt>
      <trkpt lat="46.78396" lon="5.62615">
        <ele>472.6</ele>
        <time>2021-03-28T14:17:33Z</time>
      </trkpt>
      <trkpt lat="46.78391" lon="5.62612">
        <ele>473</ele>
        <time>2021-03-28T14:17:38Z</time>
      </trkpt>
      <trkpt lat="46.78387" lon="5.6261">
        <ele>473.2</ele>
        <time>2021-03-28T14:17:43Z</time>
      </trkpt>
      <trkpt lat="46.78383" lon="5.62606">
        <ele>473.1</ele>
        <time>2021-03-28T14:17:47Z</time>
      </trkpt>
      <trkpt lat="46.78377" lon="5.62601">
        <ele>472.7</ele>
        <time>2021-03-28T14:17:51Z</time>
      </trkpt>
      <trkpt lat="46.78373" lon="5.62596">
        <ele>472.4</ele>
        <time>2021-03-28T14:17:55Z</time>
      </trkpt>
      <trkpt lat="46.78369" lon="5.62592">
        <ele>471.9</ele>
        <time>2021-03-28T14:18:01Z</time>
      </trkpt>
      <trkpt lat="46.78365" lon="5.62588">
        <ele>471.4</ele>
        <time>2021-03-28T14:18:07Z</time>
      </trkpt>
      <trkpt lat="46.78361" lon="5.62584">
        <ele>470.2</ele>
        <time>2021-03-28T14:18:11Z</time>
      </trkpt>
      <trkpt lat="46.78358" lon="5.62578">
        <ele>468.5</ele>
        <time>2021-03-28T14:18:15Z</time>
      </trkpt>
      <trkpt lat="46.78354" lon="5.62574">
        <ele>467</ele>
        <time>2021-03-28T14:18:21Z</time>
      </trkpt>
      <trkpt lat="46.78351" lon="5.62568">
        <ele>466.5</ele>
        <time>2021-03-28T14:18:26Z</time>
      </trkpt>
      <trkpt lat="46.78347" lon="5.62564">
        <ele>466.4</ele>
        <time>2021-03-28T14:18:30Z</time>
      </trkpt>
      <trkpt lat="46.78344" lon="5.62559">
        <ele>466</ele>
        <time>2021-03-28T14:18:34Z</time>
      </trkpt>
      <trkpt lat="46.78341" lon="5.62554">
        <ele>465.8</ele>
        <time>2021-03-28T14:18:40Z</time>
      </trkpt>
      <trkpt lat="46.78337" lon="5.62549">
        <ele>465.7</ele>
        <time>2021-03-28T14:18:44Z</time>
      </trkpt>
      <trkpt lat="46.7833" lon="5.62542">
        <ele>465.4</ele>
        <time>2021-03-28T14:18:48Z</time>
      </trkpt>
      <trkpt lat="46.78326" lon="5.62537">
        <ele>464.7</ele>
        <time>2021-03-28T14:18:52Z</time>
      </trkpt>
      <trkpt lat="46.78322" lon="5.62533">
        <ele>463.8</ele>
        <time>2021-03-28T14:18:58Z</time>
      </trkpt>
      <trkpt lat="46.78318" lon="5.62529">
        <ele>463.4</ele>
        <time>2021-03-28T14:19:03Z</time>
      </trkpt>
      <trkpt lat="46.78314" lon="5.62525">
        <ele>462.3</ele>
        <time>2021-03-28T14:19:09Z</time>
      </trkpt>
      <trkpt lat="46.78309" lon="5.6252">
        <ele>461.2</ele>
        <time>2021-03-28T14:19:14Z</time>
      </trkpt>
      <trkpt lat="46.78305" lon="5.62517">
        <ele>460.8</ele>
        <time>2021-03-28T14:19:18Z</time>
      </trkpt>
      <trkpt lat="46.78301" lon="5.62513">
        <ele>460.6</ele>
        <time>2021-03-28T14:19:22Z</time>
      </trkpt>
      <trkpt lat="46.78297" lon="5.62508">
        <ele>460.4</ele>
        <time>2021-03-28T14:19:26Z</time>
      </trkpt>
      <trkpt lat="46.78294" lon="5.62504">
        <ele>460.5</ele>
        <time>2021-03-28T14:19:30Z</time>
      </trkpt>
      <trkpt lat="46.78289" lon="5.62502">
        <ele>460.4</ele>
        <time>2021-03-28T14:19:36Z</time>
      </trkpt>
      <trkpt lat="46.78285" lon="5.62498">
        <ele>460.1</ele>
        <time>2021-03-28T14:19:41Z</time>
      </trkpt>
      <trkpt lat="46.7828" lon="5.62494">
        <ele>460.4</ele>
        <time>2021-03-28T14:19:45Z</time>
      </trkpt>
      <trkpt lat="46.78275" lon="5.62496">
        <ele>460.6</ele>
        <time>2021-03-28T14:19:51Z</time>
      </trkpt>
      <trkpt lat="46.7827" lon="5.62496">
        <ele>461</ele>
        <time>2021-03-28T14:19:57Z</time>
      </trkpt>
      <trkpt lat="46.78266" lon="5.62495">
        <ele>461.6</ele>
        <time>2021-03-28T14:20:01Z</time>
      </trkpt>
      <trkpt lat="46.7826" lon="5.62496">
        <ele>462.5</ele>
        <time>2021-03-28T14:20:06Z</time>
      </trkpt>
      <trkpt lat="46.78255" lon="5.62498">
        <ele>464.1</ele>
        <time>2021-03-28T14:20:10Z</time>
      </trkpt>
      <trkpt lat="46.7825" lon="5.62497">
        <ele>465.2</ele>
        <time>2021-03-28T14:20:14Z</time>
      </trkpt>
      <trkpt lat="46.78245" lon="5.62494">
        <ele>465.2</ele>
        <time>2021-03-28T14:20:18Z</time>
      </trkpt>
      <trkpt lat="46.78242" lon="5.62489">
        <ele>464.4</ele>
        <time>2021-03-28T14:20:25Z</time>
      </trkpt>
      <trkpt lat="46.7824" lon="5.62483">
        <ele>460.9</ele>
        <time>2021-03-28T14:20:47Z</time>
      </trkpt>
      <trkpt lat="46.78237" lon="5.62478">
        <ele>458.5</ele>
        <time>2021-03-28T14:20:52Z</time>
      </trkpt>
      <trkpt lat="46.78232" lon="5.62478">
        <ele>455.5</ele>
        <time>2021-03-28T14:20:59Z</time>
      </trkpt>
      <trkpt lat="46.78227" lon="5.62479">
        <ele>453.6</ele>
        <time>2021-03-28T14:21:05Z</time>
      </trkpt>
      <trkpt lat="46.78223" lon="5.62481">
        <ele>450.8</ele>
        <time>2021-03-28T14:21:20Z</time>
      </trkpt>
      <trkpt lat="46.78218" lon="5.6248">
        <ele>450.1</ele>
        <time>2021-03-28T14:21:27Z</time>
      </trkpt>
      <trkpt lat="46.78213" lon="5.6248">
        <ele>449.9</ele>
        <time>2021-03-28T14:21:32Z</time>
      </trkpt>
      <trkpt lat="46.78208" lon="5.62479">
        <ele>450</ele>
        <time>2021-03-28T14:21:36Z</time>
      </trkpt>
      <trkpt lat="46.78203" lon="5.62477">
        <ele>449.6</ele>
        <time>2021-03-28T14:21:40Z</time>
      </trkpt>
      <trkpt lat="46.78199" lon="5.62476">
        <ele>449.5</ele>
        <time>2021-03-28T14:21:49Z</time>
      </trkpt>
      <trkpt lat="46.78194" lon="5.62476">
        <ele>449.1</ele>
        <time>2021-03-28T14:21:57Z</time>
      </trkpt>
      <trkpt lat="46.7819" lon="5.62479">
        <ele>449.7</ele>
        <time>2021-03-28T14:22:04Z</time>
      </trkpt>
      <trkpt lat="46.78187" lon="5.62485">
        <ele>450.5</ele>
        <time>2021-03-28T14:22:20Z</time>
      </trkpt>
      <trkpt lat="46.78182" lon="5.62484">
        <ele>450.6</ele>
        <time>2021-03-28T14:22:24Z</time>
      </trkpt>
      <trkpt lat="46.78177" lon="5.62484">
        <ele>450.5</ele>
        <time>2021-03-28T14:22:28Z</time>
      </trkpt>
      <trkpt lat="46.78172" lon="5.62486">
        <ele>450.1</ele>
        <time>2021-03-28T14:22:34Z</time>
      </trkpt>
      <trkpt lat="46.78167" lon="5.62488">
        <ele>449.9</ele>
        <time>2021-03-28T14:22:40Z</time>
      </trkpt>
      <trkpt lat="46.78163" lon="5.62491">
        <ele>450.3</ele>
        <time>2021-03-28T14:22:44Z</time>
      </trkpt>
      <trkpt lat="46.78159" lon="5.62496">
        <ele>450.5</ele>
        <time>2021-03-28T14:22:49Z</time>
      </trkpt>
      <trkpt lat="46.78156" lon="5.62502">
        <ele>450.2</ele>
        <time>2021-03-28T14:22:54Z</time>
      </trkpt>
      <trkpt lat="46.78152" lon="5.62505">
        <ele>449.8</ele>
        <time>2021-03-28T14:22:59Z</time>
      </trkpt>
      <trkpt lat="46.78149" lon="5.6251">
        <ele>450</ele>
        <time>2021-03-28T14:23:03Z</time>
      </trkpt>
      <trkpt lat="46.78144" lon="5.62514">
        <ele>450.8</ele>
        <time>2021-03-28T14:23:07Z</time>
      </trkpt>
      <trkpt lat="46.7814" lon="5.62519">
        <ele>451.5</ele>
        <time>2021-03-28T14:23:11Z</time>
      </trkpt>
      <trkpt lat="46.78137" lon="5.62525">
        <ele>451.9</ele>
        <time>2021-03-28T14:23:16Z</time>
      </trkpt>
      <trkpt lat="46.78133" lon="5.62528">
        <ele>451.8</ele>
        <time>2021-03-28T14:23:22Z</time>
      </trkpt>
      <trkpt lat="46.78128" lon="5.62532">
        <ele>452.1</ele>
        <time>2021-03-28T14:23:26Z</time>
      </trkpt>
      <trkpt lat="46.78122" lon="5.62536">
        <ele>453.9</ele>
        <time>2021-03-28T14:23:31Z</time>
      </trkpt>
      <trkpt lat="46.78118" lon="5.62538">
        <ele>455.9</ele>
        <time>2021-03-28T14:23:36Z</time>
      </trkpt>
      <trkpt lat="46.78113" lon="5.62542">
        <ele>456.7</ele>
        <time>2021-03-28T14:23:41Z</time>
      </trkpt>
      <trkpt lat="46.78108" lon="5.62544">
        <ele>456.9</ele>
        <time>2021-03-28T14:23:45Z</time>
      </trkpt>
      <trkpt lat="46.78104" lon="5.62544">
        <ele>456.9</ele>
        <time>2021-03-28T14:23:49Z</time>
      </trkpt>
      <trkpt lat="46.78098" lon="5.62544">
        <ele>455.9</ele>
        <time>2021-03-28T14:23:57Z</time>
      </trkpt>
      <trkpt lat="46.78093" lon="5.62545">
        <ele>455.7</ele>
        <time>2021-03-28T14:24:01Z</time>
      </trkpt>
      <trkpt lat="46.78088" lon="5.62547">
        <ele>456</ele>
        <time>2021-03-28T14:24:05Z</time>
      </trkpt>
      <trkpt lat="46.78083" lon="5.62548">
        <ele>456</ele>
        <time>2021-03-28T14:24:09Z</time>
      </trkpt>
      <trkpt lat="46.78078" lon="5.62548">
        <ele>456.1</ele>
        <time>2021-03-28T14:24:13Z</time>
      </trkpt>
      <trkpt lat="46.78074" lon="5.62547">
        <ele>456.4</ele>
        <time>2021-03-28T14:24:17Z</time>
      </trkpt>
      <trkpt lat="46.78069" lon="5.62549">
        <ele>456.8</ele>
        <time>2021-03-28T14:24:21Z</time>
      </trkpt>
      <trkpt lat="46.78064" lon="5.6255">
        <ele>457.8</ele>
        <time>2021-03-28T14:24:26Z</time>
      </trkpt>
      <trkpt lat="46.78059" lon="5.6255">
        <ele>458.8</ele>
        <time>2021-03-28T14:24:30Z</time>
      </trkpt>
      <trkpt lat="46.78054" lon="5.6255">
        <ele>459.8</ele>
        <time>2021-03-28T14:24:34Z</time>
      </trkpt>
      <trkpt lat="46.78049" lon="5.62549">
        <ele>461.1</ele>
        <time>2021-03-28T14:24:39Z</time>
      </trkpt>
      <trkpt lat="46.78044" lon="5.62548">
        <ele>462.2</ele>
        <time>2021-03-28T14:24:45Z</time>
      </trkpt>
      <trkpt lat="46.78039" lon="5.62548">
        <ele>462.3</ele>
        <time>2021-03-28T14:24:50Z</time>
      </trkpt>
      <trkpt lat="46.78034" lon="5.62549">
        <ele>462.3</ele>
        <time>2021-03-28T14:24:54Z</time>
      </trkpt>
      <trkpt lat="46.78029" lon="5.62549">
        <ele>462</ele>
        <time>2021-03-28T14:24:58Z</time>
      </trkpt>
      <trkpt lat="46.78024" lon="5.62549">
        <ele>461.8</ele>
        <time>2021-03-28T14:25:02Z</time>
      </trkpt>
      <trkpt lat="46.7802" lon="5.62548">
        <ele>461.7</ele>
        <time>2021-03-28T14:25:06Z</time>
      </trkpt>
      <trkpt lat="46.78015" lon="5.62547">
        <ele>461.5</ele>
        <time>2021-03-28T14:25:10Z</time>
      </trkpt>
      <trkpt lat="46.7801" lon="5.62547">
        <ele>461.1</ele>
        <time>2021-03-28T14:25:15Z</time>
      </trkpt>
      <trkpt lat="46.78005" lon="5.62545">
        <ele>460.7</ele>
        <time>2021-03-28T14:25:20Z</time>
      </trkpt>
      <trkpt lat="46.78" lon="5.62545">
        <ele>460.1</ele>
        <time>2021-03-28T14:25:25Z</time>
      </trkpt>
      <trkpt lat="46.77995" lon="5.62546">
        <ele>459.6</ele>
        <time>2021-03-28T14:25:30Z</time>
      </trkpt>
      <trkpt lat="46.77991" lon="5.62546">
        <ele>459.1</ele>
        <time>2021-03-28T14:25:34Z</time>
      </trkpt>
      <trkpt lat="46.77986" lon="5.62546">
        <ele>458.7</ele>
        <time>2021-03-28T14:25:38Z</time>
      </trkpt>
      <trkpt lat="46.77982" lon="5.62545">
        <ele>458.4</ele>
        <time>2021-03-28T14:25:42Z</time>
      </trkpt>
      <trkpt lat="46.77976" lon="5.62545">
        <ele>457.9</ele>
        <time>2021-03-28T14:25:46Z</time>
      </trkpt>
      <trkpt lat="46.77972" lon="5.62546">
        <ele>457.3</ele>
        <time>2021-03-28T14:25:50Z</time>
      </trkpt>
      <trkpt lat="46.77967" lon="5.62546">
        <ele>456.7</ele>
        <time>2021-03-28T14:25:55Z</time>
      </trkpt>
      <trkpt lat="46.77962" lon="5.62547">
        <ele>455.8</ele>
        <time>2021-03-28T14:26:01Z</time>
      </trkpt>
      <trkpt lat="46.77957" lon="5.62549">
        <ele>454.5</ele>
        <time>2021-03-28T14:26:06Z</time>
      </trkpt>
      <trkpt lat="46.77952" lon="5.62552">
        <ele>453.9</ele>
        <time>2021-03-28T14:26:10Z</time>
      </trkpt>
      <trkpt lat="46.77947" lon="5.62555">
        <ele>453.4</ele>
        <time>2021-03-28T14:26:15Z</time>
      </trkpt>
      <trkpt lat="46.77943" lon="5.62559">
        <ele>453.2</ele>
        <time>2021-03-28T14:26:19Z</time>
      </trkpt>
      <trkpt lat="46.7794" lon="5.62563">
        <ele>453.5</ele>
        <time>2021-03-28T14:26:23Z</time>
      </trkpt>
      <trkpt lat="46.77936" lon="5.62568">
        <ele>454.1</ele>
        <time>2021-03-28T14:26:27Z</time>
      </trkpt>
      <trkpt lat="46.77932" lon="5.62572">
        <ele>454.3</ele>
        <time>2021-03-28T14:26:32Z</time>
      </trkpt>
      <trkpt lat="46.77928" lon="5.62576">
        <ele>454.5</ele>
        <time>2021-03-28T14:26:37Z</time>
      </trkpt>
      <trkpt lat="46.77923" lon="5.62579">
        <ele>454.6</ele>
        <time>2021-03-28T14:26:42Z</time>
      </trkpt>
      <trkpt lat="46.77918" lon="5.62582">
        <ele>454.8</ele>
        <time>2021-03-28T14:26:47Z</time>
      </trkpt>
      <trkpt lat="46.77913" lon="5.62586">
        <ele>455.6</ele>
        <time>2021-03-28T14:26:52Z</time>
      </trkpt>
      <trkpt lat="46.77909" lon="5.62587">
        <ele>456.9</ele>
        <time>2021-03-28T14:26:58Z</time>
      </trkpt>
      <trkpt lat="46.77904" lon="5.62586">
        <ele>458</ele>
        <time>2021-03-28T14:27:03Z</time>
      </trkpt>
      <trkpt lat="46.77899" lon="5.62584">
        <ele>459.4</ele>
        <time>2021-03-28T14:27:08Z</time>
      </trkpt>
      <trkpt lat="46.77895" lon="5.62581">
        <ele>460.7</ele>
        <time>2021-03-28T14:27:13Z</time>
      </trkpt>
      <trkpt lat="46.7789" lon="5.62579">
        <ele>461.8</ele>
        <time>2021-03-28T14:27:19Z</time>
      </trkpt>
      <trkpt lat="46.77885" lon="5.62576">
        <ele>462.6</ele>
        <time>2021-03-28T14:27:29Z</time>
      </trkpt>
      <trkpt lat="46.7788" lon="5.62573">
        <ele>462.7</ele>
        <time>2021-03-28T14:27:33Z</time>
      </trkpt>
      <trkpt lat="46.77876" lon="5.62571">
        <ele>462.3</ele>
        <time>2021-03-28T14:27:37Z</time>
      </trkpt>
      <trkpt lat="46.77871" lon="5.62571">
        <ele>461.7</ele>
        <time>2021-03-28T14:27:41Z</time>
      </trkpt>
      <trkpt lat="46.77866" lon="5.62571">
        <ele>460.5</ele>
        <time>2021-03-28T14:27:46Z</time>
      </trkpt>
      <trkpt lat="46.77861" lon="5.62571">
        <ele>459.7</ele>
        <time>2021-03-28T14:27:50Z</time>
      </trkpt>
      <trkpt lat="46.77856" lon="5.62572">
        <ele>458.6</ele>
        <time>2021-03-28T14:27:54Z</time>
      </trkpt>
      <trkpt lat="46.77851" lon="5.62574">
        <ele>457.9</ele>
        <time>2021-03-28T14:27:58Z</time>
      </trkpt>
      <trkpt lat="46.77846" lon="5.62574">
        <ele>457.2</ele>
        <time>2021-03-28T14:28:03Z</time>
      </trkpt>
      <trkpt lat="46.77842" lon="5.62573">
        <ele>456.2</ele>
        <time>2021-03-28T14:28:09Z</time>
      </trkpt>
      <trkpt lat="46.77837" lon="5.62572">
        <ele>455.4</ele>
        <time>2021-03-28T14:28:13Z</time>
      </trkpt>
      <trkpt lat="46.77832" lon="5.62573">
        <ele>454.6</ele>
        <time>2021-03-28T14:28:17Z</time>
      </trkpt>
      <trkpt lat="46.77828" lon="5.62574">
        <ele>453.9</ele>
        <time>2021-03-28T14:28:21Z</time>
      </trkpt>
      <trkpt lat="46.77822" lon="5.62573">
        <ele>453.5</ele>
        <time>2021-03-28T14:28:26Z</time>
      </trkpt>
      <trkpt lat="46.77818" lon="5.62573">
        <ele>453.3</ele>
        <time>2021-03-28T14:28:31Z</time>
      </trkpt>
      <trkpt lat="46.77812" lon="5.62573">
        <ele>453.6</ele>
        <time>2021-03-28T14:28:35Z</time>
      </trkpt>
      <trkpt lat="46.77808" lon="5.62573">
        <ele>454.1</ele>
        <time>2021-03-28T14:28:39Z</time>
      </trkpt>
      <trkpt lat="46.77802" lon="5.62574">
        <ele>454.9</ele>
        <time>2021-03-28T14:28:44Z</time>
      </trkpt>
      <trkpt lat="46.77797" lon="5.62573">
        <ele>456.3</ele>
        <time>2021-03-28T14:28:51Z</time>
      </trkpt>
      <trkpt lat="46.778" lon="5.62567">
        <ele>458.4</ele>
        <time>2021-03-28T14:33:48Z</time>
      </trkpt>
      <trkpt lat="46.77805" lon="5.62555">
        <ele>458.6</ele>
        <time>2021-03-28T14:33:52Z</time>
      </trkpt>
      <trkpt lat="46.77808" lon="5.62549">
        <ele>458.6</ele>
        <time>2021-03-28T14:33:56Z</time>
      </trkpt>
      <trkpt lat="46.77809" lon="5.62558">
        <ele>458.7</ele>
        <time>2021-03-28T14:34:02Z</time>
      </trkpt>
      <trkpt lat="46.77811" lon="5.62567">
        <ele>458.6</ele>
        <time>2021-03-28T14:34:06Z</time>
      </trkpt>
      <trkpt lat="46.77807" lon="5.62564">
        <ele>457.3</ele>
        <time>2021-03-28T14:34:37Z</time>
      </trkpt>
      <trkpt lat="46.77803" lon="5.62568">
        <ele>458.7</ele>
        <time>2021-03-28T14:35:14Z</time>
      </trkpt>
      <trkpt lat="46.77799" lon="5.62573">
        <ele>459</ele>
        <time>2021-03-28T14:35:18Z</time>
      </trkpt>
      <trkpt lat="46.77795" lon="5.62577">
        <ele>459.1</ele>
        <time>2021-03-28T14:35:22Z</time>
      </trkpt>
      <trkpt lat="46.7779" lon="5.6258">
        <ele>459.2</ele>
        <time>2021-03-28T14:35:26Z</time>
      </trkpt>
      <trkpt lat="46.77786" lon="5.62583">
        <ele>459.3</ele>
        <time>2021-03-28T14:35:30Z</time>
      </trkpt>
      <trkpt lat="46.77782" lon="5.62587">
        <ele>458.5</ele>
        <time>2021-03-28T14:35:36Z</time>
      </trkpt>
      <trkpt lat="46.77778" lon="5.62591">
        <ele>457.5</ele>
        <time>2021-03-28T14:35:41Z</time>
      </trkpt>
      <trkpt lat="46.77774" lon="5.62595">
        <ele>456.6</ele>
        <time>2021-03-28T14:35:45Z</time>
      </trkpt>
      <trkpt lat="46.7777" lon="5.62601">
        <ele>456.1</ele>
        <time>2021-03-28T14:35:49Z</time>
      </trkpt>
      <trkpt lat="46.77767" lon="5.62606">
        <ele>455.7</ele>
        <time>2021-03-28T14:35:53Z</time>
      </trkpt>
      <trkpt lat="46.77762" lon="5.6261">
        <ele>455.3</ele>
        <time>2021-03-28T14:35:58Z</time>
      </trkpt>
      <trkpt lat="46.77758" lon="5.62615">
        <ele>455.3</ele>
        <time>2021-03-28T14:36:02Z</time>
      </trkpt>
      <trkpt lat="46.77755" lon="5.62619">
        <ele>455.6</ele>
        <time>2021-03-28T14:36:06Z</time>
      </trkpt>
      <trkpt lat="46.77751" lon="5.62624">
        <ele>456.2</ele>
        <time>2021-03-28T14:36:10Z</time>
      </trkpt>
      <trkpt lat="46.77746" lon="5.6263">
        <ele>456.9</ele>
        <time>2021-03-28T14:36:15Z</time>
      </trkpt>
      <trkpt lat="46.77743" lon="5.62634">
        <ele>457.2</ele>
        <time>2021-03-28T14:36:19Z</time>
      </trkpt>
      <trkpt lat="46.77739" lon="5.62638">
        <ele>457</ele>
        <time>2021-03-28T14:36:24Z</time>
      </trkpt>
      <trkpt lat="46.77734" lon="5.62642">
        <ele>456.6</ele>
        <time>2021-03-28T14:36:29Z</time>
      </trkpt>
      <trkpt lat="46.77731" lon="5.62648">
        <ele>456.4</ele>
        <time>2021-03-28T14:36:34Z</time>
      </trkpt>
      <trkpt lat="46.77727" lon="5.62654">
        <ele>456.3</ele>
        <time>2021-03-28T14:36:39Z</time>
      </trkpt>
      <trkpt lat="46.77725" lon="5.62661">
        <ele>456.5</ele>
        <time>2021-03-28T14:36:43Z</time>
      </trkpt>
      <trkpt lat="46.77722" lon="5.62667">
        <ele>456.5</ele>
        <time>2021-03-28T14:36:47Z</time>
      </trkpt>
      <trkpt lat="46.77719" lon="5.62674">
        <ele>456.4</ele>
        <time>2021-03-28T14:36:51Z</time>
      </trkpt>
      <trkpt lat="46.77716" lon="5.6268">
        <ele>456.3</ele>
        <time>2021-03-28T14:36:55Z</time>
      </trkpt>
      <trkpt lat="46.77713" lon="5.62686">
        <ele>456.2</ele>
        <time>2021-03-28T14:37:00Z</time>
      </trkpt>
      <trkpt lat="46.7771" lon="5.62691">
        <ele>456.1</ele>
        <time>2021-03-28T14:37:05Z</time>
      </trkpt>
      <trkpt lat="46.77707" lon="5.62697">
        <ele>456.4</ele>
        <time>2021-03-28T14:37:10Z</time>
      </trkpt>
      <trkpt lat="46.77703" lon="5.62703">
        <ele>457</ele>
        <time>2021-03-28T14:37:15Z</time>
      </trkpt>
      <trkpt lat="46.77701" lon="5.62709">
        <ele>457.6</ele>
        <time>2021-03-28T14:37:19Z</time>
      </trkpt>
      <trkpt lat="46.77699" lon="5.62716">
        <ele>458.2</ele>
        <time>2021-03-28T14:37:23Z</time>
      </trkpt>
      <trkpt lat="46.77697" lon="5.62723">
        <ele>458.8</ele>
        <time>2021-03-28T14:37:27Z</time>
      </trkpt>
      <trkpt lat="46.77694" lon="5.62728">
        <ele>459.2</ele>
        <time>2021-03-28T14:37:31Z</time>
      </trkpt>
      <trkpt lat="46.77691" lon="5.62735">
        <ele>459.1</ele>
        <time>2021-03-28T14:37:36Z</time>
      </trkpt>
      <trkpt lat="46.77688" lon="5.62741">
        <ele>458.7</ele>
        <time>2021-03-28T14:37:41Z</time>
      </trkpt>
      <trkpt lat="46.77685" lon="5.62748">
        <ele>458.5</ele>
        <time>2021-03-28T14:37:46Z</time>
      </trkpt>
      <trkpt lat="46.77683" lon="5.62755">
        <ele>458.3</ele>
        <time>2021-03-28T14:37:51Z</time>
      </trkpt>
      <trkpt lat="46.77681" lon="5.62761">
        <ele>458.5</ele>
        <time>2021-03-28T14:37:55Z</time>
      </trkpt>
      <trkpt lat="46.77678" lon="5.62766">
        <ele>459</ele>
        <time>2021-03-28T14:37:59Z</time>
      </trkpt>
      <trkpt lat="46.77676" lon="5.62773">
        <ele>459.9</ele>
        <time>2021-03-28T14:38:03Z</time>
      </trkpt>
      <trkpt lat="46.77674" lon="5.62779">
        <ele>460.8</ele>
        <time>2021-03-28T14:38:07Z</time>
      </trkpt>
      <trkpt lat="46.77671" lon="5.62785">
        <ele>462</ele>
        <time>2021-03-28T14:38:14Z</time>
      </trkpt>
      <trkpt lat="46.77668" lon="5.62791">
        <ele>462.9</ele>
        <time>2021-03-28T14:38:20Z</time>
      </trkpt>
      <trkpt lat="46.77666" lon="5.62796">
        <ele>463.6</ele>
        <time>2021-03-28T14:38:24Z</time>
      </trkpt>
      <trkpt lat="46.77663" lon="5.62802">
        <ele>464.3</ele>
        <time>2021-03-28T14:38:28Z</time>
      </trkpt>
      <trkpt lat="46.77659" lon="5.62808">
        <ele>465.1</ele>
        <time>2021-03-28T14:38:32Z</time>
      </trkpt>
      <trkpt lat="46.77657" lon="5.62815">
        <ele>465.8</ele>
        <time>2021-03-28T14:38:37Z</time>
      </trkpt>
      <trkpt lat="46.77654" lon="5.6282">
        <ele>466.1</ele>
        <time>2021-03-28T14:38:41Z</time>
      </trkpt>
      <trkpt lat="46.7765" lon="5.62825">
        <ele>466.3</ele>
        <time>2021-03-28T14:38:45Z</time>
      </trkpt>
      <trkpt lat="46.77647" lon="5.62831">
        <ele>466.6</ele>
        <time>2021-03-28T14:38:49Z</time>
      </trkpt>
      <trkpt lat="46.77644" lon="5.62837">
        <ele>467.3</ele>
        <time>2021-03-28T14:38:53Z</time>
      </trkpt>
      <trkpt lat="46.77642" lon="5.62843">
        <ele>468.1</ele>
        <time>2021-03-28T14:38:58Z</time>
      </trkpt>
      <trkpt lat="46.77638" lon="5.62849">
        <ele>468.6</ele>
        <time>2021-03-28T14:39:02Z</time>
      </trkpt>
      <trkpt lat="46.77634" lon="5.62853">
        <ele>468.8</ele>
        <time>2021-03-28T14:39:09Z</time>
      </trkpt>
      <trkpt lat="46.7763" lon="5.6285">
        <ele>468.5</ele>
        <time>2021-03-28T14:39:17Z</time>
      </trkpt>
      <trkpt lat="46.77625" lon="5.62852">
        <ele>467.6</ele>
        <time>2021-03-28T14:39:21Z</time>
      </trkpt>
      <trkpt lat="46.77621" lon="5.62854">
        <ele>466.6</ele>
        <time>2021-03-28T14:39:25Z</time>
      </trkpt>
      <trkpt lat="46.77616" lon="5.62855">
        <ele>465.6</ele>
        <time>2021-03-28T14:39:31Z</time>
      </trkpt>
      <trkpt lat="46.77611" lon="5.62856">
        <ele>464.8</ele>
        <time>2021-03-28T14:39:36Z</time>
      </trkpt>
      <trkpt lat="46.77605" lon="5.62855">
        <ele>464.5</ele>
        <time>2021-03-28T14:39:40Z</time>
      </trkpt>
      <trkpt lat="46.776" lon="5.62853">
        <ele>464.4</ele>
        <time>2021-03-28T14:39:44Z</time>
      </trkpt>
      <trkpt lat="46.77595" lon="5.62852">
        <ele>464.5</ele>
        <time>2021-03-28T14:39:48Z</time>
      </trkpt>
      <trkpt lat="46.7759" lon="5.6285">
        <ele>464.2</ele>
        <time>2021-03-28T14:39:54Z</time>
      </trkpt>
      <trkpt lat="46.77585" lon="5.62848">
        <ele>463.8</ele>
        <time>2021-03-28T14:39:59Z</time>
      </trkpt>
      <trkpt lat="46.77581" lon="5.62845">
        <ele>463.4</ele>
        <time>2021-03-28T14:40:04Z</time>
      </trkpt>
      <trkpt lat="46.77576" lon="5.62844">
        <ele>462.9</ele>
        <time>2021-03-28T14:40:10Z</time>
      </trkpt>
      <trkpt lat="46.77571" lon="5.62843">
        <ele>462.6</ele>
        <time>2021-03-28T14:40:18Z</time>
      </trkpt>
      <trkpt lat="46.77566" lon="5.62843">
        <ele>462.4</ele>
        <time>2021-03-28T14:40:26Z</time>
      </trkpt>
      <trkpt lat="46.7756" lon="5.62844">
        <ele>462.2</ele>
        <time>2021-03-28T14:40:30Z</time>
      </trkpt>
      <trkpt lat="46.77555" lon="5.62845">
        <ele>461.8</ele>
        <time>2021-03-28T14:40:34Z</time>
      </trkpt>
      <trkpt lat="46.7755" lon="5.62844">
        <ele>461.5</ele>
        <time>2021-03-28T14:40:38Z</time>
      </trkpt>
      <trkpt lat="46.77545" lon="5.62843">
        <ele>461.5</ele>
        <time>2021-03-28T14:40:42Z</time>
      </trkpt>
      <trkpt lat="46.77539" lon="5.62842">
        <ele>461.7</ele>
        <time>2021-03-28T14:40:46Z</time>
      </trkpt>
      <trkpt lat="46.77533" lon="5.6284">
        <ele>462</ele>
        <time>2021-03-28T14:40:50Z</time>
      </trkpt>
      <trkpt lat="46.77527" lon="5.62838">
        <ele>462.4</ele>
        <time>2021-03-28T14:40:54Z</time>
      </trkpt>
      <trkpt lat="46.77522" lon="5.62837">
        <ele>462.8</ele>
        <time>2021-03-28T14:40:58Z</time>
      </trkpt>
      <trkpt lat="46.77516" lon="5.62835">
        <ele>462.9</ele>
        <time>2021-03-28T14:41:03Z</time>
      </trkpt>
      <trkpt lat="46.77512" lon="5.62833">
        <ele>462.8</ele>
        <time>2021-03-28T14:41:08Z</time>
      </trkpt>
      <trkpt lat="46.77507" lon="5.62831">
        <ele>462.4</ele>
        <time>2021-03-28T14:41:14Z</time>
      </trkpt>
      <trkpt lat="46.77503" lon="5.6283">
        <ele>462.1</ele>
        <time>2021-03-28T14:41:18Z</time>
      </trkpt>
      <trkpt lat="46.77498" lon="5.62829">
        <ele>461.7</ele>
        <time>2021-03-28T14:41:22Z</time>
      </trkpt>
      <trkpt lat="46.77493" lon="5.62827">
        <ele>461</ele>
        <time>2021-03-28T14:41:29Z</time>
      </trkpt>
      <trkpt lat="46.77498" lon="5.62824">
        <ele>458.8</ele>
        <time>2021-03-28T14:42:05Z</time>
      </trkpt>
      <trkpt lat="46.77498" lon="5.6283">
        <ele>459.1</ele>
        <time>2021-03-28T14:42:59Z</time>
      </trkpt>
      <trkpt lat="46.77499" lon="5.62837">
        <ele>461.3</ele>
        <time>2021-03-28T14:43:49Z</time>
      </trkpt>
      <trkpt lat="46.77502" lon="5.62844">
        <ele>461.8</ele>
        <time>2021-03-28T14:43:54Z</time>
      </trkpt>
      <trkpt lat="46.77505" lon="5.62851">
        <ele>462</ele>
        <time>2021-03-28T14:43:58Z</time>
      </trkpt>
      <trkpt lat="46.77508" lon="5.62857">
        <ele>462.6</ele>
        <time>2021-03-28T14:44:03Z</time>
      </trkpt>
      <trkpt lat="46.7751" lon="5.62864">
        <ele>462.9</ele>
        <time>2021-03-28T14:44:08Z</time>
      </trkpt>
      <trkpt lat="46.77513" lon="5.6287">
        <ele>463.1</ele>
        <time>2021-03-28T14:44:12Z</time>
      </trkpt>
      <trkpt lat="46.77514" lon="5.62876">
        <ele>463.3</ele>
        <time>2021-03-28T14:44:16Z</time>
      </trkpt>
      <trkpt lat="46.77516" lon="5.62882">
        <ele>463.3</ele>
        <time>2021-03-28T14:44:20Z</time>
      </trkpt>
      <trkpt lat="46.77519" lon="5.62888">
        <ele>463.2</ele>
        <time>2021-03-28T14:44:24Z</time>
      </trkpt>
      <trkpt lat="46.77521" lon="5.62894">
        <ele>463.3</ele>
        <time>2021-03-28T14:44:28Z</time>
      </trkpt>
      <trkpt lat="46.77525" lon="5.62899">
        <ele>463.4</ele>
        <time>2021-03-28T14:44:32Z</time>
      </trkpt>
      <trkpt lat="46.77527" lon="5.62905">
        <ele>463.6</ele>
        <time>2021-03-28T14:44:37Z</time>
      </trkpt>
      <trkpt lat="46.7753" lon="5.62912">
        <ele>463.8</ele>
        <time>2021-03-28T14:44:42Z</time>
      </trkpt>
      <trkpt lat="46.77533" lon="5.62917">
        <ele>464.2</ele>
        <time>2021-03-28T14:44:46Z</time>
      </trkpt>
      <trkpt lat="46.77536" lon="5.62923">
        <ele>464.8</ele>
        <time>2021-03-28T14:44:50Z</time>
      </trkpt>
      <trkpt lat="46.77538" lon="5.6293">
        <ele>465</ele>
        <time>2021-03-28T14:44:55Z</time>
      </trkpt>
      <trkpt lat="46.77541" lon="5.62936">
        <ele>465.2</ele>
        <time>2021-03-28T14:45:00Z</time>
      </trkpt>
      <trkpt lat="46.77545" lon="5.62942">
        <ele>465.4</ele>
        <time>2021-03-28T14:45:05Z</time>
      </trkpt>
      <trkpt lat="46.77544" lon="5.62949">
        <ele>466</ele>
        <time>2021-03-28T14:45:14Z</time>
      </trkpt>
      <trkpt lat="46.7754" lon="5.62953">
        <ele>466.9</ele>
        <time>2021-03-28T14:45:21Z</time>
      </trkpt>
      <trkpt lat="46.77535" lon="5.62952">
        <ele>467.6</ele>
        <time>2021-03-28T14:45:26Z</time>
      </trkpt>
      <trkpt lat="46.7753" lon="5.62951">
        <ele>467.8</ele>
        <time>2021-03-28T14:45:30Z</time>
      </trkpt>
      <trkpt lat="46.77525" lon="5.62947">
        <ele>468.3</ele>
        <time>2021-03-28T14:45:35Z</time>
      </trkpt>
      <trkpt lat="46.77519" lon="5.62943">
        <ele>468.5</ele>
        <time>2021-03-28T14:45:39Z</time>
      </trkpt>
      <trkpt lat="46.77513" lon="5.62939">
        <ele>468.9</ele>
        <time>2021-03-28T14:45:43Z</time>
      </trkpt>
      <trkpt lat="46.77509" lon="5.62936">
        <ele>469</ele>
        <time>2021-03-28T14:45:48Z</time>
      </trkpt>
      <trkpt lat="46.77505" lon="5.62931">
        <ele>469.4</ele>
        <time>2021-03-28T14:45:52Z</time>
      </trkpt>
      <trkpt lat="46.77501" lon="5.62926">
        <ele>469.7</ele>
        <time>2021-03-28T14:45:57Z</time>
      </trkpt>
      <trkpt lat="46.77498" lon="5.62921">
        <ele>469.7</ele>
        <time>2021-03-28T14:46:03Z</time>
      </trkpt>
      <trkpt lat="46.77494" lon="5.62916">
        <ele>470.2</ele>
        <time>2021-03-28T14:46:08Z</time>
      </trkpt>
      <trkpt lat="46.77491" lon="5.62911">
        <ele>470.4</ele>
        <time>2021-03-28T14:46:13Z</time>
      </trkpt>
      <trkpt lat="46.77488" lon="5.62906">
        <ele>470</ele>
        <time>2021-03-28T14:46:17Z</time>
      </trkpt>
      <trkpt lat="46.77484" lon="5.62903">
        <ele>469.4</ele>
        <time>2021-03-28T14:46:21Z</time>
      </trkpt>
      <trkpt lat="46.77478" lon="5.62899">
        <ele>468.7</ele>
        <time>2021-03-28T14:46:25Z</time>
      </trkpt>
      <trkpt lat="46.77474" lon="5.62895">
        <ele>469.3</ele>
        <time>2021-03-28T14:46:30Z</time>
      </trkpt>
      <trkpt lat="46.77471" lon="5.62891">
        <ele>470.2</ele>
        <time>2021-03-28T14:46:35Z</time>
      </trkpt>
      <trkpt lat="46.77467" lon="5.62887">
        <ele>470.6</ele>
        <time>2021-03-28T14:46:40Z</time>
      </trkpt>
      <trkpt lat="46.77463" lon="5.62883">
        <ele>470.7</ele>
        <time>2021-03-28T14:46:44Z</time>
      </trkpt>
      <trkpt lat="46.77459" lon="5.62879">
        <ele>471</ele>
        <time>2021-03-28T14:46:48Z</time>
      </trkpt>
      <trkpt lat="46.77455" lon="5.62874">
        <ele>472.4</ele>
        <time>2021-03-28T14:46:52Z</time>
      </trkpt>
      <trkpt lat="46.77451" lon="5.62871">
        <ele>473.8</ele>
        <time>2021-03-28T14:46:57Z</time>
      </trkpt>
      <trkpt lat="46.77446" lon="5.62868">
        <ele>474.9</ele>
        <time>2021-03-28T14:47:02Z</time>
      </trkpt>
      <trkpt lat="46.77442" lon="5.62863">
        <ele>476.5</ele>
        <time>2021-03-28T14:47:06Z</time>
      </trkpt>
      <trkpt lat="46.77437" lon="5.6286">
        <ele>477.8</ele>
        <time>2021-03-28T14:47:11Z</time>
      </trkpt>
      <trkpt lat="46.77432" lon="5.62858">
        <ele>477.5</ele>
        <time>2021-03-28T14:47:15Z</time>
      </trkpt>
      <trkpt lat="46.77428" lon="5.62855">
        <ele>477.1</ele>
        <time>2021-03-28T14:47:19Z</time>
      </trkpt>
      <trkpt lat="46.77422" lon="5.62854">
        <ele>478</ele>
        <time>2021-03-28T14:47:23Z</time>
      </trkpt>
      <trkpt lat="46.77417" lon="5.62854">
        <ele>480.3</ele>
        <time>2021-03-28T14:47:27Z</time>
      </trkpt>
      <trkpt lat="46.77413" lon="5.62852">
        <ele>483.3</ele>
        <time>2021-03-28T14:47:32Z</time>
      </trkpt>
      <trkpt lat="46.77408" lon="5.62852">
        <ele>484.9</ele>
        <time>2021-03-28T14:47:37Z</time>
      </trkpt>
      <trkpt lat="46.77402" lon="5.62851">
        <ele>485.3</ele>
        <time>2021-03-28T14:47:41Z</time>
      </trkpt>
      <trkpt lat="46.77397" lon="5.62849">
        <ele>485.8</ele>
        <time>2021-03-28T14:47:45Z</time>
      </trkpt>
      <trkpt lat="46.77393" lon="5.62846">
        <ele>486.3</ele>
        <time>2021-03-28T14:47:49Z</time>
      </trkpt>
      <trkpt lat="46.77389" lon="5.62843">
        <ele>486.3</ele>
        <time>2021-03-28T14:47:54Z</time>
      </trkpt>
      <trkpt lat="46.77384" lon="5.62842">
        <ele>485.4</ele>
        <time>2021-03-28T14:47:59Z</time>
      </trkpt>
      <trkpt lat="46.77379" lon="5.62841">
        <ele>484</ele>
        <time>2021-03-28T14:48:04Z</time>
      </trkpt>
      <trkpt lat="46.77374" lon="5.62842">
        <ele>482.7</ele>
        <time>2021-03-28T14:48:11Z</time>
      </trkpt>
      <trkpt lat="46.7737" lon="5.62844">
        <ele>482.8</ele>
        <time>2021-03-28T14:48:22Z</time>
      </trkpt>
      <trkpt lat="46.77365" lon="5.62846">
        <ele>482.5</ele>
        <time>2021-03-28T14:48:40Z</time>
      </trkpt>
      <trkpt lat="46.7736" lon="5.62844">
        <ele>483.4</ele>
        <time>2021-03-28T14:48:44Z</time>
      </trkpt>
      <trkpt lat="46.77356" lon="5.62842">
        <ele>484.9</ele>
        <time>2021-03-28T14:48:48Z</time>
      </trkpt>
      <trkpt lat="46.77351" lon="5.62838">
        <ele>487.3</ele>
        <time>2021-03-28T14:48:54Z</time>
      </trkpt>
      <trkpt lat="46.77348" lon="5.62833">
        <ele>489.8</ele>
        <time>2021-03-28T14:49:02Z</time>
      </trkpt>
      <trkpt lat="46.77343" lon="5.62834">
        <ele>490.6</ele>
        <time>2021-03-28T14:49:12Z</time>
      </trkpt>
      <trkpt lat="46.77339" lon="5.62831">
        <ele>490.7</ele>
        <time>2021-03-28T14:49:18Z</time>
      </trkpt>
      <trkpt lat="46.77334" lon="5.62832">
        <ele>490.4</ele>
        <time>2021-03-28T14:49:24Z</time>
      </trkpt>
      <trkpt lat="46.77329" lon="5.62831">
        <ele>490</ele>
        <time>2021-03-28T14:49:30Z</time>
      </trkpt>
      <trkpt lat="46.77325" lon="5.62832">
        <ele>487.4</ele>
        <time>2021-03-28T14:49:56Z</time>
      </trkpt>
      <trkpt lat="46.7732" lon="5.6283">
        <ele>485.6</ele>
        <time>2021-03-28T14:50:14Z</time>
      </trkpt>
      <trkpt lat="46.77315" lon="5.6283">
        <ele>484.5</ele>
        <time>2021-03-28T14:50:19Z</time>
      </trkpt>
      <trkpt lat="46.7731" lon="5.62829">
        <ele>483.5</ele>
        <time>2021-03-28T14:50:24Z</time>
      </trkpt>
      <trkpt lat="46.77306" lon="5.62827">
        <ele>482.9</ele>
        <time>2021-03-28T14:50:28Z</time>
      </trkpt>
      <trkpt lat="46.773" lon="5.62825">
        <ele>482</ele>
        <time>2021-03-28T14:50:33Z</time>
      </trkpt>
      <trkpt lat="46.77296" lon="5.62823">
        <ele>481.3</ele>
        <time>2021-03-28T14:50:37Z</time>
      </trkpt>
      <trkpt lat="46.77291" lon="5.62821">
        <ele>480.7</ele>
        <time>2021-03-28T14:50:41Z</time>
      </trkpt>
      <trkpt lat="46.77286" lon="5.62816">
        <ele>480.1</ele>
        <time>2021-03-28T14:50:46Z</time>
      </trkpt>
      <trkpt lat="46.77282" lon="5.62813">
        <ele>479.7</ele>
        <time>2021-03-28T14:50:50Z</time>
      </trkpt>
      <trkpt lat="46.77278" lon="5.62809">
        <ele>479.3</ele>
        <time>2021-03-28T14:50:57Z</time>
      </trkpt>
      <trkpt lat="46.77273" lon="5.62809">
        <ele>478.6</ele>
        <time>2021-03-28T14:51:02Z</time>
      </trkpt>
      <trkpt lat="46.77268" lon="5.6281">
        <ele>478.1</ele>
        <time>2021-03-28T14:51:06Z</time>
      </trkpt>
      <trkpt lat="46.77262" lon="5.6281">
        <ele>477.9</ele>
        <time>2021-03-28T14:51:10Z</time>
      </trkpt>
      <trkpt lat="46.77257" lon="5.62809">
        <ele>477.3</ele>
        <time>2021-03-28T14:51:15Z</time>
      </trkpt>
      <trkpt lat="46.77253" lon="5.62809">
        <ele>476.9</ele>
        <time>2021-03-28T14:51:20Z</time>
      </trkpt>
      <trkpt lat="46.77248" lon="5.62809">
        <ele>476.9</ele>
        <time>2021-03-28T14:51:25Z</time>
      </trkpt>
      <trkpt lat="46.77243" lon="5.62806">
        <ele>475.9</ele>
        <time>2021-03-28T14:51:40Z</time>
      </trkpt>
      <trkpt lat="46.77239" lon="5.62802">
        <ele>475.2</ele>
        <time>2021-03-28T14:51:46Z</time>
      </trkpt>
      <trkpt lat="46.77233" lon="5.62799">
        <ele>475.3</ele>
        <time>2021-03-28T14:51:50Z</time>
      </trkpt>
      <trkpt lat="46.77228" lon="5.628">
        <ele>475.8</ele>
        <time>2021-03-28T14:51:55Z</time>
      </trkpt>
      <trkpt lat="46.77224" lon="5.628">
        <ele>477.2</ele>
        <time>2021-03-28T14:52:10Z</time>
      </trkpt>
      <trkpt lat="46.7722" lon="5.62795">
        <ele>478.2</ele>
        <time>2021-03-28T14:52:18Z</time>
      </trkpt>
      <trkpt lat="46.77216" lon="5.62789">
        <ele>478.3</ele>
        <time>2021-03-28T14:52:23Z</time>
      </trkpt>
      <trkpt lat="46.77212" lon="5.62786">
        <ele>478.3</ele>
        <time>2021-03-28T14:52:28Z</time>
      </trkpt>
      <trkpt lat="46.77207" lon="5.62784">
        <ele>478.3</ele>
        <time>2021-03-28T14:52:33Z</time>
      </trkpt>
      <trkpt lat="46.77201" lon="5.62783">
        <ele>478.6</ele>
        <time>2021-03-28T14:52:37Z</time>
      </trkpt>
      <trkpt lat="46.77197" lon="5.62782">
        <ele>479</ele>
        <time>2021-03-28T14:52:42Z</time>
      </trkpt>
      <trkpt lat="46.77191" lon="5.6278">
        <ele>479.1</ele>
        <time>2021-03-28T14:52:48Z</time>
      </trkpt>
      <trkpt lat="46.77187" lon="5.62777">
        <ele>478.9</ele>
        <time>2021-03-28T14:52:52Z</time>
      </trkpt>
      <trkpt lat="46.77182" lon="5.62775">
        <ele>479.2</ele>
        <time>2021-03-28T14:52:56Z</time>
      </trkpt>
      <trkpt lat="46.77177" lon="5.62772">
        <ele>479.4</ele>
        <time>2021-03-28T14:53:01Z</time>
      </trkpt>
      <trkpt lat="46.77173" lon="5.6277">
        <ele>479.5</ele>
        <time>2021-03-28T14:53:05Z</time>
      </trkpt>
      <trkpt lat="46.77168" lon="5.62768">
        <ele>479.8</ele>
        <time>2021-03-28T14:53:12Z</time>
      </trkpt>
      <trkpt lat="46.77163" lon="5.62764">
        <ele>479.5</ele>
        <time>2021-03-28T14:53:18Z</time>
      </trkpt>
      <trkpt lat="46.77159" lon="5.6276">
        <ele>479.4</ele>
        <time>2021-03-28T14:53:23Z</time>
      </trkpt>
      <trkpt lat="46.77154" lon="5.62757">
        <ele>479.6</ele>
        <time>2021-03-28T14:53:28Z</time>
      </trkpt>
      <trkpt lat="46.7715" lon="5.62753">
        <ele>479.9</ele>
        <time>2021-03-28T14:53:32Z</time>
      </trkpt>
      <trkpt lat="46.77145" lon="5.62749">
        <ele>480.2</ele>
        <time>2021-03-28T14:53:37Z</time>
      </trkpt>
      <trkpt lat="46.7714" lon="5.62747">
        <ele>480.3</ele>
        <time>2021-03-28T14:53:42Z</time>
      </trkpt>
      <trkpt lat="46.77135" lon="5.62744">
        <ele>480.2</ele>
        <time>2021-03-28T14:53:47Z</time>
      </trkpt>
      <trkpt lat="46.77131" lon="5.62742">
        <ele>480.3</ele>
        <time>2021-03-28T14:53:52Z</time>
      </trkpt>
      <trkpt lat="46.77126" lon="5.62741">
        <ele>480.4</ele>
        <time>2021-03-28T14:53:56Z</time>
      </trkpt>
      <trkpt lat="46.77122" lon="5.6274">
        <ele>480.8</ele>
        <time>2021-03-28T14:54:00Z</time>
      </trkpt>
      <trkpt lat="46.77117" lon="5.62739">
        <ele>481.4</ele>
        <time>2021-03-28T14:54:04Z</time>
      </trkpt>
      <trkpt lat="46.77112" lon="5.62736">
        <ele>482</ele>
        <time>2021-03-28T14:54:09Z</time>
      </trkpt>
      <trkpt lat="46.77107" lon="5.62735">
        <ele>482.2</ele>
        <time>2021-03-28T14:54:14Z</time>
      </trkpt>
      <trkpt lat="46.77102" lon="5.62732">
        <ele>482.4</ele>
        <time>2021-03-28T14:54:20Z</time>
      </trkpt>
      <trkpt lat="46.77097" lon="5.6273">
        <ele>482.8</ele>
        <time>2021-03-28T14:54:26Z</time>
      </trkpt>
      <trkpt lat="46.77092" lon="5.62729">
        <ele>483.1</ele>
        <time>2021-03-28T14:54:31Z</time>
      </trkpt>
      <trkpt lat="46.77088" lon="5.62727">
        <ele>483.1</ele>
        <time>2021-03-28T14:54:35Z</time>
      </trkpt>
      <trkpt lat="46.77082" lon="5.62725">
        <ele>482.9</ele>
        <time>2021-03-28T14:54:40Z</time>
      </trkpt>
      <trkpt lat="46.77078" lon="5.62723">
        <ele>482.7</ele>
        <time>2021-03-28T14:54:46Z</time>
      </trkpt>
      <trkpt lat="46.77073" lon="5.62722">
        <ele>482.7</ele>
        <time>2021-03-28T14:54:51Z</time>
      </trkpt>
      <trkpt lat="46.77068" lon="5.62721">
        <ele>482.7</ele>
        <time>2021-03-28T14:54:56Z</time>
      </trkpt>
      <trkpt lat="46.77063" lon="5.62719">
        <ele>482.7</ele>
        <time>2021-03-28T14:55:01Z</time>
      </trkpt>
      <trkpt lat="46.77057" lon="5.62717">
        <ele>482.7</ele>
        <time>2021-03-28T14:55:06Z</time>
      </trkpt>
      <trkpt lat="46.77053" lon="5.62716">
        <ele>482.6</ele>
        <time>2021-03-28T14:55:10Z</time>
      </trkpt>
      <trkpt lat="46.77048" lon="5.62715">
        <ele>482.4</ele>
        <time>2021-03-28T14:55:14Z</time>
      </trkpt>
      <trkpt lat="46.77043" lon="5.62711">
        <ele>482.5</ele>
        <time>2021-03-28T14:55:19Z</time>
      </trkpt>
      <trkpt lat="46.7704" lon="5.62707">
        <ele>482.6</ele>
        <time>2021-03-28T14:55:24Z</time>
      </trkpt>
      <trkpt lat="46.77035" lon="5.62706">
        <ele>482.3</ele>
        <time>2021-03-28T14:55:29Z</time>
      </trkpt>
      <trkpt lat="46.7703" lon="5.62705">
        <ele>482</ele>
        <time>2021-03-28T14:55:33Z</time>
      </trkpt>
      <trkpt lat="46.77025" lon="5.62704">
        <ele>481.4</ele>
        <time>2021-03-28T14:55:38Z</time>
      </trkpt>
      <trkpt lat="46.7702" lon="5.62702">
        <ele>480.8</ele>
        <time>2021-03-28T14:55:42Z</time>
      </trkpt>
      <trkpt lat="46.77016" lon="5.62702">
        <ele>480.3</ele>
        <time>2021-03-28T14:55:46Z</time>
      </trkpt>
      <trkpt lat="46.77011" lon="5.62702">
        <ele>479.8</ele>
        <time>2021-03-28T14:55:51Z</time>
      </trkpt>
      <trkpt lat="46.77006" lon="5.62701">
        <ele>479.4</ele>
        <time>2021-03-28T14:55:57Z</time>
      </trkpt>
      <trkpt lat="46.77001" lon="5.627">
        <ele>478.9</ele>
        <time>2021-03-28T14:56:02Z</time>
      </trkpt>
      <trkpt lat="46.76996" lon="5.62697">
        <ele>478.1</ele>
        <time>2021-03-28T14:56:06Z</time>
      </trkpt>
      <trkpt lat="46.76992" lon="5.62695">
        <ele>477</ele>
        <time>2021-03-28T14:56:10Z</time>
      </trkpt>
      <trkpt lat="46.76987" lon="5.62694">
        <ele>475.9</ele>
        <time>2021-03-28T14:56:14Z</time>
      </trkpt>
      <trkpt lat="46.76983" lon="5.62691">
        <ele>474.1</ele>
        <time>2021-03-28T14:56:21Z</time>
      </trkpt>
      <trkpt lat="46.76978" lon="5.62688">
        <ele>473.5</ele>
        <time>2021-03-28T14:56:28Z</time>
      </trkpt>
      <trkpt lat="46.76974" lon="5.62685">
        <ele>474.3</ele>
        <time>2021-03-28T14:58:07Z</time>
      </trkpt>
      <trkpt lat="46.76969" lon="5.62683">
        <ele>474.4</ele>
        <time>2021-03-28T14:58:13Z</time>
      </trkpt>
      <trkpt lat="46.76965" lon="5.62678">
        <ele>474.1</ele>
        <time>2021-03-28T14:58:18Z</time>
      </trkpt>
      <trkpt lat="46.76962" lon="5.62673">
        <ele>474.1</ele>
        <time>2021-03-28T14:58:22Z</time>
      </trkpt>
      <trkpt lat="46.76958" lon="5.62667">
        <ele>474</ele>
        <time>2021-03-28T14:58:27Z</time>
      </trkpt>
      <trkpt lat="46.76954" lon="5.62663">
        <ele>473.9</ele>
        <time>2021-03-28T14:58:32Z</time>
      </trkpt>
      <trkpt lat="46.7695" lon="5.62658">
        <ele>473.6</ele>
        <time>2021-03-28T14:58:37Z</time>
      </trkpt>
      <trkpt lat="46.76946" lon="5.62655">
        <ele>473.4</ele>
        <time>2021-03-28T14:58:42Z</time>
      </trkpt>
      <trkpt lat="46.76941" lon="5.62653">
        <ele>473.1</ele>
        <time>2021-03-28T14:58:46Z</time>
      </trkpt>
      <trkpt lat="46.76937" lon="5.62651">
        <ele>472.6</ele>
        <time>2021-03-28T14:58:50Z</time>
      </trkpt>
      <trkpt lat="46.76932" lon="5.62648">
        <ele>472.2</ele>
        <time>2021-03-28T14:58:55Z</time>
      </trkpt>
      <trkpt lat="46.76927" lon="5.62646">
        <ele>472.1</ele>
        <time>2021-03-28T14:59:00Z</time>
      </trkpt>
      <trkpt lat="46.76922" lon="5.62643">
        <ele>472.1</ele>
        <time>2021-03-28T14:59:05Z</time>
      </trkpt>
      <trkpt lat="46.76917" lon="5.62641">
        <ele>472.1</ele>
        <time>2021-03-28T14:59:10Z</time>
      </trkpt>
      <trkpt lat="46.76913" lon="5.62638">
        <ele>471.7</ele>
        <time>2021-03-28T14:59:16Z</time>
      </trkpt>
      <trkpt lat="46.76908" lon="5.62635">
        <ele>471.2</ele>
        <time>2021-03-28T14:59:21Z</time>
      </trkpt>
      <trkpt lat="46.76904" lon="5.62633">
        <ele>470.9</ele>
        <time>2021-03-28T14:59:25Z</time>
      </trkpt>
      <trkpt lat="46.76899" lon="5.62631">
        <ele>470.9</ele>
        <time>2021-03-28T14:59:29Z</time>
      </trkpt>
      <trkpt lat="46.76894" lon="5.62629">
        <ele>470.8</ele>
        <time>2021-03-28T14:59:33Z</time>
      </trkpt>
      <trkpt lat="46.7689" lon="5.62628">
        <ele>471</ele>
        <time>2021-03-28T14:59:37Z</time>
      </trkpt>
      <trkpt lat="46.76885" lon="5.62627">
        <ele>471.4</ele>
        <time>2021-03-28T14:59:42Z</time>
      </trkpt>
      <trkpt lat="46.7688" lon="5.62624">
        <ele>471.7</ele>
        <time>2021-03-28T14:59:48Z</time>
      </trkpt>
      <trkpt lat="46.76875" lon="5.62622">
        <ele>472.1</ele>
        <time>2021-03-28T14:59:53Z</time>
      </trkpt>
      <trkpt lat="46.7687" lon="5.62621">
        <ele>472.8</ele>
        <time>2021-03-28T14:59:57Z</time>
      </trkpt>
      <trkpt lat="46.76865" lon="5.6262">
        <ele>473.4</ele>
        <time>2021-03-28T15:00:01Z</time>
      </trkpt>
      <trkpt lat="46.7686" lon="5.62619">
        <ele>474</ele>
        <time>2021-03-28T15:00:06Z</time>
      </trkpt>
      <trkpt lat="46.76855" lon="5.62619">
        <ele>475.2</ele>
        <time>2021-03-28T15:00:11Z</time>
      </trkpt>
      <trkpt lat="46.7685" lon="5.62617">
        <ele>476.1</ele>
        <time>2021-03-28T15:00:16Z</time>
      </trkpt>
      <trkpt lat="46.76845" lon="5.62616">
        <ele>476.9</ele>
        <time>2021-03-28T15:00:20Z</time>
      </trkpt>
      <trkpt lat="46.76841" lon="5.62612">
        <ele>477.1</ele>
        <time>2021-03-28T15:00:25Z</time>
      </trkpt>
      <trkpt lat="46.76836" lon="5.62609">
        <ele>477.2</ele>
        <time>2021-03-28T15:00:29Z</time>
      </trkpt>
      <trkpt lat="46.76831" lon="5.62609">
        <ele>477.1</ele>
        <time>2021-03-28T15:00:33Z</time>
      </trkpt>
      <trkpt lat="46.76826" lon="5.62608">
        <ele>476.9</ele>
        <time>2021-03-28T15:00:37Z</time>
      </trkpt>
      <trkpt lat="46.76822" lon="5.62606">
        <ele>476.7</ele>
        <time>2021-03-28T15:00:41Z</time>
      </trkpt>
      <trkpt lat="46.76818" lon="5.62604">
        <ele>476.9</ele>
        <time>2021-03-28T15:00:46Z</time>
      </trkpt>
      <trkpt lat="46.76813" lon="5.62602">
        <ele>477.4</ele>
        <time>2021-03-28T15:00:52Z</time>
      </trkpt>
      <trkpt lat="46.76809" lon="5.62599">
        <ele>477.9</ele>
        <time>2021-03-28T15:00:57Z</time>
      </trkpt>
      <trkpt lat="46.76804" lon="5.62596">
        <ele>478.5</ele>
        <time>2021-03-28T15:01:02Z</time>
      </trkpt>
      <trkpt lat="46.768" lon="5.62592">
        <ele>479.4</ele>
        <time>2021-03-28T15:01:08Z</time>
      </trkpt>
      <trkpt lat="46.76796" lon="5.62588">
        <ele>480</ele>
        <time>2021-03-28T15:01:17Z</time>
      </trkpt>
      <trkpt lat="46.76792" lon="5.62586">
        <ele>482.3</ele>
        <time>2021-03-28T15:02:13Z</time>
      </trkpt>
      <trkpt lat="46.76798" lon="5.62585">
        <ele>482.4</ele>
        <time>2021-03-28T15:03:27Z</time>
      </trkpt>
      <trkpt lat="46.76799" lon="5.62591">
        <ele>482.1</ele>
        <time>2021-03-28T15:04:44Z</time>
      </trkpt>
      <trkpt lat="46.76799" lon="5.62598">
        <ele>483.4</ele>
        <time>2021-03-28T15:04:51Z</time>
      </trkpt>
      <trkpt lat="46.76801" lon="5.62605">
        <ele>482.9</ele>
        <time>2021-03-28T15:05:21Z</time>
      </trkpt>
      <trkpt lat="46.76806" lon="5.62609">
        <ele>482.8</ele>
        <time>2021-03-28T15:05:27Z</time>
      </trkpt>
      <trkpt lat="46.7681" lon="5.62611">
        <ele>482.8</ele>
        <time>2021-03-28T15:05:32Z</time>
      </trkpt>
      <trkpt lat="46.76815" lon="5.62614">
        <ele>483.1</ele>
        <time>2021-03-28T15:05:38Z</time>
      </trkpt>
      <trkpt lat="46.7682" lon="5.62616">
        <ele>483</ele>
        <time>2021-03-28T15:05:43Z</time>
      </trkpt>
      <trkpt lat="46.76824" lon="5.62618">
        <ele>482.9</ele>
        <time>2021-03-28T15:05:48Z</time>
      </trkpt>
      <trkpt lat="46.76829" lon="5.62619">
        <ele>482.7</ele>
        <time>2021-03-28T15:05:53Z</time>
      </trkpt>
      <trkpt lat="46.76833" lon="5.62621">
        <ele>482.7</ele>
        <time>2021-03-28T15:05:58Z</time>
      </trkpt>
      <trkpt lat="46.76838" lon="5.62622">
        <ele>482.6</ele>
        <time>2021-03-28T15:06:03Z</time>
      </trkpt>
      <trkpt lat="46.76842" lon="5.62624">
        <ele>482.7</ele>
        <time>2021-03-28T15:06:07Z</time>
      </trkpt>
      <trkpt lat="46.76847" lon="5.62625">
        <ele>483</ele>
        <time>2021-03-28T15:06:12Z</time>
      </trkpt>
      <trkpt lat="46.76852" lon="5.62627">
        <ele>483.1</ele>
        <time>2021-03-28T15:06:16Z</time>
      </trkpt>
      <trkpt lat="46.76856" lon="5.62629">
        <ele>483.1</ele>
        <time>2021-03-28T15:06:20Z</time>
      </trkpt>
      <trkpt lat="46.76862" lon="5.6263">
        <ele>483</ele>
        <time>2021-03-28T15:06:25Z</time>
      </trkpt>
      <trkpt lat="46.76866" lon="5.62631">
        <ele>482.9</ele>
        <time>2021-03-28T15:06:30Z</time>
      </trkpt>
      <trkpt lat="46.76871" lon="5.62633">
        <ele>482.8</ele>
        <time>2021-03-28T15:06:35Z</time>
      </trkpt>
      <trkpt lat="46.76876" lon="5.62636">
        <ele>482.6</ele>
        <time>2021-03-28T15:06:40Z</time>
      </trkpt>
      <trkpt lat="46.76881" lon="5.62638">
        <ele>482.2</ele>
        <time>2021-03-28T15:06:45Z</time>
      </trkpt>
      <trkpt lat="46.76885" lon="5.62638">
        <ele>481.9</ele>
        <time>2021-03-28T15:06:49Z</time>
      </trkpt>
      <trkpt lat="46.7689" lon="5.62639">
        <ele>481.6</ele>
        <time>2021-03-28T15:06:54Z</time>
      </trkpt>
      <trkpt lat="46.76896" lon="5.6264">
        <ele>481.2</ele>
        <time>2021-03-28T15:06:59Z</time>
      </trkpt>
      <trkpt lat="46.769" lon="5.62642">
        <ele>481</ele>
        <time>2021-03-28T15:07:04Z</time>
      </trkpt>
      <trkpt lat="46.76906" lon="5.62644">
        <ele>480.8</ele>
        <time>2021-03-28T15:07:09Z</time>
      </trkpt>
      <trkpt lat="46.7691" lon="5.62648">
        <ele>480.5</ele>
        <time>2021-03-28T15:07:15Z</time>
      </trkpt>
      <trkpt lat="46.76914" lon="5.62652">
        <ele>480</ele>
        <time>2021-03-28T15:07:21Z</time>
      </trkpt>
      <trkpt lat="46.76919" lon="5.62654">
        <ele>479.2</ele>
        <time>2021-03-28T15:07:27Z</time>
      </trkpt>
      <trkpt lat="46.76923" lon="5.62656">
        <ele>478.6</ele>
        <time>2021-03-28T15:07:32Z</time>
      </trkpt>
      <trkpt lat="46.76928" lon="5.62658">
        <ele>477.9</ele>
        <time>2021-03-28T15:07:37Z</time>
      </trkpt>
      <trkpt lat="46.76933" lon="5.6266">
        <ele>477.3</ele>
        <time>2021-03-28T15:07:42Z</time>
      </trkpt>
      <trkpt lat="46.76937" lon="5.62663">
        <ele>476.5</ele>
        <time>2021-03-28T15:07:47Z</time>
      </trkpt>
      <trkpt lat="46.76942" lon="5.62666">
        <ele>475.4</ele>
        <time>2021-03-28T15:07:53Z</time>
      </trkpt>
      <trkpt lat="46.76947" lon="5.62669">
        <ele>474.6</ele>
        <time>2021-03-28T15:07:58Z</time>
      </trkpt>
      <trkpt lat="46.76951" lon="5.62672">
        <ele>474</ele>
        <time>2021-03-28T15:08:02Z</time>
      </trkpt>
      <trkpt lat="46.76956" lon="5.62677">
        <ele>473.4</ele>
        <time>2021-03-28T15:08:07Z</time>
      </trkpt>
      <trkpt lat="46.7696" lon="5.6268">
        <ele>472.9</ele>
        <time>2021-03-28T15:08:11Z</time>
      </trkpt>
      <trkpt lat="46.76965" lon="5.62683">
        <ele>472.5</ele>
        <time>2021-03-28T15:08:15Z</time>
      </trkpt>
      <trkpt lat="46.76969" lon="5.62687">
        <ele>472.2</ele>
        <time>2021-03-28T15:08:20Z</time>
      </trkpt>
      <trkpt lat="46.76973" lon="5.6269">
        <ele>471.8</ele>
        <time>2021-03-28T15:08:28Z</time>
      </trkpt>
      <trkpt lat="46.76979" lon="5.62683">
        <ele>473.2</ele>
        <time>2021-03-28T15:08:46Z</time>
      </trkpt>
      <trkpt lat="46.76987" lon="5.62681">
        <ele>473</ele>
        <time>2021-03-28T15:09:02Z</time>
      </trkpt>
      <trkpt lat="46.76991" lon="5.62678">
        <ele>472.8</ele>
        <time>2021-03-28T15:09:07Z</time>
      </trkpt>
      <trkpt lat="46.76995" lon="5.62675">
        <ele>472.2</ele>
        <time>2021-03-28T15:09:16Z</time>
      </trkpt>
      <trkpt lat="46.76999" lon="5.62672">
        <ele>471.7</ele>
        <time>2021-03-28T15:09:27Z</time>
      </trkpt>
      <trkpt lat="46.77004" lon="5.62668">
        <ele>471.3</ele>
        <time>2021-03-28T15:09:31Z</time>
      </trkpt>
      <trkpt lat="46.77008" lon="5.62672">
        <ele>470.4</ele>
        <time>2021-03-28T15:09:44Z</time>
      </trkpt>
      <trkpt lat="46.77013" lon="5.62676">
        <ele>469.8</ele>
        <time>2021-03-28T15:09:48Z</time>
      </trkpt>
      <trkpt lat="46.77018" lon="5.62672">
        <ele>468.8</ele>
        <time>2021-03-28T15:09:54Z</time>
      </trkpt>
      <trkpt lat="46.7702" lon="5.62665">
        <ele>467.9</ele>
        <time>2021-03-28T15:09:58Z</time>
      </trkpt>
      <trkpt lat="46.77019" lon="5.62659">
        <ele>467.2</ele>
        <time>2021-03-28T15:10:02Z</time>
      </trkpt>
      <trkpt lat="46.77015" lon="5.62654">
        <ele>465.8</ele>
        <time>2021-03-28T15:10:12Z</time>
      </trkpt>
      <trkpt lat="46.77012" lon="5.62648">
        <ele>465.1</ele>
        <time>2021-03-28T15:10:18Z</time>
      </trkpt>
      <trkpt lat="46.77008" lon="5.62645">
        <ele>464</ele>
        <time>2021-03-28T15:10:25Z</time>
      </trkpt>
      <trkpt lat="46.77005" lon="5.6264">
        <ele>463</ele>
        <time>2021-03-28T15:10:31Z</time>
      </trkpt>
      <trkpt lat="46.77" lon="5.62637">
        <ele>461.4</ele>
        <time>2021-03-28T15:10:42Z</time>
      </trkpt>
      <trkpt lat="46.76999" lon="5.62628">
        <ele>459.9</ele>
        <time>2021-03-28T15:10:58Z</time>
      </trkpt>
      <trkpt lat="46.76997" lon="5.62622">
        <ele>458.9</ele>
        <time>2021-03-28T15:11:04Z</time>
      </trkpt>
      <trkpt lat="46.76994" lon="5.62616">
        <ele>458.1</ele>
        <time>2021-03-28T15:11:10Z</time>
      </trkpt>
      <trkpt lat="46.76993" lon="5.62609">
        <ele>456.2</ele>
        <time>2021-03-28T15:11:30Z</time>
      </trkpt>
      <trkpt lat="46.76991" lon="5.62603">
        <ele>453.1</ele>
        <time>2021-03-28T15:11:40Z</time>
      </trkpt>
      <trkpt lat="46.76988" lon="5.62598">
        <ele>451.2</ele>
        <time>2021-03-28T15:11:47Z</time>
      </trkpt>
      <trkpt lat="46.76987" lon="5.62591">
        <ele>447.5</ele>
        <time>2021-03-28T15:12:07Z</time>
      </trkpt>
      <trkpt lat="46.76985" lon="5.62585">
        <ele>447.3</ele>
        <time>2021-03-28T15:12:12Z</time>
      </trkpt>
      <trkpt lat="46.76981" lon="5.6258">
        <ele>447</ele>
        <time>2021-03-28T15:12:19Z</time>
      </trkpt>
      <trkpt lat="46.76979" lon="5.62575">
        <ele>446.6</ele>
        <time>2021-03-28T15:12:31Z</time>
      </trkpt>
      <trkpt lat="46.76976" lon="5.62568">
        <ele>445.4</ele>
        <time>2021-03-28T15:12:39Z</time>
      </trkpt>
      <trkpt lat="46.76975" lon="5.62561">
        <ele>443.5</ele>
        <time>2021-03-28T15:12:46Z</time>
      </trkpt>
      <trkpt lat="46.76973" lon="5.62555">
        <ele>441.9</ele>
        <time>2021-03-28T15:12:57Z</time>
      </trkpt>
      <trkpt lat="46.76973" lon="5.62548">
        <ele>440.8</ele>
        <time>2021-03-28T15:13:04Z</time>
      </trkpt>
      <trkpt lat="46.76972" lon="5.62541">
        <ele>439.9</ele>
        <time>2021-03-28T15:13:09Z</time>
      </trkpt>
      <trkpt lat="46.76972" lon="5.62534">
        <ele>438.9</ele>
        <time>2021-03-28T15:13:14Z</time>
      </trkpt>
      <trkpt lat="46.76972" lon="5.62527">
        <ele>437.9</ele>
        <time>2021-03-28T15:13:19Z</time>
      </trkpt>
      <trkpt lat="46.76972" lon="5.62519">
        <ele>436.8</ele>
        <time>2021-03-28T15:13:26Z</time>
      </trkpt>
      <trkpt lat="46.76971" lon="5.62513">
        <ele>434.6</ele>
        <time>2021-03-28T15:13:36Z</time>
      </trkpt>
      <trkpt lat="46.76969" lon="5.62506">
        <ele>433.3</ele>
        <time>2021-03-28T15:13:41Z</time>
      </trkpt>
      <trkpt lat="46.76966" lon="5.625">
        <ele>431.9</ele>
        <time>2021-03-28T15:13:46Z</time>
      </trkpt>
      <trkpt lat="46.76963" lon="5.62495">
        <ele>430.8</ele>
        <time>2021-03-28T15:13:51Z</time>
      </trkpt>
      <trkpt lat="46.76958" lon="5.62495">
        <ele>429</ele>
        <time>2021-03-28T15:13:58Z</time>
      </trkpt>
      <trkpt lat="46.76954" lon="5.62491">
        <ele>427.7</ele>
        <time>2021-03-28T15:14:04Z</time>
      </trkpt>
      <trkpt lat="46.7695" lon="5.62486">
        <ele>426.5</ele>
        <time>2021-03-28T15:14:09Z</time>
      </trkpt>
      <trkpt lat="46.76945" lon="5.62482">
        <ele>425.2</ele>
        <time>2021-03-28T15:14:14Z</time>
      </trkpt>
      <trkpt lat="46.76942" lon="5.62479">
        <ele>424</ele>
        <time>2021-03-28T15:14:19Z</time>
      </trkpt>
      <trkpt lat="46.76939" lon="5.62474">
        <ele>423.1</ele>
        <time>2021-03-28T15:14:25Z</time>
      </trkpt>
      <trkpt lat="46.76934" lon="5.62472">
        <ele>421.9</ele>
        <time>2021-03-28T15:14:33Z</time>
      </trkpt>
      <trkpt lat="46.76929" lon="5.62469">
        <ele>421</ele>
        <time>2021-03-28T15:14:38Z</time>
      </trkpt>
      <trkpt lat="46.76925" lon="5.62466">
        <ele>420.2</ele>
        <time>2021-03-28T15:14:44Z</time>
      </trkpt>
      <trkpt lat="46.76921" lon="5.62463">
        <ele>420</ele>
        <time>2021-03-28T15:14:51Z</time>
      </trkpt>
      <trkpt lat="46.76916" lon="5.62459">
        <ele>420</ele>
        <time>2021-03-28T15:14:58Z</time>
      </trkpt>
      <trkpt lat="46.76912" lon="5.62455">
        <ele>420.1</ele>
        <time>2021-03-28T15:15:04Z</time>
      </trkpt>
      <trkpt lat="46.76909" lon="5.6245">
        <ele>420.1</ele>
        <time>2021-03-28T15:15:10Z</time>
      </trkpt>
      <trkpt lat="46.76906" lon="5.62445">
        <ele>420</ele>
        <time>2021-03-28T15:15:16Z</time>
      </trkpt>
      <trkpt lat="46.76902" lon="5.62441">
        <ele>419.4</ele>
        <time>2021-03-28T15:15:23Z</time>
      </trkpt>
      <trkpt lat="46.76899" lon="5.62435">
        <ele>418.6</ele>
        <time>2021-03-28T15:15:31Z</time>
      </trkpt>
      <trkpt lat="46.76896" lon="5.62429">
        <ele>417.5</ele>
        <time>2021-03-28T15:15:38Z</time>
      </trkpt>
      <trkpt lat="46.76896" lon="5.62423">
        <ele>416.4</ele>
        <time>2021-03-28T15:15:45Z</time>
      </trkpt>
      <trkpt lat="46.76896" lon="5.62416">
        <ele>415.1</ele>
        <time>2021-03-28T15:15:52Z</time>
      </trkpt>
      <trkpt lat="46.76894" lon="5.6241">
        <ele>413.1</ele>
        <time>2021-03-28T15:16:03Z</time>
      </trkpt>
      <trkpt lat="46.76889" lon="5.62407">
        <ele>412.5</ele>
        <time>2021-03-28T15:16:09Z</time>
      </trkpt>
      <trkpt lat="46.76886" lon="5.62403">
        <ele>412.4</ele>
        <time>2021-03-28T15:16:18Z</time>
      </trkpt>
      <trkpt lat="46.76885" lon="5.62395">
        <ele>412.6</ele>
        <time>2021-03-28T15:16:26Z</time>
      </trkpt>
      <trkpt lat="46.76886" lon="5.62388">
        <ele>412.7</ele>
        <time>2021-03-28T15:16:30Z</time>
      </trkpt>
      <trkpt lat="46.76885" lon="5.62382">
        <ele>412.8</ele>
        <time>2021-03-28T15:16:34Z</time>
      </trkpt>
      <trkpt lat="46.76886" lon="5.62374">
        <ele>412.8</ele>
        <time>2021-03-28T15:16:38Z</time>
      </trkpt>
      <trkpt lat="46.76887" lon="5.62366">
        <ele>412.8</ele>
        <time>2021-03-28T15:16:42Z</time>
      </trkpt>
      <trkpt lat="46.76888" lon="5.62358">
        <ele>412.4</ele>
        <time>2021-03-28T15:16:46Z</time>
      </trkpt>
      <trkpt lat="46.7689" lon="5.62352">
        <ele>412.1</ele>
        <time>2021-03-28T15:16:50Z</time>
      </trkpt>
      <trkpt lat="46.76892" lon="5.62344">
        <ele>411.7</ele>
        <time>2021-03-28T15:16:54Z</time>
      </trkpt>
      <trkpt lat="46.76892" lon="5.62337">
        <ele>411.3</ele>
        <time>2021-03-28T15:16:59Z</time>
      </trkpt>
      <trkpt lat="46.76894" lon="5.6233">
        <ele>410.7</ele>
        <time>2021-03-28T15:17:05Z</time>
      </trkpt>
      <trkpt lat="46.769" lon="5.62327">
        <ele>410.2</ele>
        <time>2021-03-28T15:17:11Z</time>
      </trkpt>
      <trkpt lat="46.76904" lon="5.62323">
        <ele>409</ele>
        <time>2021-03-28T15:17:15Z</time>
      </trkpt>
      <trkpt lat="46.76906" lon="5.62316">
        <ele>407.1</ele>
        <time>2021-03-28T15:17:20Z</time>
      </trkpt>
      <trkpt lat="46.76907" lon="5.62309">
        <ele>405.3</ele>
        <time>2021-03-28T15:17:26Z</time>
      </trkpt>
      <trkpt lat="46.76906" lon="5.62302">
        <ele>404.7</ele>
        <time>2021-03-28T15:17:33Z</time>
      </trkpt>
      <trkpt lat="46.76903" lon="5.62296">
        <ele>404.7</ele>
        <time>2021-03-28T15:17:38Z</time>
      </trkpt>
      <trkpt lat="46.76901" lon="5.6229">
        <ele>404.6</ele>
        <time>2021-03-28T15:17:43Z</time>
      </trkpt>
      <trkpt lat="46.76898" lon="5.62284">
        <ele>404.6</ele>
        <time>2021-03-28T15:17:47Z</time>
      </trkpt>
      <trkpt lat="46.76896" lon="5.62278">
        <ele>404.6</ele>
        <time>2021-03-28T15:17:52Z</time>
      </trkpt>
      <trkpt lat="46.76892" lon="5.62274">
        <ele>404.2</ele>
        <time>2021-03-28T15:18:00Z</time>
      </trkpt>
      <trkpt lat="46.7689" lon="5.62267">
        <ele>403.2</ele>
        <time>2021-03-28T15:18:10Z</time>
      </trkpt>
      <trkpt lat="46.76886" lon="5.62263">
        <ele>402.1</ele>
        <time>2021-03-28T15:18:17Z</time>
      </trkpt>
      <trkpt lat="46.76883" lon="5.62257">
        <ele>401.2</ele>
        <time>2021-03-28T15:18:22Z</time>
      </trkpt>
      <trkpt lat="46.7688" lon="5.62252">
        <ele>399.9</ele>
        <time>2021-03-28T15:18:28Z</time>
      </trkpt>
      <trkpt lat="46.76878" lon="5.62246">
        <ele>398</ele>
        <time>2021-03-28T15:18:36Z</time>
      </trkpt>
      <trkpt lat="46.76875" lon="5.6224">
        <ele>396.3</ele>
        <time>2021-03-28T15:18:47Z</time>
      </trkpt>
      <trkpt lat="46.76874" lon="5.62233">
        <ele>395.5</ele>
        <time>2021-03-28T15:18:59Z</time>
      </trkpt>
      <trkpt lat="46.76872" lon="5.62227">
        <ele>394.6</ele>
        <time>2021-03-28T15:19:09Z</time>
      </trkpt>
      <trkpt lat="46.7687" lon="5.62221">
        <ele>394.3</ele>
        <time>2021-03-28T15:19:15Z</time>
      </trkpt>
      <trkpt lat="46.76866" lon="5.62217">
        <ele>393.9</ele>
        <time>2021-03-28T15:19:21Z</time>
      </trkpt>
      <trkpt lat="46.76863" lon="5.62211">
        <ele>393.8</ele>
        <time>2021-03-28T15:19:26Z</time>
      </trkpt>
      <trkpt lat="46.76861" lon="5.62205">
        <ele>393.5</ele>
        <time>2021-03-28T15:19:30Z</time>
      </trkpt>
      <trkpt lat="46.76858" lon="5.62199">
        <ele>393.1</ele>
        <time>2021-03-28T15:19:36Z</time>
      </trkpt>
      <trkpt lat="46.76857" lon="5.62191">
        <ele>392.7</ele>
        <time>2021-03-28T15:19:42Z</time>
      </trkpt>
      <trkpt lat="46.76856" lon="5.62185">
        <ele>392.2</ele>
        <time>2021-03-28T15:19:49Z</time>
      </trkpt>
      <trkpt lat="46.76857" lon="5.62178">
        <ele>391.3</ele>
        <time>2021-03-28T15:19:58Z</time>
      </trkpt>
      <trkpt lat="46.76857" lon="5.62171">
        <ele>390.8</ele>
        <time>2021-03-28T15:20:03Z</time>
      </trkpt>
      <trkpt lat="46.76858" lon="5.62163">
        <ele>390.2</ele>
        <time>2021-03-28T15:20:08Z</time>
      </trkpt>
      <trkpt lat="46.76859" lon="5.62154">
        <ele>389.6</ele>
        <time>2021-03-28T15:20:12Z</time>
      </trkpt>
      <trkpt lat="46.76861" lon="5.62148">
        <ele>388.7</ele>
        <time>2021-03-28T15:20:17Z</time>
      </trkpt>
      <trkpt lat="46.76862" lon="5.62142">
        <ele>388</ele>
        <time>2021-03-28T15:20:22Z</time>
      </trkpt>
      <trkpt lat="46.76864" lon="5.62135">
        <ele>387.3</ele>
        <time>2021-03-28T15:20:26Z</time>
      </trkpt>
      <trkpt lat="46.76865" lon="5.62129">
        <ele>386.6</ele>
        <time>2021-03-28T15:20:31Z</time>
      </trkpt>
      <trkpt lat="46.76867" lon="5.62121">
        <ele>385.4</ele>
        <time>2021-03-28T15:20:38Z</time>
      </trkpt>
      <trkpt lat="46.76869" lon="5.62114">
        <ele>384.2</ele>
        <time>2021-03-28T15:20:43Z</time>
      </trkpt>
      <trkpt lat="46.76871" lon="5.62107">
        <ele>383.5</ele>
        <time>2021-03-28T15:20:47Z</time>
      </trkpt>
      <trkpt lat="46.76872" lon="5.62101">
        <ele>382.4</ele>
        <time>2021-03-28T15:20:51Z</time>
      </trkpt>
      <trkpt lat="46.76871" lon="5.62094">
        <ele>380.8</ele>
        <time>2021-03-28T15:20:57Z</time>
      </trkpt>
      <trkpt lat="46.76871" lon="5.62085">
        <ele>379.9</ele>
        <time>2021-03-28T15:21:02Z</time>
      </trkpt>
      <trkpt lat="46.76872" lon="5.62079">
        <ele>379.3</ele>
        <time>2021-03-28T15:21:06Z</time>
      </trkpt>
      <trkpt lat="46.76872" lon="5.62071">
        <ele>378.4</ele>
        <time>2021-03-28T15:21:12Z</time>
      </trkpt>
      <trkpt lat="46.7687" lon="5.62064">
        <ele>377.7</ele>
        <time>2021-03-28T15:21:17Z</time>
      </trkpt>
      <trkpt lat="46.76868" lon="5.62057">
        <ele>377.2</ele>
        <time>2021-03-28T15:21:22Z</time>
      </trkpt>
      <trkpt lat="46.76867" lon="5.6205">
        <ele>376.8</ele>
        <time>2021-03-28T15:21:27Z</time>
      </trkpt>
      <trkpt lat="46.76864" lon="5.62045">
        <ele>376.3</ele>
        <time>2021-03-28T15:21:32Z</time>
      </trkpt>
      <trkpt lat="46.76859" lon="5.62041">
        <ele>373.9</ele>
        <time>2021-03-28T15:21:38Z</time>
      </trkpt>
      <trkpt lat="46.76859" lon="5.62033">
        <ele>370.2</ele>
        <time>2021-03-28T15:21:46Z</time>
      </trkpt>
      <trkpt lat="46.76861" lon="5.62027">
        <ele>366</ele>
        <time>2021-03-28T15:21:53Z</time>
      </trkpt>
      <trkpt lat="46.76862" lon="5.62019">
        <ele>364.3</ele>
        <time>2021-03-28T15:21:58Z</time>
      </trkpt>
      <trkpt lat="46.76863" lon="5.62011">
        <ele>366.2</ele>
        <time>2021-03-28T15:22:03Z</time>
      </trkpt>
      <trkpt lat="46.76861" lon="5.62004">
        <ele>367.9</ele>
        <time>2021-03-28T15:22:07Z</time>
      </trkpt>
      <trkpt lat="46.76856" lon="5.62001">
        <ele>369.2</ele>
        <time>2021-03-28T15:22:11Z</time>
      </trkpt>
      <trkpt lat="46.76851" lon="5.62001">
        <ele>370.8</ele>
        <time>2021-03-28T15:22:16Z</time>
      </trkpt>
      <trkpt lat="46.76846" lon="5.62003">
        <ele>372.8</ele>
        <time>2021-03-28T15:22:22Z</time>
      </trkpt>
      <trkpt lat="46.76841" lon="5.62004">
        <ele>375.5</ele>
        <time>2021-03-28T15:22:27Z</time>
      </trkpt>
      <trkpt lat="46.76836" lon="5.62004">
        <ele>376.8</ele>
        <time>2021-03-28T15:22:31Z</time>
      </trkpt>
      <trkpt lat="46.76831" lon="5.62004">
        <ele>378.7</ele>
        <time>2021-03-28T15:22:42Z</time>
      </trkpt>
      <trkpt lat="46.76825" lon="5.62004">
        <ele>379.2</ele>
        <time>2021-03-28T15:22:55Z</time>
      </trkpt>
      <trkpt lat="46.7682" lon="5.62005">
        <ele>378.9</ele>
        <time>2021-03-28T15:23:00Z</time>
      </trkpt>
      <trkpt lat="46.76815" lon="5.62008">
        <ele>378.8</ele>
        <time>2021-03-28T15:23:07Z</time>
      </trkpt>
      <trkpt lat="46.7681" lon="5.62008">
        <ele>378.6</ele>
        <time>2021-03-28T15:23:12Z</time>
      </trkpt>
      <trkpt lat="46.76805" lon="5.62009">
        <ele>378.5</ele>
        <time>2021-03-28T15:23:16Z</time>
      </trkpt>
      <trkpt lat="46.768" lon="5.62009">
        <ele>378.4</ele>
        <time>2021-03-28T15:23:20Z</time>
      </trkpt>
      <trkpt lat="46.76795" lon="5.62011">
        <ele>378.1</ele>
        <time>2021-03-28T15:23:25Z</time>
      </trkpt>
      <trkpt lat="46.7679" lon="5.62011">
        <ele>377.7</ele>
        <time>2021-03-28T15:23:32Z</time>
      </trkpt>
      <trkpt lat="46.76785" lon="5.62012">
        <ele>377.5</ele>
        <time>2021-03-28T15:23:36Z</time>
      </trkpt>
      <trkpt lat="46.7678" lon="5.62014">
        <ele>377.5</ele>
        <time>2021-03-28T15:23:40Z</time>
      </trkpt>
      <trkpt lat="46.76775" lon="5.62017">
        <ele>376.9</ele>
        <time>2021-03-28T15:23:45Z</time>
      </trkpt>
      <trkpt lat="46.7677" lon="5.6202">
        <ele>376.4</ele>
        <time>2021-03-28T15:23:50Z</time>
      </trkpt>
      <trkpt lat="46.76765" lon="5.62022">
        <ele>376</ele>
        <time>2021-03-28T15:23:54Z</time>
      </trkpt>
      <trkpt lat="46.7676" lon="5.62024">
        <ele>376</ele>
        <time>2021-03-28T15:23:59Z</time>
      </trkpt>
      <trkpt lat="46.76755" lon="5.62026">
        <ele>376.1</ele>
        <time>2021-03-28T15:24:04Z</time>
      </trkpt>
      <trkpt lat="46.7675" lon="5.62026">
        <ele>376.3</ele>
        <time>2021-03-28T15:24:09Z</time>
      </trkpt>
      <trkpt lat="46.76745" lon="5.62026">
        <ele>376.4</ele>
        <time>2021-03-28T15:24:14Z</time>
      </trkpt>
      <trkpt lat="46.76739" lon="5.62025">
        <ele>376.3</ele>
        <time>2021-03-28T15:24:19Z</time>
      </trkpt>
      <trkpt lat="46.76734" lon="5.62025">
        <ele>376.1</ele>
        <time>2021-03-28T15:24:23Z</time>
      </trkpt>
      <trkpt lat="46.7673" lon="5.62024">
        <ele>375.9</ele>
        <time>2021-03-28T15:24:27Z</time>
      </trkpt>
      <trkpt lat="46.76725" lon="5.62023">
        <ele>375.4</ele>
        <time>2021-03-28T15:24:31Z</time>
      </trkpt>
      <trkpt lat="46.7672" lon="5.6202">
        <ele>375</ele>
        <time>2021-03-28T15:24:36Z</time>
      </trkpt>
      <trkpt lat="46.76716" lon="5.62017">
        <ele>374.9</ele>
        <time>2021-03-28T15:24:40Z</time>
      </trkpt>
      <trkpt lat="46.76711" lon="5.62014">
        <ele>375.1</ele>
        <time>2021-03-28T15:24:45Z</time>
      </trkpt>
      <trkpt lat="46.76707" lon="5.6201">
        <ele>375.3</ele>
        <time>2021-03-28T15:24:50Z</time>
      </trkpt>
      <trkpt lat="46.76703" lon="5.62008">
        <ele>375.4</ele>
        <time>2021-03-28T15:24:55Z</time>
      </trkpt>
      <trkpt lat="46.76698" lon="5.62005">
        <ele>375.2</ele>
        <time>2021-03-28T15:25:00Z</time>
      </trkpt>
      <trkpt lat="46.76693" lon="5.62002">
        <ele>374.1</ele>
        <time>2021-03-28T15:25:07Z</time>
      </trkpt>
      <trkpt lat="46.76688" lon="5.62">
        <ele>373.4</ele>
        <time>2021-03-28T15:25:12Z</time>
      </trkpt>
      <trkpt lat="46.76683" lon="5.61997">
        <ele>372.7</ele>
        <time>2021-03-28T15:25:17Z</time>
      </trkpt>
      <trkpt lat="46.76679" lon="5.61993">
        <ele>371.9</ele>
        <time>2021-03-28T15:25:26Z</time>
      </trkpt>
      <trkpt lat="46.76675" lon="5.61991">
        <ele>371.3</ele>
        <time>2021-03-28T15:25:31Z</time>
      </trkpt>
      <trkpt lat="46.7667" lon="5.61988">
        <ele>370.9</ele>
        <time>2021-03-28T15:25:36Z</time>
      </trkpt>
      <trkpt lat="46.76665" lon="5.61986">
        <ele>370.7</ele>
        <time>2021-03-28T15:25:41Z</time>
      </trkpt>
      <trkpt lat="46.7666" lon="5.61983">
        <ele>370.5</ele>
        <time>2021-03-28T15:25:45Z</time>
      </trkpt>
      <trkpt lat="46.76655" lon="5.61981">
        <ele>370.4</ele>
        <time>2021-03-28T15:25:50Z</time>
      </trkpt>
      <trkpt lat="46.7665" lon="5.6198">
        <ele>370.4</ele>
        <time>2021-03-28T15:25:55Z</time>
      </trkpt>
      <trkpt lat="46.76645" lon="5.61978">
        <ele>370.5</ele>
        <time>2021-03-28T15:25:59Z</time>
      </trkpt>
      <trkpt lat="46.7664" lon="5.61976">
        <ele>370.8</ele>
        <time>2021-03-28T15:26:04Z</time>
      </trkpt>
      <trkpt lat="46.76636" lon="5.61975">
        <ele>370.8</ele>
        <time>2021-03-28T15:26:09Z</time>
      </trkpt>
      <trkpt lat="46.7663" lon="5.61973">
        <ele>370.7</ele>
        <time>2021-03-28T15:26:14Z</time>
      </trkpt>
      <trkpt lat="46.76626" lon="5.61971">
        <ele>370.4</ele>
        <time>2021-03-28T15:26:19Z</time>
      </trkpt>
      <trkpt lat="46.76621" lon="5.61969">
        <ele>369.8</ele>
        <time>2021-03-28T15:26:26Z</time>
      </trkpt>
      <trkpt lat="46.76616" lon="5.6197">
        <ele>368.8</ele>
        <time>2021-03-28T15:26:33Z</time>
      </trkpt>
      <trkpt lat="46.76611" lon="5.61972">
        <ele>368</ele>
        <time>2021-03-28T15:26:41Z</time>
      </trkpt>
    </trkseg>
  </trk>
</gpx>